[[{"header":{"parameterUnit":"m.s-1","parameterCategory":1,"la1":30.6,"la2":29.2853,"lo1":-89.7004,"lo2":-87.6739,"dy":0.0162,"dx":0.0183,"nx":112,"ny":82,"refTime":"2024-04-15T12:00:00:Z","depth":0,"parameterNumber":2,"parameterNumberName":"U-component_of_WINDS"},"data":[0.0,0.0,0.0,0.0,0.0,0.0,0.0,0.0,0.0,0.0,0.0,0.0,0.0,0.0,0.0,0.0,0.0,0.0,0.0,0.0,0.0,0.0,0.0,0.0,0.0,0.0,0.0,0.0,0.0,0.0,0.0,0.0,0.0,0.0,0.0,0.0,0.0,0.0,0.0,0.0,0.0,0.0,0.0,0.0,0.0,0.0,0.0,0.0,0.0,0.0,0.0,0.0,0.0,0.0,0.0,0.0,0.0,0.0,0.0,0.0,0.0,0.0,0.0,0.0,0.0,0.0,0.0,0.0,0.0,0.0,0.0,0.0,0.0,0.0,0.0,0.0,0.0,0.0,0.0,0.0,0.0,0.0,0.0,0.0,0.0,0.0,0.0,0.0,0.0,0.0,-5.0712,-5.0712,-5.0712,-5.0673,-5.0614,-5.0249,-4.9827,-4.9431,0.0,0.0,0.0,0.0,0.0,0.0,0.0,0.0,0.0,0.0,0.0,0.0,0.0,0.0,0.0,0.0,0.0,0.0,0.0,0.0,0.0,0.0,0.0,0.0,0.0,0.0,0.0,0.0,0.0,0.0,0.0,0.0,0.0,0.0,0.0,0.0,0.0,0.0,0.0,0.0,0.0,0.0,0.0,0.0,0.0,0.0,0.0,0.0,0.0,0.0,0.0,0.0,0.0,0.0,0.0,0.0,0.0,0.0,0.0,0.0,0.0,0.0,0.0,0.0,0.0,0.0,0.0,0.0,0.0,0.0,0.0,0.0,0.0,0.0,0.0,0.0,0.0,0.0,0.0,0.0,0.0,0.0,0.0,0.0,0.0,0.0,0.0,0.0,0.0,0.0,0.0,0.0,0.0,0.0,0.0,0.0,0.0,0.0,0.0,0.0,0.0,0.0,0.0,0.0,-5.0712,-5.0712,-5.0712,-5.0554,-5.0225,-4.9813,-4.9416,-4.9029,0.0,0.0,0.0,0.0,0.0,0.0,0.0,0.0,0.0,0.0,0.0,0.0,0.0,0.0,0.0,0.0,0.0,0.0,0.0,0.0,0.0,0.0,0.0,0.0,0.0,0.0,0.0,0.0,0.0,0.0,0.0,0.0,0.0,0.0,0.0,0.0,0.0,0.0,0.0,0.0,0.0,0.0,0.0,0.0,0.0,0.0,0.0,0.0,0.0,0.0,0.0,0.0,0.0,0.0,0.0,0.0,0.0,0.0,0.0,0.0,0.0,0.0,0.0,0.0,0.0,0.0,0.0,0.0,0.0,0.0,0.0,0.0,0.0,0.0,0.0,0.0,0.0,0.0,0.0,0.0,0.0,0.0,0.0,0.0,0.0,0.0,0.0,0.0,0.0,0.0,0.0,0.0,0.0,0.0,0.0,0.0,0.0,0.0,0.0,0.0,0.0,0.0,0.0,-5.0712,-5.0712,-5.0712,-5.0712,-5.0544,-5.0128,-4.9733,-4.9326,-4.893,-4.8692,0.0,0.0,0.0,0.0,0.0,0.0,0.0,0.0,0.0,0.0,0.0,0.0,0.0,0.0,0.0,0.0,0.0,0.0,0.0,0.0,0.0,0.0,0.0,0.0,0.0,0.0,0.0,0.0,0.0,0.0,0.0,0.0,0.0,0.0,0.0,0.0,0.0,0.0,0.0,0.0,0.0,0.0,0.0,0.0,0.0,0.0,0.0,0.0,0.0,0.0,0.0,0.0,0.0,0.0,0.0,0.0,0.0,0.0,0.0,0.0,0.0,0.0,0.0,0.0,0.0,0.0,0.0,0.0,0.0,0.0,0.0,0.0,0.0,0.0,0.0,0.0,0.0,0.0,0.0,0.0,0.0,0.0,0.0,0.0,0.0,0.0,0.0,0.0,0.0,0.0,0.0,0.0,0.0,0.0,0.0,0.0,0.0,0.0,0.0,0.0,0.0,0.0,-5.0712,-5.0712,-5.0712,-5.0614,-5.0399,-4.9987,-4.9589,-4.9187,-4.8779,-4.8477,0.0,0.0,0.0,0.0,0.0,0.0,0.0,0.0,0.0,0.0,0.0,0.0,0.0,0.0,0.0,0.0,0.0,0.0,0.0,0.0,0.0,0.0,0.0,0.0,0.0,0.0,0.0,0.0,0.0,0.0,0.0,0.0,0.0,0.0,0.0,0.0,0.0,0.0,0.0,0.0,0.0,0.0,0.0,0.0,0.0,0.0,0.0,0.0,0.0,0.0,0.0,0.0,0.0,0.0,0.0,0.0,0.0,0.0,0.0,0.0,0.0,0.0,0.0,0.0,0.0,0.0,0.0,0.0,0.0,0.0,0.0,0.0,0.0,0.0,0.0,0.0,0.0,0.0,0.0,0.0,0.0,0.0,0.0,0.0,0.0,0.0,0.0,0.0,0.0,0.0,0.0,0.0,0.0,0.0,0.0,0.0,0.0,0.0,0.0,0.0,0.0,0.0,-5.0712,-5.0712,-5.0712,-5.0377,-4.9974,-4.9594,-4.9171,-4.8761,-4.8364,-4.8325,0.0,0.0,0.0,0.0,0.0,0.0,0.0,0.0,0.0,0.0,0.0,0.0,0.0,0.0,0.0,0.0,0.0,0.0,0.0,0.0,0.0,0.0,0.0,0.0,0.0,0.0,0.0,0.0,0.0,0.0,0.0,0.0,0.0,0.0,0.0,0.0,0.0,0.0,0.0,0.0,0.0,0.0,0.0,0.0,0.0,0.0,0.0,0.0,0.0,0.0,0.0,0.0,0.0,0.0,0.0,0.0,0.0,0.0,0.0,0.0,0.0,0.0,0.0,0.0,0.0,0.0,0.0,0.0,0.0,0.0,0.0,0.0,0.0,0.0,0.0,0.0,0.0,0.0,0.0,0.0,0.0,0.0,0.0,0.0,0.0,0.0,0.0,0.0,0.0,0.0,0.0,0.0,0.0,0.0,0.0,0.0,0.0,0.0,0.0,0.0,0.0,0.0,-5.0712,-5.0712,-5.0712,-5.0565,-5.0206,-4.9566,-4.9356,-4.8996,-4.8326,0.0,0.0,0.0,0.0,0.0,0.0,0.0,0.0,0.0,0.0,0.0,0.0,0.0,0.0,0.0,0.0,0.0,0.0,0.0,0.0,0.0,0.0,0.0,0.0,0.0,0.0,0.0,0.0,0.0,0.0,0.0,0.0,0.0,0.0,0.0,0.0,0.0,0.0,0.0,0.0,0.0,0.0,0.0,0.0,0.0,0.0,0.0,0.0,0.0,0.0,0.0,0.0,0.0,0.0,0.0,0.0,0.0,0.0,0.0,0.0,0.0,0.0,0.0,0.0,0.0,0.0,0.0,0.0,0.0,0.0,0.0,0.0,0.0,0.0,0.0,0.0,0.0,0.0,0.0,0.0,0.0,0.0,0.0,0.0,0.0,0.0,0.0,0.0,0.0,0.0,0.0,0.0,0.0,0.0,0.0,0.0,0.0,0.0,0.0,0.0,0.0,0.0,-5.0712,-5.0712,-5.0712,-5.0712,-5.0594,-5.0237,-4.9547,-4.9386,-4.9029,-4.8326,0.0,0.0,0.0,0.0,0.0,0.0,0.0,0.0,0.0,0.0,0.0,0.0,0.0,0.0,0.0,0.0,0.0,0.0,0.0,0.0,0.0,0.0,0.0,0.0,0.0,0.0,0.0,0.0,0.0,0.0,0.0,0.0,0.0,0.0,0.0,0.0,0.0,0.0,0.0,0.0,0.0,0.0,0.0,0.0,0.0,0.0,0.0,0.0,0.0,0.0,0.0,0.0,0.0,0.0,0.0,0.0,0.0,0.0,0.0,0.0,0.0,0.0,0.0,0.0,0.0,0.0,0.0,0.0,0.0,0.0,0.0,0.0,0.0,0.0,0.0,0.0,0.0,0.0,0.0,0.0,0.0,0.0,0.0,0.0,0.0,0.0,0.0,0.0,0.0,0.0,0.0,0.0,0.0,0.0,0.0,0.0,0.0,0.0,0.0,0.0,0.0,0.0,-5.0712,-5.0712,-5.0712,-5.0712,-5.0347,-4.9936,-4.9532,-4.9139,-4.8727,0.0,0.0,0.0,0.0,0.0,0.0,0.0,0.0,0.0,0.0,0.0,0.0,0.0,0.0,0.0,0.0,0.0,0.0,0.0,0.0,0.0,0.0,0.0,0.0,0.0,0.0,0.0,0.0,0.0,0.0,0.0,0.0,0.0,0.0,0.0,0.0,0.0,0.0,0.0,0.0,0.0,0.0,0.0,0.0,0.0,0.0,0.0,0.0,0.0,0.0,0.0,0.0,0.0,0.0,0.0,0.0,0.0,0.0,0.0,0.0,0.0,0.0,0.0,0.0,0.0,0.0,0.0,0.0,0.0,0.0,0.0,0.0,0.0,0.0,0.0,0.0,0.0,0.0,0.0,0.0,0.0,0.0,0.0,0.0,0.0,0.0,0.0,0.0,0.0,0.0,0.0,0.0,0.0,0.0,0.0,0.0,0.0,0.0,0.0,0.0,0.0,0.0,0.0,-5.0616,-5.0712,-5.0712,-5.0712,-5.0604,-5.0249,-4.9547,-4.9386,-4.9029,-4.8345,0.0,0.0,0.0,0.0,0.0,0.0,0.0,0.0,0.0,0.0,0.0,0.0,0.0,0.0,0.0,0.0,0.0,0.0,0.0,0.0,0.0,0.0,0.0,0.0,0.0,0.0,0.0,0.0,0.0,0.0,0.0,0.0,0.0,0.0,0.0,0.0,0.0,0.0,0.0,0.0,0.0,0.0,0.0,0.0,0.0,0.0,0.0,0.0,0.0,0.0,0.0,0.0,0.0,0.0,0.0,0.0,0.0,0.0,0.0,0.0,0.0,0.0,0.0,0.0,0.0,0.0,0.0,0.0,0.0,0.0,0.0,0.0,0.0,0.0,0.0,0.0,0.0,0.0,0.0,0.0,0.0,0.0,0.0,0.0,0.0,0.0,0.0,0.0,0.0,0.0,0.0,0.0,0.0,0.0,0.0,0.0,0.0,0.0,0.0,0.0,0.0,0.0,-5.0596,-5.0712,-5.0712,-5.0712,-5.0554,-5.0195,-4.9547,-4.9356,-4.898,-4.8326,0.0,0.0,0.0,0.0,0.0,0.0,0.0,0.0,0.0,0.0,0.0,0.0,0.0,0.0,0.0,0.0,0.0,0.0,0.0,0.0,0.0,0.0,0.0,0.0,0.0,0.0,0.0,0.0,0.0,0.0,0.0,0.0,0.0,0.0,0.0,0.0,0.0,0.0,0.0,0.0,0.0,0.0,0.0,0.0,0.0,0.0,0.0,0.0,0.0,0.0,0.0,0.0,0.0,0.0,0.0,0.0,0.0,0.0,0.0,0.0,0.0,0.0,0.0,0.0,0.0,0.0,0.0,0.0,0.0,0.0,0.0,0.0,0.0,0.0,0.0,0.0,0.0,0.0,0.0,0.0,0.0,0.0,0.0,0.0,0.0,0.0,0.0,0.0,0.0,0.0,0.0,0.0,0.0,0.0,0.0,0.0,0.0,0.0,0.0,0.0,0.0,0.0,-5.0481,-5.0654,-5.0712,-5.0712,-5.0369,-4.9974,-4.9532,-4.9171,-4.8743,-4.8234,0.0,0.0,0.0,0.0,0.0,0.0,0.0,0.0,0.0,0.0,0.0,0.0,0.0,0.0,0.0,0.0,0.0,0.0,0.0,0.0,0.0,0.0,0.0,0.0,0.0,0.0,0.0,0.0,0.0,0.0,0.0,0.0,0.0,0.0,0.0,0.0,0.0,0.0,0.0,0.0,0.0,0.0,0.0,0.0,0.0,0.0,0.0,0.0,0.0,0.0,0.0,0.0,0.0,0.0,0.0,0.0,0.0,0.0,0.0,0.0,-5.1406,0.0,0.0,0.0,0.0,0.0,0.0,0.0,0.0,0.0,0.0,0.0,0.0,0.0,0.0,0.0,0.0,0.0,0.0,0.0,0.0,0.0,0.0,0.0,0.0,0.0,0.0,0.0,0.0,0.0,0.0,0.0,0.0,0.0,0.0,0.0,0.0,0.0,0.0,0.0,0.0,0.0,-4.9567,-5.0289,-5.0712,-5.0712,-5.0624,-5.0272,-4.9547,-4.9416,-4.8798,-4.7444,-4.6599,0.0,0.0,0.0,0.0,0.0,0.0,0.0,0.0,0.0,0.0,0.0,0.0,0.0,0.0,0.0,0.0,0.0,0.0,0.0,0.0,0.0,0.0,0.0,0.0,0.0,0.0,0.0,0.0,0.0,0.0,0.0,0.0,0.0,0.0,0.0,0.0,0.0,0.0,0.0,0.0,0.0,0.0,0.0,0.0,0.0,0.0,0.0,0.0,0.0,0.0,0.0,0.0,0.0,0.0,0.0,0.0,0.0,0.0,0.0,0.0,-5.1406,0.0,0.0,0.0,0.0,0.0,0.0,0.0,0.0,0.0,0.0,0.0,0.0,0.0,0.0,0.0,0.0,0.0,0.0,0.0,0.0,0.0,0.0,0.0,0.0,0.0,0.0,0.0,0.0,0.0,0.0,0.0,0.0,0.0,0.0,0.0,0.0,0.0,0.0,0.0,0.0,-4.924,-4.9798,-5.025,-5.0654,-5.0534,-5.0171,-4.9547,-4.8969,-4.8201,-4.7169,-4.5993,0.0,0.0,0.0,0.0,0.0,0.0,0.0,0.0,0.0,0.0,0.0,0.0,0.0,0.0,0.0,0.0,0.0,0.0,0.0,0.0,0.0,0.0,0.0,0.0,0.0,0.0,0.0,0.0,0.0,0.0,0.0,0.0,0.0,0.0,0.0,0.0,0.0,0.0,0.0,0.0,0.0,0.0,0.0,0.0,0.0,0.0,0.0,0.0,0.0,0.0,0.0,0.0,0.0,-5.117,-5.1183,-5.1185,-5.1317,-5.1366,-5.1366,-5.1386,-5.1406,-5.1406,-5.1406,0.0,0.0,0.0,0.0,0.0,0.0,0.0,0.0,0.0,0.0,0.0,0.0,0.0,0.0,0.0,0.0,0.0,0.0,0.0,0.0,0.0,0.0,0.0,0.0,-4.6605,-4.5596,-4.5609,0.0,0.0,0.0,0.0,0.0,0.0,0.0,0.0,0.0,0.0,0.0,-4.8798,-4.9086,-4.951,-5.0385,-5.0035,-4.9662,-4.9391,-4.8258,-4.7343,-4.6801,-4.5479,-4.4563,0.0,0.0,0.0,0.0,0.0,0.0,0.0,0.0,0.0,0.0,0.0,0.0,0.0,0.0,0.0,0.0,0.0,0.0,0.0,0.0,0.0,0.0,0.0,0.0,0.0,0.0,0.0,0.0,0.0,0.0,0.0,0.0,-5.0712,-5.0712,0.0,0.0,0.0,0.0,0.0,0.0,0.0,0.0,0.0,0.0,0.0,0.0,0.0,-5.1089,-5.1089,-5.1089,-5.1089,-5.1094,-5.1108,-5.1117,-5.1122,-5.1183,-5.1234,-5.1236,-5.1344,0.0,-5.1406,-5.1406,0.0,0.0,0.0,0.0,0.0,0.0,0.0,0.0,0.0,0.0,0.0,0.0,0.0,0.0,0.0,0.0,0.0,0.0,0.0,0.0,0.0,0.0,-4.5922,-4.5941,-4.5768,-4.5594,0.0,-4.5778,-4.5941,-4.5941,-4.5845,0.0,0.0,0.0,0.0,0.0,0.0,0.0,-4.7201,-4.7836,-4.8606,-4.9471,-4.8846,-4.8515,-4.8862,-4.7791,-4.6621,-4.552,-4.4973,-4.4067,-4.2671,-4.2506,0.0,0.0,0.0,0.0,0.0,0.0,0.0,0.0,0.0,0.0,0.0,0.0,0.0,0.0,0.0,0.0,0.0,0.0,0.0,0.0,0.0,0.0,0.0,0.0,0.0,0.0,0.0,0.0,0.0,-5.0712,-5.0712,-5.0712,-5.0712,-5.0712,0.0,0.0,0.0,0.0,0.0,0.0,0.0,0.0,0.0,-5.0871,-5.0871,-5.0871,-5.0871,-5.0871,-5.0871,-5.0871,-5.094,-5.0985,-5.0991,-5.1098,-5.1161,-5.1204,-5.1267,-5.1322,-5.1406,-5.1406,-5.1406,-5.1406,0.0,0.0,0.0,0.0,-5.1319,-5.1317,-5.1279,-5.1271,-5.1186,-5.0735,0.0,0.0,0.0,0.0,0.0,0.0,0.0,-4.6287,0.0,0.0,-4.5835,-4.6784,-4.6297,-4.5722,-4.622,-4.5951,-4.5594,0.0,-4.5594,-4.5594,-4.5594,0.0,0.0,0.0,0.0,-4.6355,-4.6836,-4.7212,-4.7759,-4.8586,-4.8336,-4.8086,-4.8071,-4.7005,-4.5994,-4.5261,-4.4046,-4.3039,-4.2323,-4.1882,-4.1462,0.0,0.0,0.0,0.0,0.0,0.0,0.0,0.0,0.0,0.0,0.0,0.0,0.0,0.0,0.0,0.0,0.0,0.0,0.0,0.0,0.0,0.0,0.0,0.0,0.0,0.0,0.0,0.0,-5.0643,-5.0712,-5.0712,-5.0712,-5.0712,0.0,0.0,0.0,0.0,0.0,0.0,-5.0712,-5.0712,-5.0712,-5.0712,-5.0712,-5.0712,-5.0712,-5.0712,-5.0712,-5.0693,-5.0797,-5.0851,-5.0859,-5.0985,-5.1079,-5.1121,-5.1164,-5.1232,-5.1344,-5.1386,-5.1406,-5.1406,-5.1406,-5.1406,-5.1406,-5.1406,-5.1406,-5.1406,-5.1406,-5.1406,-5.1347,-5.1039,-5.0219,-4.9204,-4.8459,0.0,0.0,0.0,0.0,-4.5784,-4.57,-4.5673,-4.6087,-4.7711,-4.6846,-4.5821,-4.6441,-4.6067,-4.5594,0.0,-4.5594,-4.5594,-4.5594,0.0,0.0,0.0,0.0,-4.5825,-4.649,-4.6567,-4.6874,-4.7721,-4.7586,-4.7425,-4.7352,-4.6006,-4.502,-4.474,-4.3003,-4.1901,-4.168,-4.1111,-4.0691,-4.049,0.0,0.0,0.0,0.0,0.0,0.0,0.0,0.0,0.0,0.0,0.0,0.0,0.0,0.0,0.0,0.0,0.0,0.0,0.0,0.0,0.0,0.0,0.0,0.0,0.0,0.0,0.0,0.0,0.0,-5.0712,-5.0712,0.0,0.0,0.0,0.0,-5.0712,-5.0712,-5.0712,-5.0712,-5.0712,-5.0712,-5.0712,-5.0712,-5.0712,-5.0712,-5.0712,-5.0712,-5.0712,-5.0702,-5.0712,-5.0721,-5.0851,-5.0911,-5.0925,-5.1047,-5.1148,-5.1213,-5.1344,-5.1406,-5.1406,-5.1406,-5.1406,-5.1406,-5.1406,-5.1406,-5.1406,-5.1406,-5.1406,-5.1269,-5.0508,-4.9014,-4.7515,-4.7474,-4.6719,0.0,0.0,-4.584,-4.5802,-4.5875,-4.587,-4.6251,-4.7753,-4.6926,-4.5773,-4.5676,-4.5633,-4.5594,0.0,-4.5594,-4.5594,-4.5594,0.0,-4.5594,-4.5594,-4.5594,-4.5614,-4.5671,-4.5671,-4.599,-4.6874,-4.622,-4.6047,-4.6847,-4.4779,-4.3423,-4.341,-4.2006,-4.0836,-4.0047,-3.9974,-3.9606,-3.8836,-3.8836,0.0,0.0,0.0,0.0,0.0,0.0,0.0,0.0,0.0,0.0,0.0,0.0,0.0,0.0,0.0,0.0,0.0,0.0,0.0,0.0,0.0,0.0,0.0,0.0,0.0,0.0,0.0,0.0,-5.0272,-5.0325,0.0,-5.0673,-5.0712,-5.0712,-5.0712,-5.1183,-5.1471,-5.1471,-5.201,-5.2318,-5.2318,-5.2318,-5.2318,-5.2318,-5.176,-5.1471,-5.1471,-5.0952,-5.0712,-5.0693,-5.0739,-5.0822,-5.0896,-5.0959,-5.1036,-5.1141,-5.1193,-5.1279,-5.1406,-5.1406,-5.1406,-5.1406,-5.1406,-5.1406,-5.1406,-5.1406,-5.1406,-5.1269,-5.0469,-4.9745,-4.8999,-4.7865,-4.7274,-4.6873,-4.6326,-4.6131,-4.6124,-4.6145,-4.6167,-4.6452,-4.7636,-4.6822,-4.5937,-4.6402,-4.6034,-4.5594,-4.5594,-4.5594,-4.5594,-4.5594,-4.5594,-4.5594,-4.5594,-4.5594,-4.5594,-4.5594,-4.5594,-4.5498,-4.5259,-4.4951,-4.4682,-4.447,-4.3433,-4.278,-4.278,-4.1411,-4.0452,-4.017,-3.9488,-3.9001,-3.8707,-3.8707,-3.8836,0.0,0.0,0.0,0.0,0.0,0.0,0.0,0.0,0.0,0.0,0.0,0.0,0.0,0.0,0.0,0.0,0.0,0.0,0.0,0.0,0.0,0.0,0.0,0.0,0.0,-4.9416,-4.9608,-4.9872,-4.9898,-5.0056,-5.0462,-5.0743,-5.0957,-5.1087,-5.1875,-5.2327,-5.2327,-5.2895,-5.3203,-5.3203,-5.3203,-5.3203,-5.3203,-5.2635,-5.2192,-5.1885,-5.1356,-5.0952,-5.0712,-5.0712,-5.0739,-5.0827,-5.0827,-5.0903,-5.102,-5.102,-5.1152,-5.1323,-5.1323,-5.1365,-5.1406,-5.1406,-5.1406,-5.1406,-5.1406,-5.1406,-5.1308,-5.0781,-5.043,-4.9922,-4.8476,-4.7832,-4.7422,-4.6543,-4.6308,-4.6308,-4.6295,-4.6306,-4.647,-4.7083,-4.6551,-4.6019,-4.6523,-4.6109,-4.5665,-4.5665,-4.5627,-4.5594,-4.5594,-4.5594,-4.5594,-4.5594,-4.5344,-4.5171,-4.5171,-4.4921,-4.4528,-4.3951,-4.3893,-4.3682,-4.3143,-4.2479,-4.2092,-4.2092,-4.0808,-4.0061,-4.0061,-3.9272,-3.8829,-3.8829,-3.875,-3.8707,-3.8707,0.0,0.0,0.0,0.0,0.0,0.0,0.0,0.0,0.0,0.0,0.0,0.0,0.0,0.0,0.0,0.0,0.0,0.0,0.0,0.0,0.0,0.0,0.0,-4.883,-4.9218,-4.946,-4.9475,-4.9475,-4.965,-5.0081,-5.0824,-5.1465,-5.1893,-5.2721,-5.3231,-5.3241,-5.326,-5.328,-5.328,-5.328,-5.328,-5.328,-5.326,-5.2799,-5.1942,-5.1904,-5.1491,-5.0712,-5.0712,-5.0712,-5.0712,-5.0712,-5.0764,-5.0901,-5.0901,-5.1003,-5.1196,-5.1201,-5.1273,-5.1406,-5.1406,-5.1406,-5.1406,-5.1406,-5.1406,-5.1406,-5.1406,-5.0879,-5.0078,-4.918,-4.832,-4.7461,-4.6562,-4.6308,-4.6308,-4.6308,-4.6308,-4.6268,-4.6144,-4.6091,-4.6053,-4.5928,-4.5845,-4.5809,-4.5809,-4.5673,-4.5565,-4.5594,-4.5575,-4.5556,-4.5556,-4.4816,0.0,-4.4259,-4.3585,-4.3085,-4.3066,-4.3066,-4.3047,-4.3028,-4.1943,-4.1284,-4.1284,-4.0214,-3.9599,-3.9599,-3.9264,-3.9085,-3.9085,-3.8829,-3.8707,-3.8707,0.0,0.0,0.0,0.0,0.0,0.0,0.0,0.0,0.0,0.0,0.0,0.0,0.0,0.0,0.0,0.0,0.0,0.0,0.0,0.0,0.0,-4.8306,-4.8344,-4.8458,-4.8568,-4.8745,-4.9027,-4.9059,-4.9443,-5.0435,-5.0743,-5.1294,-5.2334,-5.3173,-5.3778,-5.4115,-5.4703,-5.5011,-5.5011,-5.5011,-5.5011,-5.5011,-5.4434,-5.3703,-5.2837,-5.2192,-5.1491,-5.0712,-5.0712,-5.0712,-5.0712,-5.0712,-5.0731,-5.0748,-5.0748,-5.084,-5.1,-5.1138,-5.1273,-5.1406,-5.1406,-5.1406,-5.1406,-5.1406,-5.1406,-5.1406,-5.1406,-5.125,-5.0801,-4.9336,-4.9004,-4.873,-4.6836,-4.6308,-4.6308,-4.6308,-4.6308,-4.6289,-4.6248,-4.6173,-4.6084,-4.6047,-4.5952,-4.5867,-4.5867,-4.5285,-4.4969,-4.5505,-4.5075,-4.4662,-4.4662,-4.3951,0.0,-4.3431,-4.3239,-4.2854,-4.222,-4.2162,-4.1893,-4.1266,-4.0902,-4.0715,-4.0715,-4.0017,-3.9599,-3.9599,-3.91,-3.8818,-3.8818,-3.875,-3.8707,0.0,0.0,0.0,0.0,0.0,0.0,0.0,0.0,0.0,0.0,0.0,0.0,0.0,0.0,0.0,0.0,0.0,0.0,0.0,0.0,0.0,0.0,-4.8306,-4.8306,-4.8306,-4.8306,-4.8402,-4.8604,-4.8954,-4.952,-5.0368,-5.1072,-5.1944,-5.3021,-5.3874,-5.4542,-5.4981,-5.5453,-5.5703,-5.5703,-5.5703,-5.5703,-5.5703,-5.5241,-5.4587,-5.3722,-5.2856,-5.201,-5.1183,-5.0837,-5.0712,-5.0712,-5.0712,-5.0712,-5.0712,-5.0712,-5.0773,0.0,0.0,0.0,0.0,0.0,-5.1406,-5.1406,-5.1406,-5.1406,-5.1406,-5.1406,-5.1172,-5.0644,-4.9316,-4.8945,-4.8613,-4.6816,-4.6308,-4.6308,-4.6308,-4.6308,-4.6308,-4.6308,-4.6246,-4.6177,-4.6177,-4.5787,-4.5425,-4.5406,-4.4652,0.0,-4.449,-4.4124,-4.3797,-4.3797,-4.3085,-4.2566,-4.2566,-4.2239,-4.1816,-4.1316,-4.1258,-4.1046,-4.0535,-4.0496,0.0,0.0,0.0,-3.9863,-3.9611,-3.9268,0.0,0.0,0.0,-3.8707,-3.8707,-3.8707,0.0,0.0,-3.8927,-3.8946,0.0,0.0,0.0,0.0,0.0,0.0,0.0,0.0,0.0,0.0,0.0,0.0,0.0,0.0,0.0,0.0,-4.8306,-4.8306,-4.8306,-4.8379,-4.8416,-4.8324,-4.9058,-4.9766,-5.0153,-5.1619,-5.29,-5.381,-5.4602,-5.5224,-5.5673,0.0,0.0,0.0,0.0,-5.5703,-5.5703,-5.5703,-5.5241,-5.4337,-5.3568,-5.2702,-5.1731,-5.1029,-5.0712,-5.0712,-5.0712,-5.0712,-5.0712,-5.0712,-5.0775,-5.0879,-5.0932,-5.1045,-5.123,-5.1344,-5.1406,-5.1406,-5.1406,0.0,0.0,-5.1406,-5.0859,-5.0058,-4.9238,-4.8574,-4.7851,-4.6641,-4.6308,-4.6308,-4.6308,-4.6308,-4.6308,-4.6308,-4.6308,-4.6269,-4.6172,-4.5459,-4.4775,-4.4614,-4.3868,-4.3209,-4.3026,-4.298,-4.2975,-4.2951,-4.222,-4.1662,-4.1662,-4.0969,-4.0496,-4.0496,0.0,0.0,-4.0496,-4.0496,-4.0496,-4.0496,-4.0473,-4.0203,-3.9622,-3.9564,-3.9288,-3.8765,-3.8723,-3.8707,-3.8707,-3.8707,-3.8707,-3.8707,-3.8707,-3.8707,0.0,0.0,0.0,0.0,0.0,0.0,0.0,0.0,0.0,0.0,0.0,0.0,0.0,0.0,0.0,-4.8306,-4.8306,-4.8306,-4.8306,-4.8912,-4.9077,-4.8379,-4.9058,-4.9888,-5.061,-5.1551,-5.2754,-5.4248,-5.4534,-5.4938,-5.5662,-5.5703,-5.5703,-5.5703,-5.5703,-5.5703,-5.5703,-5.5703,-5.4934,-5.3453,0.0,0.0,-5.0933,-5.077,-5.0712,-5.0712,-5.0712,-5.0712,-5.0712,-5.0712,-5.0721,-5.0764,-5.1035,-5.1177,-5.123,-5.1344,-5.1406,-5.1406,-5.1406,-5.1406,-5.1406,-5.1406,-5.0859,-5.0117,-4.9687,-4.916,0.0,-4.6758,-4.6308,-4.6308,-4.6308,-4.6308,-4.6308,-4.6308,-4.6308,-4.6113,-4.5391,-4.5097,-4.4744,-4.4038,-4.3061,-4.2345,-4.2301,-4.2249,-4.2188,-4.2071,-4.1316,-4.0746,-4.0746,-4.0593,-4.0496,-4.0496,-4.0496,-4.0496,-4.0496,-4.0496,-4.0496,-4.0496,-4.0304,-3.9993,-3.9622,-3.9339,-3.9139,-3.9022,-3.8818,-3.8707,-3.8707,-3.8707,-3.8707,-3.8707,-3.8707,-3.8707,0.0,0.0,0.0,0.0,0.0,0.0,0.0,0.0,0.0,0.0,0.0,-4.8306,-4.8306,0.0,-4.8434,-4.8875,-4.8948,-4.9095,-4.9499,-4.9921,-4.9884,-4.904,-5.005,-5.0949,-5.1353,-5.2123,-5.3039,-5.4082,-5.4373,-5.476,-5.5375,-5.5588,-5.5703,-5.5703,-5.5703,-5.5703,-5.5703,-5.5299,-5.4684,-5.3837,-5.2972,-5.2106,-5.1298,-5.0875,-5.0712,-5.0712,-5.0712,-5.0712,-5.0712,-5.0712,-5.0712,-5.0721,-5.0959,-5.1092,-5.1151,-5.1261,-5.1344,-5.1406,-5.1406,-5.1406,-5.1328,-5.0937,-5.041,-4.9805,-4.9062,-4.8262,-4.7422,-4.6543,-4.6308,-4.6308,-4.6308,-4.6308,-4.6308,-4.6308,-4.5976,-4.5527,-4.5098,-4.4316,-4.3554,-4.3098,-4.2262,-4.1603,-4.1462,-4.1478,-4.1417,-4.1185,-4.0785,-4.0496,-4.0496,-4.0496,-4.0496,-4.0496,-4.0496,-4.0496,-4.0496,-4.0496,-4.0496,-4.0496,-4.0372,-4.0157,-3.9851,-3.9679,-3.9438,-3.9112,-3.8975,-3.8829,-3.8707,-3.8707,-3.8707,-3.8707,-3.8707,-3.8707,0.0,0.0,0.0,0.0,0.0,0.0,0.0,-4.6932,-4.7572,-4.8172,-4.8306,-4.8306,-4.8306,-4.8434,-4.8765,-4.9482,-4.9721,-5.005,-5.071,-5.093,-5.0784,-5.0143,-5.1226,-5.1995,-5.1995,-5.2729,-5.338,-5.3758,-5.4153,-5.4579,-5.5075,-5.5331,-5.5501,-5.5577,-5.5577,-5.5511,-5.5327,-5.4778,-5.4337,-5.3972,-5.2558,-5.1808,-5.1635,-5.0991,-5.0712,-5.0712,-5.0712,-5.0712,-5.0712,-5.0712,-5.0712,-5.0712,-5.0822,-5.0952,-5.1074,-5.1171,-5.1268,-5.1366,-5.1386,-5.1406,-5.1269,-5.0469,-4.9961,-4.9512,-4.8476,-4.7305,-4.6308,-4.6308,-4.6308,-4.6308,-4.6308,-4.6308,-4.6269,-4.6094,-4.5508,-4.4902,-4.457,-4.3398,-4.2343,-4.213,-4.1593,-4.1082,-4.0874,-4.0911,-4.087,-4.0589,-4.053,-4.0542,-4.0504,-4.0496,-4.0496,-4.0496,-4.0496,-4.0496,-4.0496,-4.0496,-4.0496,-4.0496,-4.0496,-4.0397,-4.0186,-4.0081,-3.9754,-3.9199,-3.909,-3.8923,-3.8707,-3.8707,-3.8707,-3.8707,-3.8707,-3.8707,-4.0985,-4.2224,-4.3488,-4.4139,-4.4887,-4.5628,0.0,-4.6932,-4.7572,-4.8172,-4.8306,-4.8306,-4.8306,-4.8875,-4.9389,-4.9499,-5.016,-5.071,-5.0784,-5.1426,-5.183,-5.1738,-5.1885,-5.1995,-5.1995,-5.2729,-5.338,-5.3758,-5.3851,-5.4236,-5.5061,-5.479,-5.4809,-5.516,-5.5173,-5.4797,-5.4021,-5.4342,-5.3722,-5.2192,-5.1981,-5.1529,-5.0827,-5.075,-5.0712,-5.0712,-5.0712,-5.0712,-5.0712,-5.0712,-5.0712,-5.0693,-5.0721,-5.0797,-5.0946,-5.1128,-5.1206,-5.1238,-5.1365,-5.1406,-5.1269,-5.0469,-4.9961,-4.959,-4.8984,-4.7637,-4.6308,-4.6308,-4.6308,-4.6308,-4.6308,-4.6308,-4.6094,-4.5332,-4.5078,-4.457,-4.3027,-4.2539,-4.2187,-4.1464,-4.1161,-4.1,-4.0988,-4.0883,-4.0792,-4.0684,-4.0674,-4.0623,-4.0519,-4.0496,-4.0496,-4.0496,-4.0496,-4.0496,-4.0496,-4.0496,-4.0496,-4.0496,-4.0496,-4.0489,-4.0457,-3.9944,-3.9622,-3.9552,-3.9022,-3.8735,-3.8707,-3.8707,-3.8707,-3.8707,-3.8707,-3.8707,-4.1508,-4.2608,-4.3576,-4.4299,-4.4991,-4.5673,-4.6264,-4.6932,-4.7572,-4.8172,-4.8306,-4.8453,-4.8948,-4.9335,-4.9867,-5.0802,-5.1261,-5.1665,-5.2142,-5.2491,-5.2711,-5.2711,-5.2711,-5.2711,-5.2711,-5.3004,-5.3272,-5.3442,-5.3682,-5.3959,-5.4317,-5.4452,-5.4336,-5.4006,-5.4002,-5.3703,-5.3118,-5.2777,-5.239,-5.1885,-5.1433,-5.1029,-5.0712,-5.0712,-5.0712,-5.0712,-5.0712,-5.0712,-5.0712,-5.0712,-5.0712,-5.0712,-5.0712,-5.073,-5.0822,-5.1059,-5.1164,-5.121,-5.1345,-5.1406,-5.123,-5.0234,-4.9609,-4.9004,-4.7754,-4.6875,-4.6308,-4.6308,-4.6308,-4.6308,-4.6308,-4.5918,-4.5449,-4.5098,-4.4238,-4.3281,-4.2558,-4.2031,-4.1601,-4.1269,-4.115,-4.1126,-4.1126,-4.1077,-4.099,-4.0896,-4.0767,-4.0505,-3.994,-3.9839,-3.9611,-3.9104,-3.9046,-3.9046,-3.9046,-3.9046,-3.9046,-3.9046,-3.9515,-3.9804,-3.9804,-4.0008,-3.9964,-3.9611,-3.9352,-3.905,-3.8707,-3.8707,-3.8707,-3.8707,-3.8707,-3.8707,-4.1999,-4.2997,-4.3914,-4.4678,-4.5178,-4.5724,-4.6501,-4.7044,-4.7572,-4.8172,-4.8306,-4.8489,-4.9133,-4.9609,-5.0326,-5.1481,-5.2032,-5.2527,-5.3112,-5.3185,-5.3185,-5.3185,-5.3185,-5.3185,-5.3185,-5.3185,-5.3185,-5.3185,-5.3464,-5.3683,-5.3796,-5.3808,-5.3568,-5.3061,-5.2817,-5.2492,-5.2079,-5.1574,-5.1385,-5.1568,-5.0971,-5.0712,-5.0712,-5.0712,-5.0712,-5.0712,-5.0712,-5.0712,-5.0712,-5.0712,-5.0712,-5.0712,-5.0712,-5.0712,-5.073,-5.1004,-5.1128,-5.1183,-5.1296,-5.1366,-5.1211,-5.0078,-4.9336,-4.8574,-4.6836,-4.6308,-4.6308,-4.6308,-4.6308,-4.623,-4.5996,-4.5469,-4.4883,-4.4394,-4.332,-4.2344,-4.2129,-4.1601,-4.1191,-4.1191,-4.1191,-4.1191,-4.1191,-4.0996,-4.0819,-4.0706,-4.0331,-3.9927,-3.9509,-3.918,-3.8719,-3.8072,-3.8007,-3.8007,-3.8007,-3.8007,-3.8007,-3.8007,-3.8584,-3.9053,-3.9284,-3.9761,-3.9937,-3.9735,-3.9564,-3.9249,-3.8818,-3.8735,-3.8707,-3.8707,-3.8707,-3.8707,-4.2286,-4.343,-4.4714,-4.532,-4.5485,-4.5833,-4.7084,-4.7385,-4.7572,-4.8172,-4.8306,-4.8324,-4.8343,-4.9682,-5.0784,-5.0839,-5.216,-5.3167,-5.3185,-5.3185,-5.3185,-5.3185,-5.3185,-5.3185,0.0,-5.3185,-5.3185,-5.3185,-5.3206,-5.34,-5.3777,-5.2687,-5.2242,-5.2621,-5.1856,-5.1222,-5.0753,-5.1108,-5.1098,-5.075,-5.0712,-5.0712,-5.0712,-5.0712,-5.0712,-5.0712,-5.0712,-5.0712,-5.0712,-5.0712,-5.0712,-5.0712,-5.0712,-5.0712,-5.073,-5.1004,-5.1094,-5.1117,-5.118,-5.1295,-5.1211,-5.0078,-4.9336,-4.8574,-4.6836,-4.6308,-4.6308,-4.6308,-4.6308,-4.6113,-4.5254,-4.5019,-4.457,-4.2871,-4.2441,-4.2187,-4.1406,-4.1211,-4.1191,-4.1191,-4.1191,-4.1191,-4.1191,-4.0508,-3.9941,-3.9922,-3.9105,-3.8739,-3.9494,-3.8738,-3.8092,-3.801,-3.8007,-3.8007,-3.8007,-3.8007,-3.8007,-3.8007,-3.8027,-3.8411,-3.9265,-3.9007,-3.9233,-4.0072,-3.9457,-3.9112,-3.9085,-3.8829,-3.8707,-3.8707,-3.8707,-3.8707,-4.2286,-4.3729,-4.5258,-4.5459,-4.5808,-4.6216,-4.6641,-4.6733,-4.6932,-4.7572,-4.7715,-4.8,-4.8981,-5.005,-5.0967,-5.1499,-5.2509,-5.3185,-5.3185,-5.3185,-5.3185,-5.3185,-5.3185,0.0,0.0,0.0,0.0,-5.3185,-5.3185,-5.3033,-5.2627,-5.2208,-5.1583,-5.0655,-5.0359,-4.9989,-4.9503,-4.99,-5.0177,-5.0313,-5.0565,-5.0712,-5.0712,-5.0712,-5.0712,-5.0712,-5.0712,-5.0712,-5.0712,-5.0712,-5.0712,-5.0712,-5.0712,-5.0712,-5.0712,-5.0797,-5.0952,-5.1122,-5.1283,-5.1366,-5.1348,-5.0957,-4.9941,-4.8574,-4.6836,-4.6308,-4.6308,-4.6308,-4.6308,-4.6094,-4.5234,-4.457,-4.3848,-4.2676,-4.1992,-4.1523,-4.1269,-4.1191,-4.1191,-4.1191,-4.1191,-4.1191,-4.1191,-4.0488,-3.9512,-3.8359,-3.7859,-3.7676,-3.7844,-3.7041,-3.6441,-3.641,-3.6363,-3.6346,-3.6346,-3.6346,-3.6346,-3.6346,-3.6846,-3.7276,-3.7565,-3.8017,-3.8476,-3.8902,-3.8681,-3.865,-3.8829,-3.8732,-3.8707,-3.8707,-3.8707,-3.8707,-4.2625,-4.3907,-4.5232,-4.5433,-4.5783,-4.6119,-4.6359,-4.6594,-4.6887,-4.732,-4.7572,-4.8002,-4.8945,-5.005,-5.0967,-5.1481,-5.2491,-5.3185,-5.3185,-5.3185,-5.3185,-5.3185,-5.3185,-5.3185,0.0,0.0,0.0,-5.3185,-5.2931,-5.2546,-5.2013,-5.1444,-5.0675,-4.9629,-4.9317,-4.9067,-4.8897,-4.9295,-4.9773,-5.0325,-5.0584,-5.0712,-5.0712,-5.0712,-5.0712,-5.0712,-5.0712,-5.0712,-5.0712,-5.0712,-5.0712,-5.0712,-5.0712,-5.0712,-5.0702,-5.0748,-5.0903,-5.1113,-5.1257,-5.134,-5.1406,-5.1406,-5.0391,-4.8906,-4.7363,-4.6621,-4.6308,-4.6308,-4.6308,-4.6035,-4.4844,-4.4121,-4.3418,-4.2246,-4.1582,-4.1191,-4.1191,-4.1191,-4.1191,-4.1191,-4.1191,-4.1094,-4.0781,-3.9746,-3.8476,-3.7051,-3.6792,-3.6729,-3.6626,-3.6086,-3.5686,-3.5644,-3.5577,-3.554,-3.554,-3.5521,-3.55,-3.55,-3.5981,-3.6404,-3.6692,-3.7238,-3.7734,-3.8184,-3.8261,-3.8383,-3.8568,-3.8645,-3.8707,-3.8707,-3.8707,-3.8707,-4.3217,-4.4005,-4.4786,-4.5372,-4.5511,-4.5648,-4.6216,-4.6842,-4.732,-4.7342,-4.7818,-4.8267,-4.8287,-4.9646,-5.0747,-5.0802,-5.2123,-5.3148,-5.3185,-5.3185,-5.3185,-5.3185,-5.3185,-5.3185,-5.3185,0.0,0.0,-5.313,0.0,-5.1977,-5.194,-5.0455,-4.9574,-4.9537,-4.8728,-4.8477,-4.8863,-4.9295,-4.9911,-5.0712,-5.0712,-5.0712,-5.0712,-5.0712,-5.0712,-5.0712,-5.0712,-5.0712,-5.0712,-5.0712,-5.0712,-5.0712,-5.0712,-5.0712,-5.0721,-5.0844,-5.0972,-5.1084,-5.1108,-5.1227,-5.1406,-5.1406,-5.0664,-4.9551,-4.8281,-4.7168,-4.6308,-4.6308,-4.6308,-4.5898,-4.4141,-4.3691,-4.3281,-4.1601,-4.1191,-4.1191,-4.1191,-4.1191,-4.1191,-4.1191,-4.1191,-4.0918,-3.998,-3.8457,-3.7051,-3.6133,-3.5996,-3.5975,-3.5911,-3.5903,-3.5845,-3.572,-3.5633,-3.5611,-3.5611,-3.5547,-3.55,-3.55,-3.55,-3.5846,-3.6615,-3.6635,-3.7038,-3.7896,-3.8088,-3.8218,-3.8278,-3.854,-3.8667,-3.8707,-3.8707,-3.8707,-4.3217,-4.4336,-4.5294,-4.5459,-4.5511,-4.5545,-4.5681,-4.5858,-4.6112,-4.6571,-4.7154,-4.7777,-4.821,-4.9169,-5.0086,-5.071,-5.1646,-5.2509,-5.3133,-5.3185,-5.3185,-5.3185,-5.3185,-5.3185,-5.3185,-5.3185,0.0,0.0,-5.2105,-5.1738,-5.1132,-5.0161,-4.9317,-4.8655,-4.8416,-4.8345,-4.8458,-4.9139,-4.9911,-5.0712,-5.0712,-5.0712,-5.0712,-5.0712,-5.0712,-5.0712,-5.0712,-5.0712,-5.0712,-5.0712,-5.0712,-5.0712,-5.0712,-5.0712,-5.0702,-5.074,-5.0827,-5.0979,-5.1078,-5.1227,-5.1406,-5.1406,-5.1191,-5.0449,-4.7598,-4.6523,-4.6308,-4.6308,-4.6308,-4.5898,-4.4141,-4.3691,-4.3281,-4.1601,-4.1191,-4.1191,-4.1191,-4.1191,-4.1191,-4.1191,-4.1191,-4.0723,-3.9199,-3.8555,-3.7754,-3.623,-3.5996,-3.5996,-3.5975,-3.5921,-3.5898,-3.5845,-3.5698,-3.5611,-3.5611,-3.5547,-3.55,-3.55,-3.55,-3.5596,-3.5808,-3.5808,-3.6101,-3.6719,-3.6776,-3.7211,-3.7997,-3.8069,-3.8311,-3.8707,-3.8707,-3.8707,-4.444,-4.5087,-4.5511,-4.5511,-4.5511,-4.5433,-4.5169,-4.532,-4.5673,-4.6288,-4.6932,-4.7491,-4.7838,-4.8829,-4.977,-5.0274,-5.1282,-5.227,-5.3096,-5.3185,-5.3185,-5.3185,-5.3185,-5.3185,-5.3185,-5.3185,-5.2876,0.0,-5.1665,-5.1114,-5.0306,-4.9481,-4.8802,-4.8324,-4.8306,-4.8364,-4.855,-4.9206,-4.9813,-5.0432,-5.0614,-5.0712,-5.0712,-5.0712,-5.0712,-5.0712,-5.0712,-5.0712,-5.0712,-5.0712,-5.0712,-5.0712,-5.0712,-5.0712,-5.0712,-5.0712,-5.0782,-5.0903,-5.0985,-5.1133,-5.1321,-5.1386,-5.0858,-4.9818,-4.7695,-4.6658,-4.6224,-4.6289,-4.6016,-4.543,-4.4043,-4.3418,-4.2793,-4.1504,-4.1191,-4.1191,-4.1191,-4.1191,-4.1191,-4.1191,-4.0898,-4.0195,-3.8828,-3.8281,-3.7578,-3.6191,-3.5996,-3.5996,-3.5996,-3.5973,-3.5946,-3.5946,-3.5821,-3.5706,-3.5661,-3.5568,-3.5528,-3.5507,-3.55,-3.55,-3.55,-3.55,-3.5636,-3.5935,-3.6179,-3.6717,-3.7548,-3.7783,-3.8192,-3.8707,-3.8707,-3.8707,-4.6052,-4.6014,-4.5622,-4.5622,-4.5622,-4.5485,-4.4944,-4.532,-4.5908,-4.643,-4.7044,-4.753,-4.753,-4.8498,-4.9407,-4.9717,-5.0851,-5.2004,-5.291,-5.3133,-5.3185,-5.3185,-5.3185,-5.3185,-5.3185,-5.3093,-5.2711,-5.1885,-5.1096,-5.0343,-4.9647,-4.8765,-4.8306,-4.8306,-4.8306,-4.8495,-4.8897,-4.9295,-4.9706,-5.0092,-5.0504,-5.0712,-5.0712,-5.0712,-5.0712,-5.0712,-5.0712,-5.0712,-5.0712,-5.0712,-5.0712,-5.0712,-5.0712,-5.0712,-5.0712,-5.0712,-5.0764,-5.0871,-5.0901,-5.095,-5.1032,-5.1302,-5.0125,-4.8463,-4.7867,-4.6941,-4.6119,-4.6246,-4.5664,-4.4805,-4.3926,-4.3047,-4.2207,-4.1387,-4.1191,-4.1191,-4.1191,-4.1191,-4.1191,-4.1191,-4.0586,-3.9805,-3.8926,-3.8047,-3.7187,-3.6309,-3.6074,-3.5996,-3.5996,-3.5996,-3.5996,-3.5996,-3.5945,-3.5845,-3.5749,-3.5653,-3.5577,-3.5528,-3.5494,-3.55,-3.55,-3.55,-3.55,-3.55,-3.5965,-3.6464,-3.7004,-3.7542,-3.8076,-3.8603,-3.8667,-3.8707,-4.6171,-4.6336,-4.624,-4.624,-4.624,-4.6216,-4.6094,-4.6612,-4.7106,-4.7194,-4.7715,-4.8152,-4.8152,-4.7945,-4.8206,-4.9429,-4.995,-5.0646,-5.2006,-5.2784,-5.3185,0.0,-5.3185,-5.3185,-5.3185,-5.2601,0.0,0.0,-5.0251,-4.9757,-4.961,-4.8765,-4.8306,-4.8306,-4.8306,-4.8495,-4.8897,-4.9295,-4.9706,-5.0092,-5.0504,-5.0712,-5.0712,-5.0712,-5.0712,-5.0712,-5.0712,0.0,-5.0712,-5.0712,-5.0712,-5.0712,-5.0712,-5.0712,-5.0712,-5.0712,-5.0721,-5.0748,-5.0848,-5.0447,-5.005,-5.1063,-4.9846,-4.7713,-4.6413,-4.6058,-4.6091,-4.612,-4.5598,-4.4805,-4.3926,-4.3047,-4.2207,-4.1387,-4.1191,-4.1191,-4.1191,-4.1191,-4.1191,-4.1191,-4.1074,-4.0703,-3.9824,-3.8945,-3.8086,-3.7207,-3.6465,-3.5996,-3.5996,-3.5996,-3.5996,-3.5996,-3.5945,-3.5898,-3.5871,-3.5698,-3.56,-3.5574,-3.5522,-3.55,-3.55,-3.55,-3.55,-3.55,-3.56,-3.5894,-3.6435,-3.6988,-3.7504,-3.8052,-3.8494,-3.8707,-4.7216,-4.7154,-4.6932,-4.6932,-4.6932,-4.6842,-4.6478,-4.6641,-4.6977,-4.7342,-4.7635,-4.7818,-4.7818,-4.7856,-4.8132,-4.8949,-4.9789,-5.0714,-5.1846,-5.2692,-5.3185,-5.3185,-5.3185,-5.3041,-5.2619,-5.2215,-5.1481,-5.027,-4.9831,-4.9408,-4.8948,-4.8526,-4.8306,-4.8306,-4.8306,-4.8383,-4.8586,-4.8996,-4.9386,-4.9787,-5.0214,-5.0493,-5.0712,-5.0712,-5.0712,-5.0712,-5.0712,-5.0712,-5.0712,-5.0712,-5.0712,-5.0654,-5.0212,-5.001,-4.9971,-4.951,-4.9356,-4.9355,-4.9414,-4.922,-4.8968,-4.9181,-4.8448,-4.7216,-4.5978,-4.5797,-4.6001,-4.608,-4.5242,-4.4238,-4.3808,-4.2734,-4.168,-4.1289,-4.1191,-4.1191,-4.1191,-4.1191,-4.1191,-4.1191,-4.1191,-4.0918,-4.0059,-3.9551,-3.8828,-3.75,-3.6934,-3.6504,-3.6055,-3.5996,-3.5996,-3.5996,-3.5973,-3.5944,-3.5903,-3.5811,-3.5702,-3.5616,-3.556,-3.554,-3.5507,-3.55,-3.55,-3.55,-3.55,-3.5764,-3.629,-3.6558,-3.7111,-3.791,-3.8155,-3.8427,-4.8172,-4.7957,-4.7593,-4.7593,-4.7593,-4.7449,-4.6914,-4.6801,-4.6977,-4.747,-4.7593,-4.7593,-4.7593,-4.7877,-4.8196,-4.8487,-4.9555,-5.0607,-5.1389,-5.2325,-5.2894,-5.2711,-5.2858,0.0,-5.1811,-5.1573,0.0,-4.9702,-4.9445,-4.9022,-4.8343,-4.8306,-4.8306,-4.8306,-4.8306,-4.8306,-4.8306,-4.871,-4.9092,-4.9504,-4.9911,-5.0313,-5.0712,-5.0712,-5.0712,-5.0693,-5.05,-5.0423,-5.0423,-5.0231,-5.0144,-5.0067,-4.9394,-4.9125,-4.9048,-4.8355,-4.8105,-4.8105,-4.8105,-4.8094,-4.8005,-4.7475,-4.7208,-4.6907,-4.591,-4.5726,-4.5905,-4.6027,-4.4917,-4.367,-4.3691,-4.2461,-4.1191,-4.1191,-4.1191,-4.1191,-4.1191,-4.1191,-4.1191,-4.1191,-4.1191,-4.0976,-4.0293,-4.0019,-3.9434,-3.8066,-3.7539,-3.7051,-3.6367,-3.6113,-3.5996,-3.5996,-3.5996,-3.5975,-3.5938,-3.5908,-3.5819,-3.5626,-3.5606,-3.556,-3.5507,-3.55,-3.55,-3.55,-3.55,-3.571,-3.612,-3.624,-3.6821,-3.781,-3.7877,-3.822,-4.8287,-4.8267,-4.821,-4.821,-4.821,-4.8191,-4.8152,-4.8132,-4.8134,-4.821,-4.821,-4.821,-4.821,-4.7818,-4.7671,-4.8244,-4.8598,-4.9038,-4.9715,-5.1153,-5.183,-5.1114,0.0,0.0,-5.0986,-5.0233,-4.9757,-4.961,-4.8857,-4.8379,-4.8306,-4.8306,-4.8306,-4.8306,-4.8306,-4.8306,-4.8306,-4.871,-4.9092,-4.9504,-4.9911,-5.0313,-5.0712,-5.0712,-5.0712,-5.0654,-4.9856,-4.951,0.0,-4.8663,-4.8336,-4.8336,-4.8259,-4.8221,-4.8221,-4.8125,-4.8105,-4.8105,-4.8105,-4.7797,-4.7372,-4.7314,-4.7214,-4.6907,-4.5899,-4.5706,-4.582,-4.59,-4.4793,-4.3626,-4.3671,-4.2461,-4.1191,-4.1191,-4.1191,-4.1191,-4.1191,-4.1191,-4.1191,-4.1191,-4.1191,-4.1172,-4.1094,-4.043,-3.9844,-3.9687,-3.8301,-3.7266,-3.7187,-3.6484,-3.5996,-3.5996,-3.5996,-3.5996,-3.5996,-3.5941,-3.5838,-3.57,-3.5635,-3.556,-3.5507,-3.55,-3.55,-3.55,-3.55,-3.5532,-3.5568,-3.6058,-3.6728,-3.7538,-3.779,-3.8314,-4.8306,-4.8306,-4.8306,-4.8306,-4.8306,-4.8306,-4.8306,-4.8306,-4.8306,-4.8306,-4.8306,-4.8306,-4.8306,-4.8094,-4.8035,-4.8267,-4.8808,0.0,-4.9553,-5.0563,-5.1151,-5.0839,-5.1077,-5.0949,0.0,0.0,-4.939,-4.8857,-4.8508,-4.8306,-4.8306,-4.8306,-4.8306,-4.8306,-4.8306,-4.8306,-4.8306,-4.8458,-4.8864,-4.9504,-4.9645,-5.0068,-5.0712,-5.0712,-5.0423,-4.9894,-4.9548,-4.9106,0.0,-4.824,-4.8105,-4.8048,-4.7567,-4.7394,-4.7317,-4.6797,-4.6605,-4.6605,-4.6605,-4.646,-4.6287,-4.6287,-4.624,-4.6121,-4.5727,-4.5694,-4.5718,-4.5298,-4.4426,-4.3482,-4.3046,-4.2051,-4.1191,-4.1191,-4.1191,-4.1191,-4.1191,-4.1191,-4.1191,-4.1191,-4.1191,-4.1191,-4.1191,-4.0918,-4.0508,-3.998,-3.9316,-3.8496,-3.7422,-3.6992,-3.6582,-3.6055,-3.5996,-3.5996,-3.5996,-3.5974,-3.5921,-3.5836,-3.5719,-3.563,-3.5568,-3.5522,-3.55,-3.55,-3.55,-3.55,-3.55,-3.5702,-3.6397,-3.7499,-3.7434,-3.8022,-4.8306,-4.8306,-4.8306,-4.8306,-4.8306,-4.8306,-4.8306,-4.8306,-4.8306,-4.8306,-4.8306,-4.8306,-4.8306,-4.8306,-4.8306,0.0,0.0,-4.9225,-4.9225,-4.9921,-5.0343,-5.0086,0.0,-5.0123,-4.9317,-4.9225,-4.8948,-4.8361,-4.8306,-4.8306,-4.8306,-4.8306,-4.8306,-4.8306,-4.8306,-4.8306,-4.8306,-4.8306,-4.8692,-4.9489,-4.9489,-4.9924,-5.0693,-5.0442,-4.9971,-4.9375,-4.8875,-4.8317,0.0,-4.7471,-4.7355,-4.7298,-4.674,-4.6528,-4.6432,-4.5825,-4.5594,-4.5594,-4.5594,-4.5594,-4.5594,-4.5594,-4.5594,-4.5556,-4.5287,-4.5279,-4.5253,-4.4771,-4.3961,-4.3031,-4.22,-4.1581,-4.1191,-4.1191,-4.1191,-4.1191,-4.1191,-4.1191,-4.1191,-4.1191,-4.1191,-4.1191,-4.1191,-4.1191,-4.0996,-4.0371,-4.0078,-3.9453,-3.8223,-3.7832,-3.7344,-3.6484,-3.6387,-3.6289,-3.6016,-3.5996,-3.5973,-3.5905,-3.5769,-3.5659,-3.5596,-3.5534,-3.55,-3.55,-3.55,-3.55,-3.55,-3.55,-3.6235,-3.7634,-3.7346,-3.7901,-4.8306,-4.8306,-4.8306,-4.8306,-4.8306,-4.8306,-4.8306,-4.8306,-4.8306,-4.8306,-4.8306,-4.8306,-4.8306,-4.8306,-4.8306,-4.8306,-4.8324,0.0,-4.8324,-4.9058,-4.9279,0.0,-4.9077,-4.928,-4.8398,-4.8324,-4.8324,-4.8306,-4.8306,0.0,-4.8306,-4.8306,-4.8306,-4.8306,-4.8306,-4.8306,-4.8306,-4.8306,-4.8692,-4.9489,-4.9489,-4.9924,-5.0673,-4.9798,-4.9413,-4.9317,-4.7644,-4.6923,0.0,-4.597,-4.5633,-4.5633,-4.5614,-4.5614,-4.5614,-4.5594,-4.5594,-4.5594,-4.5594,-4.5594,-4.5594,-4.5594,-4.5594,-4.5441,-4.4586,-4.4297,-4.4328,-4.4479,-4.3443,-4.211,-4.123,-4.1103,-4.1191,-4.1191,-4.1191,-4.1191,-4.1191,-4.1191,-4.1191,-4.1191,-4.1191,-4.1191,-4.1191,-4.1191,-4.1191,-4.1191,-4.0449,-3.9883,-3.9883,-3.9121,-3.8242,-3.7383,-3.7285,-3.6934,-3.6074,-3.5996,-3.5973,-3.5905,-3.5769,-3.5659,-3.5596,-3.5534,-3.55,-3.55,-3.55,-3.55,-3.55,-3.55,-3.6365,-3.8,-3.7662,-3.8075,-4.8306,-4.8306,-4.8306,-4.8306,-4.8306,-4.8306,-4.8306,-4.8306,-4.8306,-4.8306,-4.8306,-4.8306,-4.8306,-4.8306,-4.8306,-4.8306,-4.8306,0.0,0.0,0.0,0.0,-4.8343,-4.8545,-4.86,0.0,0.0,-4.8306,-4.8306,-4.8306,-4.8306,-4.8306,-4.8306,-4.8306,-4.8306,-4.8306,-4.8306,-4.8306,-4.8306,-4.8568,-4.9092,-4.9092,-4.9371,-4.9847,-4.9005,-4.8462,-4.8042,-4.6955,-4.632,-4.599,-4.571,-4.5594,-4.5594,-4.5594,-4.5594,-4.5594,-4.5594,-4.5594,-4.5594,-4.5594,-4.5603,-4.5477,-4.4682,-4.4201,-4.3835,-4.3566,-4.3855,-4.4097,-4.3073,-4.2135,-4.1347,-4.1074,-4.1103,-4.1191,-4.1191,-4.1191,-4.1191,-4.1191,-4.1191,-4.1191,-4.1191,-4.1191,-4.1191,-4.1191,-4.1191,-4.1191,-4.1191,-4.0976,-4.0566,-3.998,-3.9668,-3.9141,-3.8281,-3.8184,-3.7598,-3.6113,-3.5996,-3.5996,-3.5973,-3.5887,-3.5789,-3.5663,-3.5596,-3.5546,-3.55,-3.55,-3.55,-3.55,-3.6058,-3.7099,-3.8551,-3.8819,-3.899,-4.8233,-4.8306,-4.8306,-4.8306,-4.8306,-4.8306,-4.8306,-4.8306,-4.8306,-4.8306,-4.8306,-4.8306,-4.8306,-4.8306,-4.8306,-4.8306,-4.8306,-4.8306,0.0,0.0,0.0,-4.8306,-4.8306,0.0,0.0,-4.8306,-4.8306,-4.8306,-4.8306,-4.8306,-4.8306,-4.8306,-4.8306,-4.8306,-4.8306,-4.8306,-4.8306,-4.8306,-4.8495,-4.8897,-4.8897,-4.8939,-4.9027,-4.8178,-4.7535,-4.7011,-4.6202,-4.5742,0.0,-4.5594,-4.5594,-4.5594,-4.5594,-4.5594,-4.5594,-4.5594,-4.5402,-4.5171,-4.5488,-4.5323,-4.4765,-4.3635,-4.2962,-4.2604,-4.2604,-4.297,-4.3091,-4.1793,-4.1174,-4.0883,-4.0914,-4.1025,-4.1148,-4.1191,-4.1191,-4.1191,-4.1191,-4.1191,-4.1191,-4.1191,-4.1191,-4.1191,-4.1191,-4.1191,-4.1191,-4.1191,-4.1191,-4.0996,-4.0469,-4.0391,-4.0059,-3.918,-3.9082,-3.8516,-3.7109,-3.6973,-3.6836,-3.6504,-3.6432,-3.6172,-3.573,-3.5639,-3.5579,-3.5507,-3.55,-3.5654,-3.5962,-3.7123,-3.8132,-3.8998,-3.9533,-3.9611,0.0,-4.8269,-4.8306,-4.8306,-4.8306,-4.8306,-4.8306,-4.8267,0.0,-4.8248,-4.8191,-4.8153,-4.8153,-4.8153,-4.8153,-4.8153,-4.8153,-4.8191,0.0,-4.8267,0.0,0.0,-4.8267,0.0,-4.823,-4.8267,-4.8306,-4.8306,-4.8306,-4.8306,-4.8306,-4.8306,-4.8306,-4.8306,-4.8306,-4.8306,-4.8306,-4.8306,-4.8477,-4.8846,-4.8846,-4.8629,-4.8183,-4.7321,-4.6675,0.0,-4.5406,-4.5263,-4.5594,-4.5594,-4.5594,-4.5594,-4.5594,-4.5594,-4.5594,-4.5537,-4.4998,-4.4421,-4.515,-4.4696,-4.3583,-4.2453,-4.1915,-4.1712,-4.1712,-4.1712,-4.1546,-4.0727,-4.0589,-4.0713,-4.0788,-4.0905,-4.1028,-4.1171,-4.1191,-4.1191,-4.1191,-4.1191,-4.1191,-4.1191,-4.1191,-4.1191,-4.1191,-4.1191,-4.1191,-4.1191,-4.1191,-4.1191,-4.1191,-4.1191,-4.0898,-4.0078,-3.998,-3.9668,-3.8848,-3.8672,-3.8242,-3.7441,-3.7332,-3.6883,-3.5934,-3.5827,-3.577,-3.57,-3.568,-3.6077,-3.6885,-3.8507,-3.9323,-3.9392,-3.9869,-3.9932,-4.7149,0.0,-4.8306,-4.8306,-4.8306,-4.8306,0.0,-4.7937,-4.7614,0.0,-4.7198,-4.6847,-4.6847,-4.6847,-4.6847,-4.6847,-4.6847,-4.7021,-4.7551,-4.8015,-4.8132,-4.7674,-4.8035,-4.8114,-4.7674,-4.8035,-4.8306,-4.8306,-4.8306,-4.8306,-4.8306,-4.8306,-4.8306,-4.8306,-4.8306,-4.8306,-4.8306,-4.8306,-4.8345,-4.8439,-4.8439,-4.8053,-4.7348,-4.6534,-4.6072,-4.5873,-4.5073,-4.5044,-4.5594,-4.5594,-4.5594,-4.5594,-4.5594,-4.5594,-4.5518,-4.4855,-4.447,-4.4239,-4.3825,-4.3209,-4.2401,-4.1277,-4.0854,-4.0804,-4.0804,-4.0804,-4.0766,-4.0554,-4.0589,-4.0713,-4.0788,-4.0905,-4.1028,-4.1171,-4.1191,-4.1191,-4.1191,-4.1191,-4.1191,-4.1191,-4.1191,-4.1191,-4.1191,-4.1191,-4.1191,-4.1191,-4.1191,-4.1191,-4.1191,-4.1191,-4.1113,-4.0918,-4.0898,-4.0801,-4.0605,-3.9375,-3.8516,-3.8301,-3.828,-3.8116,-3.7784,-3.7705,-3.7637,-3.7572,-3.7468,-3.7834,-3.8681,-3.9111,-3.9631,-4.0219,-4.0146,-4.0061,-4.6342,-4.7425,-4.8306,-4.8306,-4.8306,-4.823,-4.7937,-4.7635,-4.7302,0.0,-4.6641,-4.6407,-4.6407,-4.6407,-4.6407,-4.6407,-4.6407,0.0,0.0,-4.7219,-4.7409,-4.7406,-4.7695,-4.7877,0.0,-4.8113,-4.8306,-4.8306,-4.8306,-4.8306,-4.8306,-4.8306,-4.8306,-4.8306,-4.8306,-4.8306,-4.8306,-4.8306,-4.8306,-4.8306,-4.792,-4.7314,-4.6526,-4.5718,-4.5315,-4.5227,-4.4787,-4.4977,-4.5594,-4.5594,-4.5594,-4.5594,-4.5594,-4.5364,-4.496,-4.447,-4.3816,-4.3143,-4.3113,-4.2362,-4.1324,-4.0708,-4.0496,-4.0496,-4.0496,-4.0496,-4.0496,-4.0496,-4.0552,-4.063,-4.0722,-4.0824,-4.093,-4.1078,-4.115,-4.1191,-4.1191,-4.1191,-4.1191,-4.1191,-4.1191,-4.1191,-4.1191,-4.1191,-4.1191,-4.1191,-4.1191,-4.1191,-4.1191,-4.1191,-4.1191,-4.1191,-4.1191,-4.1191,-4.1191,-4.0332,-3.9629,-3.9219,-3.9199,-3.8962,-3.8426,-3.8338,-3.8233,-3.8112,-3.843,-3.8834,-3.9304,-3.9669,-4.0073,-4.0496,-4.0356,-4.0213,-4.5535,-4.6745,-4.7842,-4.7952,-4.7983,-4.7879,-4.7345,-4.7172,0.0,0.0,0.0,-4.6136,-4.6136,-4.6136,-4.6136,-4.6136,-4.6192,-4.6264,-4.6264,-4.6336,-4.6618,-4.7172,-4.7342,0.0,-4.8094,-4.8248,-4.8306,-4.8306,-4.8306,-4.8306,-4.8306,-4.8306,-4.8306,-4.8306,-4.8196,-4.8122,-4.8122,-4.8251,-4.8251,-4.8122,-4.7424,-4.6599,-4.5681,-4.5021,-4.4663,-4.4593,0.0,0.0,-4.5594,-4.5594,-4.5594,-4.5594,-4.5594,-4.5075,-4.4297,-4.4162,-4.3162,-4.1931,-4.2513,-4.1736,-4.0496,-4.0496,-4.0496,-4.0496,-4.0496,-4.0496,-4.0496,-4.0496,-4.0496,-4.0523,-4.0674,-4.0747,-4.0824,-4.0962,-4.1103,-4.1191,-4.1191,-4.1191,-4.1191,-4.1191,-4.1191,-4.1191,-4.1191,-4.1191,-4.1191,-4.1191,-4.1191,-4.1191,-4.1191,-4.1191,-4.1191,-4.1191,-4.1191,-4.1191,-4.1191,-4.1191,-4.0879,-4.0156,-4.0098,-3.9704,-3.8835,-3.8727,-3.8598,-3.8423,-3.9126,-3.9477,-3.9477,-4.0169,-4.0496,-4.0496,-4.0496,-4.0372,-4.4856,-4.522,-4.5725,-4.6372,-4.6603,-4.6664,-4.6571,-4.6161,-4.5757,0.0,0.0,0.0,0.0,-4.4896,-4.4896,-4.4896,-4.5294,-4.5648,0.0,0.0,-4.6454,-4.6548,0.0,-4.7446,-4.753,-4.8015,-4.8306,-4.8306,-4.8306,-4.8306,-4.8306,-4.8306,-4.8306,-4.8306,-4.7626,-4.7278,-4.7278,-4.7957,-4.7957,-4.7278,-4.7168,-4.6324,-4.4892,-4.4746,-4.4663,-4.4593,0.0,-4.4977,-4.5594,-4.5594,-4.5594,-4.5594,-4.5594,-4.5075,-4.422,-4.3547,-4.2797,-4.2016,-4.1189,-4.0727,-4.0496,-4.0496,-4.0496,-4.0496,-4.0496,-4.0496,-4.0496,-4.0496,-4.0496,-4.0523,-4.0674,-4.0747,-4.0824,-4.0962,-4.1103,-4.1191,-4.1191,-4.1191,-4.1191,-4.1191,-4.1191,-4.1191,-4.1191,-4.1191,-4.1191,-4.1191,-4.1191,-4.1191,-4.1191,-4.1191,-4.1191,-4.1191,-4.1191,-4.1191,-4.1191,-4.1191,-4.1133,-4.1016,-4.0996,-4.0875,-4.0608,-4.0481,-4.0388,-4.028,-4.0309,-4.0323,-4.0323,-4.0439,-4.0496,-4.0496,-4.0496,-4.0481,-4.3688,-4.3756,-4.4014,-4.4483,-4.5198,-4.5806,-4.5902,-4.5681,-4.5425,0.0,0.0,0.0,0.0,-4.4615,-4.4615,-4.4615,-4.4841,-4.5025,-4.5025,-4.5258,-4.5545,0.0,0.0,-4.6495,-4.6842,-4.703,-4.7161,-4.7161,-4.7052,-4.7003,-4.7003,-4.7003,-4.7003,-4.7003,-4.6636,-4.6452,-4.6452,-4.6819,-4.6819,-4.6452,-4.5993,-4.5406,-4.469,-4.425,-4.4126,-4.4276,0.0,-4.4884,-4.5342,-4.5541,-4.5594,-4.5556,-4.5075,-4.4393,-4.3489,-4.2181,-4.1516,-4.1208,-4.0689,-4.0496,-4.0496,-4.0496,-4.0496,-4.0496,-4.0496,-4.0496,-4.0496,-4.0496,-4.0496,-4.0519,-4.0581,-4.0696,-4.0809,-4.0874,-4.1052,-4.1191,-4.1191,-4.1191,-4.1191,-4.1191,-4.1191,-4.1191,-4.1191,-4.1191,-4.1191,-4.1191,-4.1191,-4.1191,-4.1191,-4.1191,-4.1191,-4.1191,-4.1191,-4.1191,-4.1191,-4.1191,-4.1191,-4.1191,-4.1191,-4.1149,-4.1017,-4.087,-4.0766,-4.0703,-4.0574,-4.0496,-4.0496,-4.0496,-4.0496,-4.0496,-4.0496,-4.0496,-4.2826,-4.257,-4.25,-4.2847,-4.391,-4.4928,-4.5209,-4.5294,-4.5169,-4.4709,0.0,0.0,-4.4615,-4.4615,-4.4615,-4.4615,-4.4615,-4.4615,-4.4615,-4.4445,-4.4541,-4.5174,-4.5078,-4.5234,-4.5829,-4.5797,-4.5734,-4.5734,-4.5721,-4.5699,-4.5699,-4.5828,-4.5902,-4.5902,-4.5718,-4.5626,-4.5626,-4.5424,-4.5424,-4.5608,-4.5002,-4.4617,-4.4397,-4.3773,-4.3677,-4.4013,-4.4433,-4.48,-4.5137,-4.5457,-4.5594,-4.5518,-4.4643,-4.3682,-4.2604,-4.1073,-4.0496,-4.0496,-4.0496,-4.0496,-4.0496,-4.0496,-4.0496,-4.0496,-4.0496,-4.0496,-4.0496,-4.0496,-4.0496,-4.0496,-4.0496,-4.0645,-4.0797,-4.0797,-4.0998,-4.1191,-4.1191,-4.1191,-4.1191,-4.1191,-4.1191,-4.1191,-4.1191,-4.1191,-4.1191,-4.1191,-4.1191,-4.1191,-4.1191,-4.1191,-4.1191,-4.1191,-4.1191,-4.1191,-4.1191,-4.1191,-4.1191,-4.1191,-4.1191,-4.115,-4.1052,-4.0899,-4.0779,-4.0715,-4.0575,-4.0496,-4.0496,-4.0496,-4.0496,-4.0496,-4.0496,-4.0496,-4.2711,-4.1888,-4.1227,-4.1988,-4.2852,-4.3742,-4.4495,-4.4654,-4.4654,-4.4598,0.0,0.0,0.0,-4.4615,-4.4615,-4.4615,-4.4615,-4.4615,-4.4615,0.0,-4.3724,-4.4386,-4.3863,-4.3696,-4.4311,-4.4347,-4.4334,-4.4334,-4.4854,-4.516,-4.516,-4.5643,-4.5902,-4.5902,-4.5186,-4.4783,-4.4783,-4.4048,-4.4048,-4.4783,-4.4728,-4.4305,-4.3571,-4.3533,-4.3677,-4.4013,-4.4433,-4.48,-4.5137,-4.5457,-4.5594,-4.5518,-4.4643,-4.3316,-4.1777,-4.0843,-4.0496,-4.0496,-4.0496,-4.0496,-4.0496,-4.0496,-4.0496,-4.0496,-4.0496,-4.0496,-4.0496,-4.0496,-4.0496,-4.0496,-4.0496,-4.0645,-4.0797,-4.0797,-4.0998,-4.1191,-4.1191,-4.1191,-4.1191,-4.1191,-4.1191,-4.1191,-4.1191,-4.1191,-4.1191,-4.1191,-4.1191,-4.1191,-4.1191,-4.1191,-4.1191,-4.1191,-4.1191,-4.1191,-4.1191,-4.1191,-4.1191,-4.1191,-4.1191,-4.1191,-4.1191,-4.0947,-4.0793,-4.0785,-4.0604,-4.0496,-4.0496,-4.0496,-4.0496,-4.0496,-4.0496,-4.0496,-4.2223,-4.1534,-4.1,-4.1431,-4.1792,-4.2354,-4.3589,-4.4231,-4.4615,-4.4615,-4.4615,0.0,0.0,-4.4181,-4.3859,-4.3859,-4.347,-4.3176,-4.3176,-4.2912,-4.2816,-4.3056,-4.2843,-4.2757,-4.3001,-4.2936,-4.2894,-4.2894,-4.2983,-4.3202,-4.3577,-4.379,-4.4053,-4.4397,-4.4103,-4.3956,-4.3956,-4.3662,-4.3662,-4.3956,-4.3956,-4.3791,-4.3515,-4.3515,-4.3563,-4.3726,-4.4337,-4.467,-4.4837,-4.539,-4.5287,-4.4662,-4.3278,-4.2027,-4.095,-4.0631,-4.0496,-4.0496,-4.0496,-4.0496,-4.0496,-4.0496,-4.0496,-4.0496,-4.0496,-4.0496,-4.0496,-4.0496,-4.0496,-4.0496,-4.0496,-4.0645,-4.0797,-4.0797,-4.0998,-4.1191,-4.1191,-4.1191,-4.1191,-4.1191,-4.1191,-4.1191,-4.1191,-4.1191,-4.1191,-4.1191,-4.1191,-4.1191,-4.1191,-4.1191,-4.1191,-4.1191,-4.1191,-4.1191,-4.1191,-4.1191,-4.1191,-4.1191,-4.1191,-4.1191,-4.1191,-4.093,-4.0797,-4.0797,-4.061,-4.0496,-4.0496,-4.0496,-4.0496,-4.0496,-4.0496,-4.0496,-4.1916,-4.1241,-4.0673,-4.0824,0.0,0.0,-4.2489,-4.3487,-4.4215,-4.4215,-4.4056,-4.3887,-4.3887,0.0,0.0,0.0,-4.2625,-4.2286,-4.2286,-4.21,-4.1948,-4.1948,-4.1745,-4.1619,-4.1619,-4.151,-4.1474,-4.1474,-4.1509,-4.1789,-4.2382,-4.2596,-4.2939,-4.3479,-4.3515,-4.3515,-4.3515,-4.3515,-4.3515,-4.3515,-4.3515,-4.3515,-4.3515,-4.3515,-4.3515,-4.3548,-4.4266,-4.4593,-4.4644,-4.5313,-4.494,-4.3778,-4.2354,-4.1277,-4.0496,-4.0496,-4.0496,-4.0496,-4.0496,-4.0496,-4.0496,-4.0496,-4.0496,-4.0496,-4.0496,-4.0496,-4.0496,-4.0496,-4.0496,-4.0496,-4.0496,-4.0629,-4.0775,-4.0789,-4.0964,-4.115,-4.1191,-4.1191,-4.1191,-4.1191,-4.1191,-4.1191,-4.1191,-4.1191,-4.1191,-4.1191,-4.1191,-4.1191,-4.1191,-4.1191,-4.1191,-4.1191,-4.1191,-4.1191,-4.1191,-4.1191,-4.1191,-4.1191,-4.1191,-4.1191,-4.1191,-4.093,-4.0797,-4.0797,-4.061,-4.0496,-4.0496,-4.0496,-4.0496,-4.0496,-4.0496,-4.0496,-4.181,-4.0961,-4.0113,-4.0096,-4.0646,-4.1187,-4.1204,-4.2354,-4.3375,-4.3375,-4.2811,-4.2286,-4.2286,-4.2286,0.0,-4.2286,-4.2269,-4.2269,-4.2269,-4.1644,-4.1187,-4.1187,-4.0527,-4.0096,-4.0096,-4.0096,-4.0096,-4.0096,-4.0601,-4.1155,-4.175,-4.2362,-4.2939,-4.348,-4.3497,-4.3515,-4.3515,-4.3515,-4.3515,-4.3515,-4.3515,-4.3515,-4.3515,-4.3515,-4.3515,-4.3531,-4.4285,-4.4612,-4.4644,-4.5313,-4.4605,-4.3008,-4.2135,-4.1258,-4.0496,-4.0496,-4.0496,-4.0496,-4.0496,-4.0496,-4.0496,-4.0496,-4.0496,-4.0496,-4.0496,-4.0496,-4.0496,-4.0496,-4.0496,-4.0496,-4.0496,-4.0596,-4.0718,-4.0773,-4.0908,-4.1048,-4.1171,-4.1191,-4.1191,-4.1191,-4.1191,-4.1191,-4.1191,-4.1191,-4.1191,-4.1191,-4.1191,-4.1191,-4.1191,-4.1191,-4.1191,-4.1191,-4.1191,-4.1191,-4.1191,-4.1191,-4.1191,-4.1191,-4.1191,-4.1191,-4.1191,-4.093,-4.0797,-4.0797,-4.061,-4.0496,-4.0496,-4.0496,-4.0496,-4.0496,-4.0496,-4.0496,-4.1916,-4.1246,-4.0577,-4.0179,-4.0265,-4.0544,-4.1085,-4.1948,0.0,0.0,-4.2439,-4.2286,-4.2286,-4.188,0.0,-4.1525,-4.1085,-4.0756,-4.0756,-4.057,-4.0434,-4.0434,-4.0231,-4.0096,-4.0096,-4.0096,-4.0096,-4.0096,-4.0254,-4.0577,-4.1133,-4.1729,-4.2324,-4.292,-4.3303,-4.3515,-4.3515,-4.3515,-4.3515,-4.3515,-4.3515,-4.3515,-4.3515,-4.3515,-4.3515,-4.3513,-4.3989,-4.4332,-4.4569,-4.4059,-4.3375,-4.2556,-4.1347,-4.0727,-4.0496,-4.0496,-4.0496,-4.0496,-4.0496,-4.0496,-4.0496,-4.0496,-4.0496,-4.0496,-4.0496,-4.0496,-4.0496,-4.0496,-4.0496,-4.0496,-4.0496,-4.0542,-4.0604,-4.0755,-4.0908,-4.1048,-4.1171,-4.1191,-4.1191,-4.1191,-4.1191,-4.1191,-4.1191,-4.1191,-4.1191,-4.1191,-4.1191,-4.1191,-4.1191,-4.1191,-4.1191,-4.1191,-4.1191,-4.1191,-4.1191,-4.1191,-4.1191,-4.1191,-4.1191,-4.1191,-4.1191,-4.093,-4.0797,-4.0797,-4.061,-4.0496,-4.0496,-4.0496,-4.0496,-4.0496,-4.0496,-4.0496,-4.1895,-4.1201,-4.0504,-4.0179,-4.0096,-4.0231,-4.0646,-4.1322,-4.1863,-4.1863,-4.1627,-4.1433,-4.1433,-4.1052,0.0,-4.0747,-4.04,-4.0096,-4.0096,-4.0096,-4.0096,-4.0096,-4.0096,-4.0096,-4.0096,-4.0096,-4.0096,-4.0096,-4.0096,-4.0319,-4.088,-4.1228,-4.1832,-4.2674,-4.3014,-4.3286,-4.3515,-4.3515,-4.3515,-4.3515,-4.3515,-4.3515,-4.3515,-4.3515,-4.3515,-4.3531,-4.4016,-4.4185,-4.4021,-4.3369,-4.2678,-4.1913,-4.0907,-4.0496,-4.0496,-4.0496,-4.0496,-4.0496,-4.0496,-4.0496,-4.0496,-4.0496,-4.0496,-4.0496,-4.0496,-4.0496,-4.0496,-4.0496,-4.0496,-4.0496,-4.0496,-4.0496,-4.0554,-4.0746,-4.0864,-4.0964,-4.1151,-4.1191,-4.1191,-4.1191,-4.1191,-4.1191,-4.1191,-4.1191,-4.1191,-4.1191,-4.1191,-4.1191,-4.1191,-4.1191,-4.1191,-4.1191,-4.1191,-4.1191,-4.1191,-4.1191,-4.1191,-4.1191,-4.1191,-4.1191,-4.1191,-4.093,-4.0797,-4.0797,-4.061,-4.0496,-4.0496,-4.0496,-4.0496,-4.0496,-4.0496,-4.0496,-4.1793,-4.1007,-4.0171,-4.0121,-4.0096,-4.0096,-4.0096,-4.0612,-4.1102,-4.1102,0.0,-4.0096,-4.0096,-4.0096,-4.0079,-4.0011,-4.0011,-3.9977,-3.991,-3.991,-3.991,-3.991,-3.991,-3.991,-3.991,-3.991,-3.991,-3.991,-3.991,-4.0107,-4.0596,-4.0672,-4.1227,-4.2392,-4.2546,-4.2867,-4.3427,-4.348,-4.3515,-4.3515,-4.3515,-4.3515,-4.3515,-4.3515,-4.3515,-4.3531,-4.4162,-4.3962,-4.319,-4.3015,-4.2267,-4.1206,-4.0707,-4.0496,-4.0496,-4.0496,-4.0496,-4.0496,-4.0496,-4.0496,-4.0496,-4.0496,-4.0496,-4.0496,-4.0496,-4.0496,-4.0496,-4.0496,-4.0496,-4.0496,-4.0496,-4.0496,-4.0554,-4.0746,-4.0797,-4.087,-4.1149,-4.1191,-4.1191,-4.1191,-4.1191,-4.1191,-4.1191,-4.1191,-4.1191,-4.1191,-4.1191,-4.1191,-4.1191,-4.1191,-4.1191,-4.1191,-4.1191,-4.1191,-4.1191,-4.1191,-4.1191,-4.1191,-4.1191,-4.1191,-4.1191,-4.093,-4.0797,-4.0797,-4.061,-4.0496,-4.0496,-4.0496,-4.0496,-4.0496,-4.0496,-4.0496,-4.1937,-4.1268,-4.0631,-4.0204,-4.0096,-4.0096,-4.0096,-4.0231,-4.035,-4.035,-4.0214,-4.0096,-4.0096,-4.0096,-3.991,-3.9326,-3.9225,-3.9022,-3.8447,-3.8379,-3.8379,-3.8379,-3.8379,-3.8379,-3.8379,-3.8379,-3.8379,-3.8379,-3.8379,-3.8434,-3.8537,-3.8946,-3.9551,-4.0403,-4.1296,-4.212,-4.2846,-4.3286,-4.3515,-4.3515,-4.3515,-4.3515,-4.3515,-4.3515,-4.3515,-4.3477,-4.3286,-4.2925,-4.2474,-4.1912,-4.1383,-4.0878,-4.0619,-4.0496,-4.0496,-4.0496,-4.0496,-4.0496,-4.0496,-4.0496,-4.0496,-4.0496,-4.0496,-4.0496,-4.0496,-4.0496,-4.0496,-4.0496,-4.0496,-4.0496,-4.0496,-4.0496,-4.0554,-4.0746,-4.0797,-4.087,-4.1149,-4.1191,-4.1191,-4.1191,-4.1191,-4.1191,-4.1191,-4.1191,-4.1191,-4.1191,-4.1191,-4.1191,-4.1191,-4.1191,-4.1191,-4.1191,-4.1191,-4.1191,-4.1191,-4.1191,-4.1191,-4.1191,-4.1191,-4.1191,-4.1191,-4.093,-4.0797,-4.0797,-4.061,-4.0496,-4.0496,-4.0496,-4.0496,-4.0496,-4.0496,-4.0496,-4.1958,-4.1358,-4.078,-4.0229,-4.0096,-4.0096,-4.0096,-4.0096,-4.0096,-4.0096,-4.0096,-3.9994,-3.9656,-3.9571,-3.9326,-3.8582,-3.8464,-3.8345,-3.7956,-3.7905,-3.7905,-3.7905,-3.7905,-3.7905,-3.7905,-3.7905,-3.7905,-3.7905,-3.7905,-3.7905,-3.7905,-3.8167,-3.8608,-3.9245,-4.0183,-4.1145,-4.2117,-4.2795,-4.325,-4.3515,-4.3515,-4.3515,-4.3515,-4.3515,-4.3515,-4.3495,-4.342,-4.2968,-4.2276,-4.1992,-4.1467,-4.0811,-4.0593,-4.0496,-4.0496,-4.0496,-4.0496,-4.0496,-4.0496,-4.0496,-4.0496,-4.0496,-4.0496,-4.0496,-4.0496,-4.0496,-4.0496,-4.0496,-4.0496,-4.0496,-4.0496,-4.0496,-4.0554,-4.0746,-4.0797,-4.087,-4.1149,-4.1191,-4.1191,-4.1191,-4.1191,-4.1191,-4.1191,-4.1191,-4.1191,-4.1191,-4.1191,-4.1191,-4.1191,-4.1191,-4.1191,-4.1191,-4.1191,-4.1191,-4.1191,-4.1191,-4.1191,-4.1191,-4.1191,-4.1191,-4.1191,-4.0998,-4.0867,-4.0801,-4.061,-4.0496,-4.0496,-4.0496,-4.0496,-4.0496,-4.0496,-4.0496,-4.2101,-4.1446,-4.078,-4.0229,-4.0096,-4.0096,-4.0096,-4.0096,-4.0062,-3.9943,-3.991,-3.9723,-3.9106,-3.8886,-3.8565,-3.7838,-3.7719,-3.7669,-3.751,-3.7493,-3.7493,-3.7493,-3.7493,-3.7493,-3.7493,-3.7493,-3.7493,-3.7493,-3.7493,-3.7493,-3.7493,-3.7493,-3.7774,-3.835,-3.9044,-4.0003,-4.1203,-4.2059,-4.2794,-4.3375,-4.3463,-4.3515,-4.3515,-4.3515,-4.3515,-4.3513,-4.364,-4.3167,-4.2277,-4.2159,-4.1632,-4.0868,-4.0605,-4.0503,-4.0496,-4.0496,-4.0496,-4.0496,-4.0496,-4.0496,-4.0496,-4.0496,-4.0496,-4.0496,-4.0496,-4.0496,-4.0496,-4.0496,-4.0496,-4.0496,-4.0496,-4.0496,-4.0547,-4.0738,-4.0785,-4.087,-4.1149,-4.1191,-4.1191,-4.1191,-4.1191,-4.1191,-4.1191,-4.1191,-4.1191,-4.1191,-4.1191,-4.1191,-4.1191,-4.1191,-4.1191,-4.1191,-4.1191,-4.1191,-4.1191,-4.1191,-4.1191,-4.1191,-4.1191,-4.1191,-4.1191,-4.1077,-4.0947,-4.0801,-4.0636,-4.0527,-4.0496,-4.0496,-4.0496,-4.0496,-4.0496,-4.0496,-4.2596,-4.175,-4.078,-4.0229,-4.0096,-4.0096,-4.0096,-4.0096,-3.9926,0.0,-3.914,-3.9106,-3.9005,-3.8481,-3.7804,-3.7083,-3.6948,-3.6688,-3.6005,-3.5904,-3.5904,-3.5904,-3.5904,-3.5904,-3.5904,-3.5904,-3.5904,-3.5904,-3.5904,-3.5904,-3.5904,-3.5904,-3.6254,-3.7035,-3.7602,-3.859,-4.0005,-4.1116,-4.2047,-4.2826,-4.3268,-4.3515,-4.3515,-4.3515,-4.3515,-4.346,-4.2812,-4.2428,-4.2209,-4.1076,-4.0708,-4.0863,-4.0613,-4.0504,-4.0496,-4.0496,-4.0496,-4.0496,-4.0496,-4.0496,-4.0496,-4.0496,-4.0496,-4.0496,-4.0496,-4.0496,-4.0496,-4.0496,-4.0496,-4.0496,-4.0496,-4.0496,-4.053,-4.0686,-4.0762,-4.087,-4.1149,-4.1191,-4.1191,-4.1191,-4.1191,-4.1191,-4.1191,-4.1191,-4.1191,-4.1191,-4.1191,-4.1191,-4.1191,-4.1191,-4.1191,-4.1191,-4.1191,-4.1191,-4.1191,-4.1191,-4.1191,-4.1191,-4.1191,-4.1191,-4.1191,-4.1077,-4.0947,-4.0801,-4.0715,-4.0616,-4.0496,-4.0496,-4.0496,-4.0496,-4.0496,-4.0496,-4.2788,-4.1513,-4.0228,-4.0006,-3.9416,-3.887,-3.887,-3.887,-3.8768,-3.8447,-3.8041,-3.7777,-3.7777,-3.7483,-3.7026,-3.6248,-3.6129,-3.6011,-3.565,-3.56,-3.56,-3.56,-3.56,-3.56,-3.56,-3.56,-3.56,-3.56,-3.56,-3.56,-3.56,-3.56,-3.5752,-3.6129,-3.6797,-3.7605,-3.8556,-4.0223,-4.175,-4.316,-4.3392,-4.3515,-4.3478,-4.302,-4.3057,-4.3478,-4.313,-4.2965,-4.2889,-4.1932,-4.1285,-4.0871,-4.0599,-4.0497,-4.0496,-4.0496,-4.0496,-4.0496,-4.0496,-4.0496,-4.0496,-4.0496,-4.0496,-4.0496,-4.0496,-4.0496,-4.0496,-4.0496,-4.0496,-4.0496,-4.0496,-4.0496,-4.0523,-4.0661,-4.0752,-4.0857,-4.1051,-4.1149,-4.1191,-4.1191,-4.1191,-4.1191,-4.1191,-4.1191,-4.1191,-4.1191,-4.1191,-4.1191,-4.1191,-4.1191,-4.1191,-4.1191,-4.1191,-4.1191,-4.1191,-4.1191,-4.1191,-4.1191,-4.1191,-4.1191,-4.1191,-4.1149,-4.1052,-4.0917,-4.0777,-4.0636,-4.0496,-4.0496,-4.0496,-4.0496,-4.0496,-4.0496,-4.2519,-4.1169,-3.9835,-3.9567,-3.878,-3.8061,-3.7929,0.0,-3.7855,0.0,-3.7161,-3.6745,-3.6518,-3.6485,-3.6299,-3.5701,-3.56,-3.56,-3.56,-3.56,-3.56,-3.56,-3.56,-3.56,-3.56,-3.56,-3.56,-3.56,-3.56,-3.56,-3.56,-3.56,-3.56,-3.56,-3.618,-3.6786,-3.7387,-3.9596,-4.147,-4.2992,-4.3133,-4.3185,-4.3167,-4.2359,-4.2323,-4.2892,-4.2892,-4.2892,-4.2834,-4.2193,-4.1521,-4.0854,-4.0496,-4.0405,-4.0496,-4.0496,-4.0496,-4.0496,-4.0496,-4.0496,-4.0496,-4.0496,-4.0496,-4.0496,-4.0496,-4.0496,-4.0496,-4.0496,-4.0496,-4.0496,-4.0496,-4.0496,-4.0534,-4.063,-4.0727,-4.0854,-4.1002,-4.1128,-4.1191,-4.1191,-4.1191,-4.1191,-4.1191,-4.1191,-4.1191,-4.1191,-4.1191,-4.1191,-4.1191,-4.1191,-4.1191,-4.1191,-4.1191,-4.1191,-4.1191,-4.1191,-4.1191,-4.1191,-4.1191,-4.1191,-4.1191,-4.1191,-4.1148,-4.0996,-4.0812,-4.0666,-4.0552,-4.0519,-4.0496,-4.0496,-4.0496,-4.0496,-4.1614,-4.0833,-3.9939,-3.8924,-3.8602,-3.8463,0.0,0.0,-3.7702,-3.7015,-3.6829,-3.6575,-3.5785,-3.565,-3.565,-3.56,-3.56,-3.56,-3.56,-3.56,-3.56,-3.56,-3.56,-3.56,-3.56,-3.56,-3.56,-3.56,-3.56,-3.56,-3.56,-3.56,-3.56,-3.56,-3.5633,-3.6051,-3.6824,-3.9402,-4.1006,-4.1614,-4.2117,-4.2359,-4.2341,-4.1534,-4.1187,-4.1224,-4.1224,-4.1224,-4.1185,-4.0643,-4.0616,-4.0846,-4.0188,-4.0147,-4.0496,-4.0496,-4.0496,-4.0496,-4.0496,-4.0496,-4.0496,-4.0496,-4.0496,-4.0496,-4.0496,-4.0496,-4.0496,-4.0496,-4.0496,-4.0496,-4.0496,-4.0496,-4.0496,-4.0512,-4.0657,-4.087,-4.1129,-4.1191,-4.1191,-4.1191,-4.1191,-4.1191,-4.1191,-4.1191,-4.1191,-4.1191,-4.1191,-4.1191,-4.1191,-4.1191,-4.1191,-4.1191,-4.1191,-4.1191,-4.1191,-4.1191,-4.1191,-4.1191,-4.1191,-4.1191,-4.1191,-4.1191,-4.1148,-4.0996,-4.0864,-4.0752,-4.0686,-4.0566,-4.0496,-4.0496,-4.0496,-4.0496,-4.2172,-4.1143,-4.0058,-3.9147,-3.8043,-3.7145,-3.6964,-3.6667,-3.6343,-3.6096,-3.6028,-3.5943,-3.565,-3.56,-3.56,-3.56,-3.56,-3.56,-3.56,-3.56,-3.56,-3.56,-3.56,-3.56,-3.56,-3.56,-3.56,-3.56,-3.56,-3.56,-3.56,-3.56,-3.56,-3.56,-3.56,-3.6162,-3.73,-3.8233,-3.9385,-4.0745,-4.0926,-4.119,-4.1515,-4.0708,-4.0322,-4.0304,-3.979,-4.0141,-4.1093,-4.0898,-4.082,-4.0789,-4.0434,-4.0375,-4.0496,-4.0496,-4.0496,-4.0496,-4.0496,-4.0496,-4.0496,-4.0496,-4.0496,-4.0496,-4.0496,-4.0496,-4.0496,-4.0496,-4.0496,-4.0496,-4.0496,-4.0496,-4.0518,-4.0663,-4.0761,-4.087,-4.1149,-4.1191,-4.1191,-4.1191,-4.1191,-4.1191,-4.1191,-4.1191,-4.1191,-4.1191,-4.1191,-4.1191,-4.1191,-4.1191,-4.1191,-4.1191,-4.1191,-4.1191,-4.1191,-4.1191,-4.1191,-4.1191,-4.1191,-4.1191,-4.1191,-4.1191,-4.1171,-4.1128,-4.0994,-4.0851,-4.0697,-4.0566,-4.0496,-4.0496,-4.0496,-4.0496,-4.2121,-4.1058,-3.9928,-3.8938,-3.779,-3.6805,-3.6478,-3.6118,-3.5827,-3.5644,-3.56,-3.56,-3.56,-3.56,-3.56,-3.56,-3.56,-3.56,-3.56,-3.56,-3.56,-3.56,-3.56,-3.56,-3.56,-3.56,-3.56,-3.56,-3.56,0.0,-3.56,-3.56,-3.56,-3.56,-3.56,-3.6026,-3.6926,-3.7382,-3.819,-3.9397,-3.9751,-4.0092,-4.0402,-3.9781,-3.9496,-3.946,-3.8927,-3.9313,-4.0304,-4.0294,-4.03,-4.0311,-4.0302,-4.0375,-4.0496,-4.0496,-4.0496,-4.0496,-4.0496,-4.0496,-4.0496,-4.0496,-4.0496,-4.0496,-4.0496,-4.0496,-4.0496,-4.0496,-4.0496,-4.0496,-4.0496,-4.0496,-4.0559,-4.0727,-4.0773,-4.0864,-4.1081,-4.1171,-4.1191,-4.1191,-4.1191,-4.1191,-4.1191,-4.1191,-4.1191,-4.1191,-4.1191,-4.1191,-4.1191,-4.1191,-4.1191,-4.1191,-4.1191,-4.1191,-4.1191,-4.1191,-4.1191,-4.1191,-4.1191,-4.1191,-4.1191,-4.1191,-4.1191,-4.1191,-4.1077,-4.0933,-4.08,-4.0649,-4.0537,-4.0496,-4.0496,-4.0496,0.0,0.0,0.0,-3.8282,-3.7929,-3.7649,-3.6643,-3.6395,-3.6245,-3.5717,-3.56,-3.56,-3.56,-3.56,-3.56,-3.56,-3.56,-3.56,-3.56,-3.56,-3.56,-3.56,-3.56,-3.56,-3.56,-3.56,-3.56,-3.56,-3.56,-3.56,-3.56,-3.56,-3.56,-3.56,-3.56,-3.56,-3.56,-3.6887,-3.7532,-3.7575,-3.8576,-3.9048,-3.9065,-3.8812,-3.8707,-3.8707,-3.8707,-3.8707,-3.8707,-3.8707,-3.8925,-3.9331,-3.9743,-4.0137,-4.0489,-4.0496,-4.0496,-4.0496,-4.0496,-4.0496,-4.0496,-4.0496,-4.0496,-4.0496,-4.0496,-4.0496,-4.0496,-4.0496,-4.0496,-4.0496,-4.0496,-4.0496,-4.0523,-4.0661,-4.0747,-4.0824,-4.0964,-4.1103,-4.1191,-4.1191,-4.1191,-4.1191,-4.1191,-4.1191,-4.1191,-4.1191,-4.1191,-4.1191,-4.1191,-4.1191,-4.1191,-4.1191,-4.1191,-4.1191,-4.1191,-4.1191,-4.1191,-4.1191,-4.1191,-4.1191,-4.1191,-4.1191,-4.1191,-4.1191,-4.1077,-4.0998,-4.0996,-4.08,-4.0643,-4.0504,-4.0496,-4.0496,-4.2194,0.0,0.0,0.0,0.0,0.0,-3.7116,-3.6684,-3.6245,-3.5717,-3.56,-3.56,-3.56,-3.56,-3.56,-3.56,-3.56,-3.56,-3.56,-3.56,-3.56,-3.56,-3.56,-3.56,-3.56,-3.56,-3.56,0.0,-3.56,-3.56,-3.56,-3.56,-3.56,-3.56,-3.56,-3.56,-3.56,-3.5965,-3.6341,-3.6749,-3.7415,-3.79,-3.8235,-3.8556,-3.8707,-3.8707,-3.8707,-3.8707,-3.8707,-3.8707,-3.8769,-3.8926,-3.9642,-4.0032,-4.0232,-4.0441,-4.0496,-4.0496,-4.0496,-4.0496,-4.0496,-4.0496,-4.0496,-4.0496,-4.0496,-4.0496,-4.0496,-4.0496,-4.0496,-4.0496,-4.0496,-4.0496,-4.0523,-4.0661,-4.0713,-4.0786,-4.0955,-4.1026,-4.1081,-4.1171,-4.1191,-4.1191,-4.1191,-4.1191,-4.1191,-4.1191,-4.1191,-4.1191,-4.1191,-4.1191,-4.1191,-4.1191,-4.1191,-4.1191,-4.1191,-4.1191,-4.1191,-4.1191,-4.1191,-4.1191,-4.1191,-4.1191,-4.1191,-4.1191,-4.1151,-4.1102,-4.0996,-4.0859,-4.0722,-4.0649,-4.0545,-4.0496,-4.2525,-4.1974,-4.1332,-4.0175,0.0,0.0,-3.7431,-3.696,-3.6522,-3.5761,-3.56,-3.56,-3.56,-3.56,-3.56,-3.56,-3.56,-3.56,-3.56,-3.56,-3.56,-3.56,-3.56,-3.56,-3.56,-3.56,-3.56,-3.56,-3.56,-3.56,-3.56,-3.56,-3.56,-3.56,-3.56,-3.56,-3.56,-3.56,-3.5761,-3.6075,-3.6603,-3.7135,-3.7632,-3.8133,-3.8481,-3.8707,-3.8707,-3.8707,-3.8707,-3.8707,-3.8711,-3.8777,-3.95,-3.9903,-4.0129,-4.0397,-4.0496,-4.0496,-4.0496,-4.0496,-4.0496,-4.0496,-4.0496,-4.0496,-4.0496,-4.0496,-4.0496,-4.0496,-4.0496,-4.0496,-4.0496,-4.0496,-4.0527,-4.0596,-4.0649,-4.0745,-4.089,-4.0959,-4.1049,-4.1171,-4.1191,-4.1191,-4.1191,-4.1191,-4.1191,-4.1191,-4.1191,-4.1191,-4.1191,-4.1191,-4.1191,-4.1191,-4.1191,-4.1191,-4.1191,-4.1191,-4.1191,-4.1191,-4.1191,-4.1191,-4.1191,-4.1191,-4.1191,-4.1191,-4.1191,-4.1151,-4.1081,-4.0952,-4.0828,-4.0747,-4.0636,-4.0575,-4.2635,-4.2378,-4.1956,-4.0506,-4.0029,0.0,-3.7736,-3.7262,-3.6902,-3.581,-3.56,-3.56,-3.56,-3.56,-3.56,-3.56,-3.56,-3.56,-3.56,-3.56,-3.56,-3.56,-3.56,-3.56,-3.56,-3.56,-3.56,-3.56,-3.56,-3.56,-3.56,-3.56,-3.56,-3.56,-3.56,-3.56,-3.56,-3.56,-3.56,-3.56,-3.6139,-3.6643,-3.7133,-3.7667,-3.8148,-3.8593,-3.8658,-3.8707,-3.8707,-3.8707,-3.87,-3.876,-3.9363,-3.9786,-4.0072,-4.0389,-4.0496,-4.0496,-4.0496,-4.0496,-4.0496,-4.0496,-4.0496,-4.0496,-4.0496,-4.0496,-4.0496,-4.0496,-4.0496,-4.0496,-4.0496,-4.0496,-4.0496,-4.0496,-4.0582,-4.0696,-4.0775,-4.089,-4.1016,-4.115,-4.1191,-4.1191,-4.1191,-4.1191,-4.1191,-4.1191,-4.1191,-4.1191,-4.1191,-4.1191,-4.1191,-4.1191,-4.1191,-4.1191,-4.1191,-4.1191,-4.1191,-4.1191,-4.1191,-4.1191,-4.1191,-4.1191,-4.1191,-4.1191,-4.1191,-4.1191,-4.1191,-4.1076,-4.0947,-4.0813,-4.0752,-4.0715,-4.3296,-4.2782,-4.2213,-4.1901,-4.0855,0.0,-3.8431,-3.7652,-3.6902,-3.581,-3.56,-3.56,-3.56,-3.56,-3.56,-3.56,-3.56,-3.56,-3.56,-3.56,-3.56,-3.56,-3.56,-3.56,-3.56,-3.56,-3.56,-3.56,-3.56,-3.56,-3.56,-3.56,-3.56,-3.56,-3.56,-3.56,-3.56,-3.56,-3.56,-3.56,-3.6139,-3.6457,-3.66,-3.7488,-3.7891,-3.7938,-3.846,-3.8707,-3.8707,-3.8707,-3.8698,-3.8759,-3.9352,-3.9634,-3.9757,-4.0292,-4.0496,-4.0496,-4.0496,-4.0496,-4.0496,-4.0496,-4.0496,-4.0496,-4.0496,-4.0496,-4.0496,-4.0496,-4.0496,-4.0496,-4.0496,-4.0496,-4.0496,-4.0496,-4.0527,-4.0561,-4.069,-4.0745,-4.0814,-4.0992,-4.1127,-4.1191,-4.1191,-4.1191,-4.1191,-4.1191,-4.1191,-4.1191,-4.1191,-4.1191,-4.1191,-4.1191,-4.1191,-4.1191,-4.1191,-4.1191,-4.1191,-4.1191,-4.1191,-4.1191,-4.1191,-4.1191,-4.1191,-4.1191,-4.1191,-4.1191,-4.1191,-4.1076,-4.099,-4.0957,-4.0836,-4.0791,-4.3515,-4.3221,-4.28,-4.2396,-4.1387,0.0,0.0,-3.7795,-3.6902,-3.581,-3.56,-3.56,-3.56,-3.56,-3.56,-3.56,-3.56,-3.56,-3.56,-3.56,-3.56,-3.56,-3.56,-3.56,-3.56,-3.56,-3.56,-3.56,-3.56,-3.56,-3.56,-3.56,-3.56,-3.56,-3.56,-3.56,-3.56,-3.56,-3.56,-3.56,-3.5876,-3.6139,-3.6416,-3.721,-3.7613,-3.7749,-3.841,-3.8707,-3.8707,-3.8707,-3.8707,-3.8765,-3.9364,-3.9505,-3.945,-4.0211,-4.0425,-4.0321,-4.0457,-4.0496,-4.0496,-4.0496,-4.0496,-4.0496,-4.0496,-4.0496,-4.0496,-4.0496,-4.0496,-4.0496,-4.0496,-4.0496,-4.0496,-4.0496,-4.0496,-4.0549,-4.0667,-4.0697,-4.0766,-4.0952,-4.1054,-4.1126,-4.1191,-4.1191,-4.1191,-4.1191,-4.1191,-4.1191,-4.1191,-4.1191,-4.1191,-4.1191,-4.1191,-4.1191,-4.1191,-4.1191,-4.1191,-4.1191,-4.1191,-4.1191,-4.1191,-4.1191,-4.1191,-4.1191,-4.1191,-4.1191,-4.1191,-4.1128,-4.1103,-4.1102,-4.0959,-4.0903,-4.3515,-4.3515,-4.3332,-4.269,-4.1937,-4.0894,0.0,0.0,0.0,-3.598,-3.5672,0.0,0.0,0.0,0.0,-3.56,0.0,0.0,0.0,-3.56,0.0,-3.56,-3.5694,-3.5717,-3.5622,-3.56,-3.56,-3.56,-3.56,-3.56,-3.56,-3.56,-3.56,-3.56,-3.56,-3.56,-3.56,-3.56,-3.56,-3.56,-3.56,-3.5827,-3.6249,-3.6803,-3.7248,-3.7631,-3.8374,-3.869,-3.8706,-3.8695,-3.8707,-3.875,-3.9288,-3.9327,-3.9212,-4.0091,-4.0295,-4.0139,-4.0417,-4.0496,-4.0496,-4.0496,-4.0496,-4.0496,-4.0496,-4.0496,-4.0496,-4.0496,-4.0496,-4.0496,-4.0496,-4.0496,-4.0496,-4.0496,-4.0496,-4.0542,-4.0643,-4.0655,-4.0718,-4.0912,-4.0939,-4.1007,-4.1171,-4.1191,-4.1191,-4.1191,-4.1191,-4.1191,-4.1191,-4.1191,-4.1191,-4.1191,-4.1191,-4.1191,-4.1191,-4.1191,-4.1191,-4.1191,-4.1191,-4.1191,-4.1191,-4.1191,-4.1191,-4.1191,-4.1191,-4.1191,-4.1191,-4.1191,-4.1191,-4.1191,-4.1082,-4.1042,-4.3515,-4.3515,-4.3478,-4.3404,-4.2763,-4.1801,-4.0402,0.0,-3.7886,-3.6575,0.0,-3.56,0.0,0.0,0.0,0.0,0.0,0.0,-3.56,-3.56,-3.56,-3.56,-3.6028,-3.6118,-3.5644,-3.56,-3.56,-3.56,-3.56,-3.56,-3.56,-3.56,-3.56,-3.56,-3.56,-3.56,-3.56,-3.56,-3.56,-3.56,-3.56,-3.5644,-3.5717,-3.6245,-3.6771,-3.7306,-3.8295,-3.8697,-3.8694,-3.8711,-3.8707,-3.8735,-3.904,-3.912,-3.9173,-3.9901,-4.012,-4.0139,-4.0417,-4.0496,-4.0496,-4.0496,-4.0496,-4.0496,-4.0496,-4.0496,-4.0496,-4.0496,-4.0496,-4.0496,-4.0496,-4.0496,-4.0496,-4.0496,-4.0496,-4.0504,-4.0527,-4.0527,-4.0554,-4.0721,-4.0729,-4.0827,-4.1148,-4.1191,-4.1191,-4.1191,-4.1191,-4.1191,-4.1191,-4.1191,-4.1191,-4.1191,-4.1191,-4.1191,-4.1191,-4.1191,-4.1191,-4.1191,-4.1191,-4.1191,-4.1191,-4.1191,-4.1191,-4.1191,-4.1191,-4.1191,-4.1191,-4.1191,-4.1191,-4.1191,-4.1172,-4.1171,-4.3515,-4.3515,-4.3515,-4.3515,-4.2892,-4.1948,-4.0619,-3.9517,-3.8434,-3.712,0.0,0.0,0.0,0.0,0.0,0.0,-3.56,-3.5717,0.0,0.0,-3.6312,-3.5672,0.0,0.0,-3.5622,-3.56,-3.56,-3.56,-3.56,-3.56,-3.56,-3.56,-3.56,-3.56,-3.56,-3.56,-3.56,-3.56,-3.56,-3.56,-3.56,-3.56,-3.5622,-3.6285,-3.6468,-3.635,-3.7577,-3.8341,-3.8699,-3.8713,-3.8707,-3.8704,-3.8815,-3.8869,-3.8937,-3.9583,-3.9808,-3.9851,-4.0157,-4.0372,-4.0496,-4.0496,-4.0496,-4.0496,-4.0496,-4.0496,-4.0496,-4.0496,-4.0496,-4.0496,-4.0496,-4.0496,-4.0496,-4.0496,-4.0496,-4.0496,-4.0496,-4.0496,-4.0539,-4.0677,-4.0691,-4.0769,-4.0933,-4.1026,-4.1081,-4.1081,-4.115,-4.1191,-4.1191,-4.1191,-4.1191,-4.1191,-4.1191,-4.1191,-4.1191,-4.1191,-4.1191,-4.1191,-4.1191,-4.1191,-4.1191,-4.1191,-4.1191,-4.1191,-4.1191,-4.1191,-4.1191,-4.1191,-4.1191,-4.1191,-4.1191,-4.1191,-4.3515,-4.3515,-4.3515,-4.3515,-4.3057,-4.2256,-4.085,-3.9949,-3.9031,-3.7666,-3.6865,0.0,0.0,0.0,0.0,0.0,0.0,-3.5963,0.0,-3.6862,0.0,0.0,0.0,0.0,0.0,-3.56,-3.56,-3.56,-3.56,-3.56,-3.56,-3.56,-3.56,-3.56,-3.56,-3.56,-3.56,-3.56,-3.56,-3.56,-3.56,-3.56,-3.5622,-3.6152,-3.6109,-3.5671,-3.6891,-3.781,-3.8436,-3.8613,-3.8707,-3.8707,-3.8707,-3.8707,-3.8747,-3.9275,-3.9529,-3.9645,-3.9992,-4.0286,-4.0496,-4.0496,-4.0496,-4.0496,-4.0496,-4.0496,-4.0496,-4.0496,-4.0496,-4.0496,-4.0496,-4.0496,-4.0496,-4.0496,-4.0496,-4.0496,-4.0496,-4.0496,-4.0535,-4.0631,-4.065,-4.0663,-4.0707,-4.0843,-4.0964,-4.0992,-4.107,-4.1152,-4.1191,-4.1191,-4.1191,-4.1191,-4.1191,-4.1191,-4.1191,-4.1191,-4.1191,-4.1191,-4.1191,-4.1191,-4.1191,-4.1191,-4.1191,-4.1191,-4.1191,-4.1191,-4.1191,-4.1191,-4.1191,-4.1191,-4.1191,-4.1191,-4.3515,-4.3515,-4.3515,-4.3515,-4.3478,-4.3039,-4.1427,-4.0649,-3.9806,-3.8201,-3.7079,-3.6395,-3.6395,0.0,0.0,0.0,0.0,0.0,0.0,0.0,-3.6981,-3.6437,-3.592,0.0,0.0,-3.56,-3.56,0.0,-3.56,-3.56,-3.56,-3.56,-3.56,-3.56,-3.56,-3.56,-3.56,-3.56,-3.56,-3.56,-3.56,-3.56,-3.56,-3.5622,-3.5605,-3.5638,-3.6407,-3.7103,-3.7787,-3.8429,-3.8707,-3.8707,-3.8707,-3.8707,-3.8735,-3.8994,-3.9314,-3.9645,-3.9992,-4.0286,-4.0496,-4.0496,-4.0496,-4.0496,-4.0496,-4.0496,-4.0496,-4.0496,-4.0496,-4.0496,-4.0496,-4.0496,-4.0496,-4.0496,-4.0496,-4.0496,-4.0496,-4.0496,-4.0496,-4.0516,-4.0516,-4.0516,-4.0512,-4.066,-4.0844,-4.0974,-4.0996,-4.1055,-4.1172,-4.1191,-4.1191,-4.1191,-4.1191,-4.1191,-4.1191,-4.1191,-4.1191,-4.1191,-4.1191,-4.1191,-4.1191,-4.1191,-4.1191,-4.1191,-4.1191,-4.1191,-4.1191,-4.1191,-4.1191,-4.1191,-4.1191,-4.1191,-4.3515,-4.3515,-4.3515,-4.3515,-4.3094,-4.2415,-4.1352,-4.0557,-3.9727,-3.8652,-3.7877,-3.7379,-3.7379,0.0,0.0,0.0,0.0,0.0,0.0,-3.736,-3.7596,-3.7415,-3.6944,-3.6522,0.0,0.0,0.0,0.0,-3.56,0.0,-3.56,-3.56,-3.56,-3.56,-3.56,-3.56,-3.56,-3.56,-3.56,-3.56,-3.56,-3.56,-3.56,-3.56,-3.56,-3.565,-3.6619,-3.7299,-3.7732,-3.8411,-3.8707,-3.8707,-3.8707,-3.8707,-3.8704,-3.8803,-3.9031,-3.9339,-3.9912,-4.0286,-4.0496,-4.0496,-4.0496,-4.0496,-4.0496,-4.0496,-4.0496,-4.0496,-4.0496,-4.0496,-4.0496,-4.0496,-4.0496,-4.0496,-4.0496,-4.0496,-4.0496,-4.0496,-4.0496,-4.0496,-4.0496,-4.0496,-4.0496,-4.0568,-4.0648,-4.077,-4.0908,-4.1016,-4.1055,-4.1152,-4.1191,-4.1191,-4.1191,-4.1191,-4.1191,-4.1191,-4.1191,-4.1191,-4.1191,-4.1191,-4.1191,-4.1191,-4.1191,-4.1191,-4.1191,-4.1191,-4.1191,-4.1191,-4.1191,-4.1191,-4.1191,-4.1191,-4.3515,-4.3515,-4.3441,-4.313,-4.2671,-4.2011,-4.0928,-4.0267,-3.963,-3.8629,-3.815,-3.779,-3.7433,0.0,0.0,0.0,0.0,0.0,0.0,-3.7981,-3.8183,-3.8183,-3.7596,-3.6999,-3.6457,0.0,0.0,0.0,0.0,0.0,0.0,-3.56,-3.56,-3.56,-3.56,-3.56,-3.56,-3.56,-3.56,-3.56,-3.56,-3.56,-3.56,-3.56,-3.56,-3.565,-3.6726,-3.7317,-3.7589,-3.8374,-3.8707,-3.8707,-3.8707,-3.8707,-3.8707,-3.8707,-3.8956,-3.9352,-3.9912,-4.0286,-4.0496,-4.0496,-4.0496,-4.0496,-4.0496,-4.0496,-4.0496,-4.0496,-4.0496,-4.0496,-4.0496,-4.0496,-4.0496,-4.0496,-4.0496,-4.0496,-4.0496,-4.0496,-4.0496,-4.0496,-4.0496,-4.0496,-4.0496,-4.0496,-4.0554,-4.0677,-4.0811,-4.0912,-4.0995,-4.1074,-4.1152,-4.1191,-4.1191,-4.1191,-4.1191,-4.1191,-4.1191,-4.1191,-4.1191,-4.1191,-4.1191,-4.1191,-4.1191,-4.1191,-4.1191,-4.1191,-4.1191,-4.1191,-4.1191,-4.1191,-4.1191,-4.1191]},{"header":{"parameterUnit":"m.s-1","parameterCategory":1,"la1":30.6,"la2":29.2853,"lo1":-89.7004,"lo2":-87.6739,"dy":0.0162,"dx":0.0183,"nx":112,"ny":82,"refTime":"2024-04-15T12:00:00:Z","depth":0,"parameterNumber":3,"parameterNumberName":"V-component_of_WINDS"},"data":[0.0,0.0,0.0,0.0,0.0,0.0,0.0,0.0,0.0,0.0,0.0,0.0,0.0,0.0,0.0,0.0,0.0,0.0,0.0,0.0,0.0,0.0,0.0,0.0,0.0,0.0,0.0,0.0,0.0,0.0,0.0,0.0,0.0,0.0,0.0,0.0,0.0,0.0,0.0,0.0,0.0,0.0,0.0,0.0,0.0,0.0,0.0,0.0,0.0,0.0,0.0,0.0,0.0,0.0,0.0,0.0,0.0,0.0,0.0,0.0,0.0,0.0,0.0,0.0,0.0,0.0,0.0,0.0,0.0,0.0,0.0,0.0,0.0,0.0,0.0,0.0,0.0,0.0,0.0,0.0,0.0,0.0,0.0,0.0,0.0,0.0,0.0,0.0,0.0,0.0,-0.8885,-0.8885,-0.8885,-0.8992,-0.921,-1.0566,-1.2077,-1.3534,0.0,0.0,0.0,0.0,0.0,0.0,0.0,0.0,0.0,0.0,0.0,0.0,0.0,0.0,0.0,0.0,0.0,0.0,0.0,0.0,0.0,0.0,0.0,0.0,0.0,0.0,0.0,0.0,0.0,0.0,0.0,0.0,0.0,0.0,0.0,0.0,0.0,0.0,0.0,0.0,0.0,0.0,0.0,0.0,0.0,0.0,0.0,0.0,0.0,0.0,0.0,0.0,0.0,0.0,0.0,0.0,0.0,0.0,0.0,0.0,0.0,0.0,0.0,0.0,0.0,0.0,0.0,0.0,0.0,0.0,0.0,0.0,0.0,0.0,0.0,0.0,0.0,0.0,0.0,0.0,0.0,0.0,0.0,0.0,0.0,0.0,0.0,0.0,0.0,0.0,0.0,0.0,0.0,0.0,0.0,0.0,0.0,0.0,0.0,0.0,0.0,0.0,0.0,0.0,-0.8885,-0.8885,-0.8885,-0.9427,-1.0676,-1.2132,-1.3588,-1.499,0.0,0.0,0.0,0.0,0.0,0.0,0.0,0.0,0.0,0.0,0.0,0.0,0.0,0.0,0.0,0.0,0.0,0.0,0.0,0.0,0.0,0.0,0.0,0.0,0.0,0.0,0.0,0.0,0.0,0.0,0.0,0.0,0.0,0.0,0.0,0.0,0.0,0.0,0.0,0.0,0.0,0.0,0.0,0.0,0.0,0.0,0.0,0.0,0.0,0.0,0.0,0.0,0.0,0.0,0.0,0.0,0.0,0.0,0.0,0.0,0.0,0.0,0.0,0.0,0.0,0.0,0.0,0.0,0.0,0.0,0.0,0.0,0.0,0.0,0.0,0.0,0.0,0.0,0.0,0.0,0.0,0.0,0.0,0.0,0.0,0.0,0.0,0.0,0.0,0.0,0.0,0.0,0.0,0.0,0.0,0.0,0.0,0.0,0.0,0.0,0.0,0.0,0.0,-0.8885,-0.8885,-0.8885,-0.8885,-0.9482,-1.0941,-1.2457,-1.3911,-1.531,-1.6174,0.0,0.0,0.0,0.0,0.0,0.0,0.0,0.0,0.0,0.0,0.0,0.0,0.0,0.0,0.0,0.0,0.0,0.0,0.0,0.0,0.0,0.0,0.0,0.0,0.0,0.0,0.0,0.0,0.0,0.0,0.0,0.0,0.0,0.0,0.0,0.0,0.0,0.0,0.0,0.0,0.0,0.0,0.0,0.0,0.0,0.0,0.0,0.0,0.0,0.0,0.0,0.0,0.0,0.0,0.0,0.0,0.0,0.0,0.0,0.0,0.0,0.0,0.0,0.0,0.0,0.0,0.0,0.0,0.0,0.0,0.0,0.0,0.0,0.0,0.0,0.0,0.0,0.0,0.0,0.0,0.0,0.0,0.0,0.0,0.0,0.0,0.0,0.0,0.0,0.0,0.0,0.0,0.0,0.0,0.0,0.0,0.0,0.0,0.0,0.0,0.0,0.0,-0.8885,-0.8885,-0.8885,-0.921,-1.0025,-1.1483,-1.294,-1.4395,-1.5849,-1.6988,0.0,0.0,0.0,0.0,0.0,0.0,0.0,0.0,0.0,0.0,0.0,0.0,0.0,0.0,0.0,0.0,0.0,0.0,0.0,0.0,0.0,0.0,0.0,0.0,0.0,0.0,0.0,0.0,0.0,0.0,0.0,0.0,0.0,0.0,0.0,0.0,0.0,0.0,0.0,0.0,0.0,0.0,0.0,0.0,0.0,0.0,0.0,0.0,0.0,0.0,0.0,0.0,0.0,0.0,0.0,0.0,0.0,0.0,0.0,0.0,0.0,0.0,0.0,0.0,0.0,0.0,0.0,0.0,0.0,0.0,0.0,0.0,0.0,0.0,0.0,0.0,0.0,0.0,0.0,0.0,0.0,0.0,0.0,0.0,0.0,0.0,0.0,0.0,0.0,0.0,0.0,0.0,0.0,0.0,0.0,0.0,0.0,0.0,0.0,0.0,0.0,0.0,-0.8885,-0.8885,-0.8885,-1.0135,-1.1538,-1.2999,-1.4449,-1.5902,-1.7364,-1.7529,0.0,0.0,0.0,0.0,0.0,0.0,0.0,0.0,0.0,0.0,0.0,0.0,0.0,0.0,0.0,0.0,0.0,0.0,0.0,0.0,0.0,0.0,0.0,0.0,0.0,0.0,0.0,0.0,0.0,0.0,0.0,0.0,0.0,0.0,0.0,0.0,0.0,0.0,0.0,0.0,0.0,0.0,0.0,0.0,0.0,0.0,0.0,0.0,0.0,0.0,0.0,0.0,0.0,0.0,0.0,0.0,0.0,0.0,0.0,0.0,0.0,0.0,0.0,0.0,0.0,0.0,0.0,0.0,0.0,0.0,0.0,0.0,0.0,0.0,0.0,0.0,0.0,0.0,0.0,0.0,0.0,0.0,0.0,0.0,0.0,0.0,0.0,0.0,0.0,0.0,0.0,0.0,0.0,0.0,0.0,0.0,0.0,0.0,0.0,0.0,0.0,0.0,-0.8885,-0.8885,-0.8885,-0.9372,-1.0672,-1.3107,-1.3804,-1.5097,-1.747,0.0,0.0,0.0,0.0,0.0,0.0,0.0,0.0,0.0,0.0,0.0,0.0,0.0,0.0,0.0,0.0,0.0,0.0,0.0,0.0,0.0,0.0,0.0,0.0,0.0,0.0,0.0,0.0,0.0,0.0,0.0,0.0,0.0,0.0,0.0,0.0,0.0,0.0,0.0,0.0,0.0,0.0,0.0,0.0,0.0,0.0,0.0,0.0,0.0,0.0,0.0,0.0,0.0,0.0,0.0,0.0,0.0,0.0,0.0,0.0,0.0,0.0,0.0,0.0,0.0,0.0,0.0,0.0,0.0,0.0,0.0,0.0,0.0,0.0,0.0,0.0,0.0,0.0,0.0,0.0,0.0,0.0,0.0,0.0,0.0,0.0,0.0,0.0,0.0,0.0,0.0,0.0,0.0,0.0,0.0,0.0,0.0,0.0,0.0,0.0,0.0,0.0,-0.8885,-0.8885,-0.8885,-0.8885,-0.932,-1.0621,-1.3102,-1.3696,-1.499,-1.747,0.0,0.0,0.0,0.0,0.0,0.0,0.0,0.0,0.0,0.0,0.0,0.0,0.0,0.0,0.0,0.0,0.0,0.0,0.0,0.0,0.0,0.0,0.0,0.0,0.0,0.0,0.0,0.0,0.0,0.0,0.0,0.0,0.0,0.0,0.0,0.0,0.0,0.0,0.0,0.0,0.0,0.0,0.0,0.0,0.0,0.0,0.0,0.0,0.0,0.0,0.0,0.0,0.0,0.0,0.0,0.0,0.0,0.0,0.0,0.0,0.0,0.0,0.0,0.0,0.0,0.0,0.0,0.0,0.0,0.0,0.0,0.0,0.0,0.0,0.0,0.0,0.0,0.0,0.0,0.0,0.0,0.0,0.0,0.0,0.0,0.0,0.0,0.0,0.0,0.0,0.0,0.0,0.0,0.0,0.0,0.0,0.0,0.0,0.0,0.0,0.0,0.0,-0.8885,-0.8885,-0.8885,-0.8885,-1.0186,-1.1701,-1.3156,-1.4556,-1.6009,0.0,0.0,0.0,0.0,0.0,0.0,0.0,0.0,0.0,0.0,0.0,0.0,0.0,0.0,0.0,0.0,0.0,0.0,0.0,0.0,0.0,0.0,0.0,0.0,0.0,0.0,0.0,0.0,0.0,0.0,0.0,0.0,0.0,0.0,0.0,0.0,0.0,0.0,0.0,0.0,0.0,0.0,0.0,0.0,0.0,0.0,0.0,0.0,0.0,0.0,0.0,0.0,0.0,0.0,0.0,0.0,0.0,0.0,0.0,0.0,0.0,0.0,0.0,0.0,0.0,0.0,0.0,0.0,0.0,0.0,0.0,0.0,0.0,0.0,0.0,0.0,0.0,0.0,0.0,0.0,0.0,0.0,0.0,0.0,0.0,0.0,0.0,0.0,0.0,0.0,0.0,0.0,0.0,0.0,0.0,0.0,0.0,0.0,0.0,0.0,0.0,0.0,0.0,-0.8868,-0.8885,-0.8885,-0.8885,-0.9265,-1.0566,-1.3102,-1.3696,-1.499,-1.7417,0.0,0.0,0.0,0.0,0.0,0.0,0.0,0.0,0.0,0.0,0.0,0.0,0.0,0.0,0.0,0.0,0.0,0.0,0.0,0.0,0.0,0.0,0.0,0.0,0.0,0.0,0.0,0.0,0.0,0.0,0.0,0.0,0.0,0.0,0.0,0.0,0.0,0.0,0.0,0.0,0.0,0.0,0.0,0.0,0.0,0.0,0.0,0.0,0.0,0.0,0.0,0.0,0.0,0.0,0.0,0.0,0.0,0.0,0.0,0.0,0.0,0.0,0.0,0.0,0.0,0.0,0.0,0.0,0.0,0.0,0.0,0.0,0.0,0.0,0.0,0.0,0.0,0.0,0.0,0.0,0.0,0.0,0.0,0.0,0.0,0.0,0.0,0.0,0.0,0.0,0.0,0.0,0.0,0.0,0.0,0.0,0.0,0.0,0.0,0.0,0.0,0.0,-0.8865,-0.8885,-0.8885,-0.8885,-0.9427,-1.0726,-1.3102,-1.3804,-1.515,-1.747,0.0,0.0,0.0,0.0,0.0,0.0,0.0,0.0,0.0,0.0,0.0,0.0,0.0,0.0,0.0,0.0,0.0,0.0,0.0,0.0,0.0,0.0,0.0,0.0,0.0,0.0,0.0,0.0,0.0,0.0,0.0,0.0,0.0,0.0,0.0,0.0,0.0,0.0,0.0,0.0,0.0,0.0,0.0,0.0,0.0,0.0,0.0,0.0,0.0,0.0,0.0,0.0,0.0,0.0,0.0,0.0,0.0,0.0,0.0,0.0,0.0,0.0,0.0,0.0,0.0,0.0,0.0,0.0,0.0,0.0,0.0,0.0,0.0,0.0,0.0,0.0,0.0,0.0,0.0,0.0,0.0,0.0,0.0,0.0,0.0,0.0,0.0,0.0,0.0,0.0,0.0,0.0,0.0,0.0,0.0,0.0,0.0,0.0,0.0,0.0,0.0,0.0,-0.8844,-0.8875,-0.8885,-0.8885,-1.0076,-1.1538,-1.3156,-1.4449,-1.5896,-1.7437,0.0,0.0,0.0,0.0,0.0,0.0,0.0,0.0,0.0,0.0,0.0,0.0,0.0,0.0,0.0,0.0,0.0,0.0,0.0,0.0,0.0,0.0,0.0,0.0,0.0,0.0,0.0,0.0,0.0,0.0,0.0,0.0,0.0,0.0,0.0,0.0,0.0,0.0,0.0,0.0,0.0,0.0,0.0,0.0,0.0,0.0,0.0,0.0,0.0,0.0,0.0,0.0,0.0,0.0,0.0,0.0,0.0,0.0,0.0,0.0,0.0,0.0,0.0,0.0,0.0,0.0,0.0,0.0,0.0,0.0,0.0,0.0,0.0,0.0,0.0,0.0,0.0,0.0,0.0,0.0,0.0,0.0,0.0,0.0,0.0,0.0,0.0,0.0,0.0,0.0,0.0,0.0,0.0,0.0,0.0,0.0,0.0,0.0,0.0,0.0,0.0,0.0,-0.874,-0.8811,-0.8885,-0.8885,-0.9154,-1.0457,-1.3102,-1.3588,-1.4744,-1.7151,-1.6961,0.0,0.0,0.0,0.0,0.0,0.0,0.0,0.0,0.0,0.0,0.0,0.0,0.0,0.0,0.0,0.0,0.0,0.0,0.0,0.0,0.0,0.0,0.0,0.0,0.0,0.0,0.0,0.0,0.0,0.0,0.0,0.0,0.0,0.0,0.0,0.0,0.0,0.0,0.0,0.0,0.0,0.0,0.0,0.0,0.0,0.0,0.0,0.0,0.0,0.0,0.0,0.0,0.0,0.0,0.0,0.0,0.0,0.0,0.0,0.0,0.0,0.0,0.0,0.0,0.0,0.0,0.0,0.0,0.0,0.0,0.0,0.0,0.0,0.0,0.0,0.0,0.0,0.0,0.0,0.0,0.0,0.0,0.0,0.0,0.0,0.0,0.0,0.0,0.0,0.0,0.0,0.0,0.0,0.0,0.0,0.0,0.0,0.0,0.0,0.0,0.0,-0.8682,-0.8781,-0.8804,-0.8875,-0.9537,-1.0836,-1.3102,-1.3811,-1.5024,-1.7052,-1.674,0.0,0.0,0.0,0.0,0.0,0.0,0.0,0.0,0.0,0.0,0.0,0.0,0.0,0.0,0.0,0.0,0.0,0.0,0.0,0.0,0.0,0.0,0.0,0.0,0.0,0.0,0.0,0.0,0.0,0.0,0.0,0.0,0.0,0.0,0.0,0.0,0.0,0.0,0.0,0.0,0.0,0.0,0.0,0.0,0.0,0.0,0.0,0.0,0.0,0.0,0.0,0.0,0.0,0.3186,0.2626,0.2571,0.1064,0.0392,0.0392,0.0112,0.0,0.0,0.0,0.0,0.0,0.0,0.0,0.0,0.0,0.0,0.0,0.0,0.0,0.0,0.0,0.0,0.0,0.0,0.0,0.0,0.0,0.0,0.0,0.0,0.0,0.0,0.0,-0.8218,-0.8091,-0.835,0.0,0.0,0.0,0.0,0.0,0.0,0.0,0.0,0.0,0.0,0.0,-0.8604,-0.8655,-0.873,-0.8828,-0.9953,-1.1237,-1.2773,-1.3952,-1.5211,-1.6573,-1.6441,-1.6274,0.0,0.0,0.0,0.0,0.0,0.0,0.0,0.0,0.0,0.0,0.0,0.0,0.0,0.0,0.0,0.0,0.0,0.0,0.0,0.0,0.0,0.0,0.0,0.0,0.0,0.0,0.0,0.0,0.0,0.0,0.0,0.0,0.8885,0.8885,0.0,0.0,0.0,0.0,0.0,0.0,0.0,0.0,0.0,0.0,0.0,0.0,0.0,0.4526,0.4526,0.4526,0.4526,0.447,0.4303,0.4191,0.4136,0.2626,0.1901,0.1845,0.056,0.0,0.0,0.0,0.0,0.0,0.0,0.0,0.0,0.0,0.0,0.0,0.0,0.0,0.0,0.0,0.0,0.0,0.0,0.0,0.0,0.0,0.0,0.0,0.0,0.0,-0.8046,-0.8049,-0.8019,-0.7988,0.0,-0.8072,-0.8049,-0.8049,-0.8032,0.0,0.0,0.0,0.0,0.0,0.0,0.0,-0.8323,-0.8435,-0.857,-0.8723,-0.8778,-0.9485,-1.1056,-1.2248,-1.3424,-1.4626,-1.5705,-1.6094,-1.5531,-1.5471,0.0,0.0,0.0,0.0,0.0,0.0,0.0,0.0,0.0,0.0,0.0,0.0,0.0,0.0,0.0,0.0,0.0,0.0,0.0,0.0,0.0,0.0,0.0,0.0,0.0,0.0,0.0,0.0,0.0,0.8885,0.8885,0.8885,0.8885,0.8885,0.0,0.0,0.0,0.0,0.0,0.0,0.0,0.0,0.0,0.698,0.698,0.698,0.698,0.698,0.698,0.698,0.6142,0.5753,0.5697,0.419,0.3017,0.218,0.151,0.0784,0.0,0.0,0.0,0.0,0.0,0.0,0.0,0.0,-0.0952,-0.1064,-0.1735,-0.1958,-0.2123,-0.2936,0.0,0.0,0.0,0.0,0.0,0.0,0.0,-0.6042,0.0,0.0,-0.726,-0.7986,-0.8163,-0.8165,-0.815,-0.8102,-0.7988,0.0,-0.7988,-0.7988,-0.7988,0.0,0.0,0.0,0.0,-0.8174,-0.8258,-0.8378,-0.8421,-0.8567,-0.8523,-0.9129,-1.0657,-1.1774,-1.2917,-1.4217,-1.522,-1.5665,-1.5404,-1.5244,-1.5142,0.0,0.0,0.0,0.0,0.0,0.0,0.0,0.0,0.0,0.0,0.0,0.0,0.0,0.0,0.0,0.0,0.0,0.0,0.0,0.0,0.0,0.0,0.0,0.0,0.0,0.0,0.0,0.0,0.9158,0.8885,0.8885,0.8885,0.8885,0.0,0.0,0.0,0.0,0.0,0.0,0.8885,0.8885,0.8885,0.8885,0.8885,0.8885,0.8885,0.8885,0.8885,0.8881,0.7762,0.726,0.7204,0.5753,0.4413,0.3351,0.2961,0.1957,0.056,0.0168,0.0,0.0,0.0,0.0,0.0,0.0,0.0,0.0,0.0,0.0,-0.0168,-0.1281,-0.1863,-0.231,-0.3335,0.0,0.0,0.0,0.0,-0.4207,-0.5207,-0.5608,-0.6067,-0.7397,-0.7734,-0.7822,-0.8137,-0.8123,-0.7988,0.0,-0.7988,-0.7988,-0.7988,0.0,0.0,0.0,0.0,-0.8029,-0.8197,-0.8211,-0.8265,-0.8414,-0.8391,-0.8843,-1.0011,-1.1258,-1.2485,-1.3519,-1.465,-1.5251,-1.517,-1.4963,-1.4861,-1.4787,0.0,0.0,0.0,0.0,0.0,0.0,0.0,0.0,0.0,0.0,0.0,0.0,0.0,0.0,0.0,0.0,0.0,0.0,0.0,0.0,0.0,0.0,0.0,0.0,0.0,0.0,0.0,0.0,0.0,0.8885,0.8885,0.0,0.0,0.0,0.0,0.8885,0.8885,0.8885,0.8885,0.8885,0.8885,0.8885,0.8885,0.8885,0.8885,0.8885,0.8885,0.8885,0.8826,0.8771,0.8716,0.726,0.6533,0.6422,0.4972,0.3521,0.1956,0.056,0.0,0.0,0.0,0.0,0.0,0.0,0.0,0.0,0.0,0.0,0.0,-0.011,-0.0963,-0.2023,-0.2073,-0.3011,0.0,0.0,-0.4011,-0.4007,-0.4064,-0.4114,-0.4453,-0.581,-0.6126,-0.6484,-0.7746,-0.7995,-0.7988,0.0,-0.7988,-0.7988,-0.7988,0.0,-0.7988,-0.7988,-0.7988,-0.7992,-0.8002,-0.8002,-0.8109,-0.8265,-0.815,-0.8119,-0.8419,-1.0338,-1.1584,-1.1632,-1.375,-1.4863,-1.4576,-1.4549,-1.4416,-1.4135,-1.4135,0.0,0.0,0.0,0.0,0.0,0.0,0.0,0.0,0.0,0.0,0.0,0.0,0.0,0.0,0.0,0.0,0.0,0.0,0.0,0.0,0.0,0.0,0.0,0.0,0.0,0.0,0.0,0.0,1.0457,1.0296,0.0,0.8992,0.8885,0.8885,0.8885,0.9025,0.9076,0.9076,0.9171,0.9225,0.9225,0.9225,0.9225,0.9225,0.9127,0.9076,0.9076,0.8984,0.8885,0.8881,0.8377,0.7595,0.6644,0.6144,0.5083,0.3632,0.3131,0.1735,0.0,0.0,0.0,0.0,0.0,0.0,0.0,0.0,0.0,0.0,0.0,-0.0326,-0.0695,-0.0731,-0.1032,-0.1432,-0.1415,-0.1409,-0.1611,-0.2469,-0.2773,-0.3197,-0.4534,-0.5542,-0.6303,-0.678,-0.7497,-0.7988,-0.7988,-0.7988,-0.7988,-0.7988,-0.7988,-0.7988,-0.7988,-0.7988,-0.7988,-0.7988,-0.7988,-0.7971,-0.798,-0.7926,-0.7879,-0.7841,-0.9282,-1.0221,-1.0221,-1.2316,-1.3535,-1.3392,-1.3935,-1.4195,-1.4088,-1.4088,-1.4135,0.0,0.0,0.0,0.0,0.0,0.0,0.0,0.0,0.0,0.0,0.0,0.0,0.0,0.0,0.0,0.0,0.0,0.0,0.0,0.0,0.0,0.0,0.0,0.0,0.0,1.3588,1.2945,1.1973,1.1864,1.1269,0.9809,0.9691,0.9502,0.9008,0.9147,0.9286,0.9286,0.9327,0.9381,0.9381,0.9381,0.9381,0.9381,0.934,0.9262,0.9207,0.9055,0.8984,0.8885,0.8885,0.8377,0.7426,0.7426,0.6589,0.525,0.525,0.3465,0.0728,0.0728,0.0448,0.0,0.0,0.0,0.0,0.0,0.0,0.0,0.0,0.0,0.0,0.0,0.0,0.0,0.0,0.0,-0.0202,-0.1111,-0.1415,-0.1775,-0.3138,-0.4175,-0.4989,-0.5403,-0.648,-0.7335,-0.7335,-0.7686,-0.7988,-0.7988,-0.7988,-0.7988,-0.7988,-0.7944,-0.7914,-0.7914,-0.787,-0.7851,-0.775,-0.774,-0.7702,-0.7607,-0.8691,-0.938,-0.938,-1.1078,-1.2057,-1.2057,-1.2998,-1.3512,-1.3512,-1.3913,-1.4088,-1.4088,0.0,0.0,0.0,0.0,0.0,0.0,0.0,0.0,0.0,0.0,0.0,0.0,0.0,0.0,0.0,0.0,0.0,0.0,0.0,0.0,0.0,0.0,0.0,1.5689,1.4288,1.3426,1.3372,1.3372,1.2783,1.1332,1.1325,1.0763,0.9384,0.9415,0.9446,0.9388,0.9391,0.9395,0.9395,0.9395,0.9395,0.9395,0.9391,0.931,0.9217,0.921,0.9079,0.8885,0.8885,0.8885,0.8885,0.8885,0.8097,0.6758,0.6758,0.5023,0.2347,0.2235,0.1287,0.0,0.0,0.0,0.0,0.0,0.0,0.0,0.0,0.0,0.0,0.0,0.0,0.0,0.0,0.0,0.0,0.0,0.0,-0.0303,-0.1611,-0.1962,-0.2363,-0.3665,-0.497,-0.5929,-0.5929,-0.703,-0.7932,-0.7988,-0.7985,-0.7982,-0.7982,-0.7902,0.0,-0.7804,-0.7685,-0.7597,-0.7594,-0.7594,-0.759,-0.7587,-0.8486,-0.9058,-0.9058,-1.0027,-1.0611,-1.0611,-1.1724,-1.237,-1.237,-1.3512,-1.4088,-1.4088,0.0,0.0,0.0,0.0,0.0,0.0,0.0,0.0,0.0,0.0,0.0,0.0,0.0,0.0,0.0,0.0,0.0,0.0,0.0,0.0,0.0,1.7582,1.7477,1.7041,1.6664,1.6015,1.4931,1.4824,1.4353,1.3102,1.3005,1.2492,1.1184,1.1181,1.0758,0.9603,0.9646,0.97,0.97,0.97,0.97,0.97,0.9598,0.9469,0.9317,0.9262,0.9079,0.8885,0.8885,0.8885,0.8885,0.8885,0.866,0.8322,0.8322,0.7202,0.5248,0.3072,0.1287,0.0,0.0,0.0,0.0,0.0,0.0,0.0,0.0,0.0,0.0,0.0,0.0,0.0,0.0,0.0,0.0,0.0,0.0,-0.0101,-0.0454,-0.131,-0.2113,-0.2464,-0.3616,-0.4568,-0.4568,-0.556,-0.6721,-0.7819,-0.7897,-0.7875,-0.7875,-0.775,0.0,-0.7658,-0.7624,-0.7556,-0.7444,-0.7434,-0.7387,-0.723,-0.7488,-0.7638,-0.7638,-0.9515,-1.0611,-1.0611,-1.2516,-1.3603,-1.3603,-1.3913,-1.4088,0.0,0.0,0.0,0.0,0.0,0.0,0.0,0.0,0.0,0.0,0.0,0.0,0.0,0.0,0.0,0.0,0.0,0.0,0.0,0.0,0.0,0.0,1.7582,1.7582,1.7582,1.7582,1.7259,1.644,1.6439,1.5971,1.474,1.4765,1.404,1.2058,1.2005,1.1407,0.9756,0.9778,0.9822,0.9822,0.9822,0.9822,0.9822,0.9741,0.9625,0.9473,0.932,0.9171,0.9025,0.8964,0.8885,0.8885,0.8885,0.8885,0.8885,0.8885,0.8042,0.0,0.0,0.0,0.0,0.0,0.0,0.0,0.0,0.0,0.0,0.0,0.0,0.0,0.0,0.0,0.0,0.0,0.0,0.0,0.0,0.0,0.0,0.0,-0.0605,-0.1159,-0.1159,-0.2199,-0.3326,-0.3823,-0.4545,0.0,-0.7495,-0.778,-0.7723,-0.7723,-0.7597,-0.7506,-0.7506,-0.7448,-0.7373,-0.7285,-0.7275,-0.7238,-0.7102,-0.7095,0.0,0.0,0.0,-0.957,-1.0567,-1.1912,0.0,0.0,0.0,-1.4088,-1.4088,-1.4088,0.0,0.0,-1.4168,-1.4175,0.0,0.0,0.0,0.0,0.0,0.0,0.0,0.0,0.0,0.0,0.0,0.0,0.0,0.0,0.0,0.0,1.7582,1.7582,1.7582,1.7609,1.7622,1.7589,1.7856,1.7501,1.6296,1.6523,1.5544,1.2547,1.2418,1.1675,0.9879,0.0,0.0,0.0,0.0,0.9822,0.9822,0.9822,0.9741,0.9581,0.9445,0.9293,0.918,0.8998,0.8885,0.8885,0.8885,0.8885,0.8885,0.8885,0.8156,0.6924,0.6366,0.4578,0.2013,0.056,0.0,0.0,0.0,0.0,0.0,0.0,0.0,0.0,0.0,0.0,0.0,0.0,0.0,0.0,0.0,0.0,0.0,0.0,0.0,0.0,0.0,-0.0942,-0.2102,-0.3169,-0.3693,-0.4637,-0.6767,-0.7289,-0.7433,-0.7573,-0.7444,-0.7346,-0.7346,-0.7224,-0.7095,-0.7095,0.0,0.0,-0.7095,-0.7095,-0.7095,-0.7095,-0.7228,-0.8317,-1.0524,-1.074,-1.1778,-1.387,-1.4046,-1.4088,-1.4088,-1.4088,-1.4088,-1.4088,-1.4088,-1.4088,0.0,0.0,0.0,0.0,0.0,0.0,0.0,0.0,0.0,0.0,0.0,0.0,0.0,0.0,0.0,1.7582,1.7582,1.7582,1.7582,1.7802,1.7862,1.7609,1.7856,1.7973,1.7984,1.8255,1.7204,1.4346,1.4103,1.2873,0.994,0.9822,0.9822,0.9822,0.9822,0.9822,0.9822,0.9822,0.9686,0.9425,0.0,0.0,0.8981,0.8895,0.8885,0.8885,0.8885,0.8885,0.8885,0.8885,0.8716,0.8097,0.4465,0.2738,0.2013,0.056,0.0,0.0,0.0,0.0,0.0,0.0,0.0,0.0,0.0,0.0,0.0,0.0,0.0,0.0,0.0,0.0,0.0,0.0,0.0,0.0,0.0,-0.0197,-0.0439,-0.0673,-0.2351,-0.3844,-0.4306,-0.5281,-0.6305,-0.7276,-0.7285,-0.7139,-0.7139,-0.7112,-0.7095,-0.7095,-0.7095,-0.7095,-0.7095,-0.7095,-0.7095,-0.7095,-0.8017,-0.9187,-1.0524,-1.1466,-1.22,-1.2632,-1.3603,-1.4088,-1.4088,-1.4088,-1.4088,-1.4088,-1.4088,-1.4088,0.0,0.0,0.0,0.0,0.0,0.0,0.0,0.0,0.0,0.0,0.0,1.7582,1.7582,0.0,1.7629,1.7789,1.7816,1.7869,1.8016,1.817,1.8156,1.7849,1.8217,1.8544,1.8691,1.8971,1.8198,1.5956,1.5079,1.3526,1.114,1.024,0.9822,0.9822,0.9822,0.9822,0.9822,0.9751,0.9642,0.9493,0.934,0.9188,0.9045,0.8971,0.8885,0.8885,0.8885,0.8885,0.8885,0.8885,0.8885,0.8602,0.5637,0.4021,0.3185,0.1678,0.0616,0.0,0.0,0.0,0.0,0.0,0.0,0.0,0.0,0.0,0.0,0.0,0.0,0.0,0.0,0.0,0.0,0.0,0.0,0.0,0.0,0.0,-0.019,-0.0799,-0.1384,-0.218,-0.34,-0.3674,-0.449,-0.6892,-0.7146,-0.7095,-0.7095,-0.7095,-0.7095,-0.7095,-0.7095,-0.7095,-0.7095,-0.7095,-0.7095,-0.7095,-0.7665,-0.8536,-0.9705,-1.0308,-1.1123,-1.2285,-1.2899,-1.3512,-1.4088,-1.4088,-1.4088,-1.4088,-1.4088,-1.4088,0.0,0.0,0.0,0.0,0.0,0.0,0.0,2.059,1.922,1.7891,1.7582,1.7582,1.7582,1.7629,1.7749,1.7949,1.8035,1.8217,1.8457,1.8537,1.8484,1.8189,1.8582,1.8925,1.8925,1.9192,1.8706,1.7144,1.5784,1.4242,1.2273,1.1257,1.06,1.0301,1.0301,1.0226,1.0254,0.9782,0.9581,0.9517,0.9326,0.9193,0.9163,0.8991,0.8885,0.8885,0.8885,0.8885,0.8885,0.8885,0.8885,0.8771,0.7595,0.62,0.4693,0.285,0.1454,0.0392,0.0112,0.0,0.0,0.0,0.0,0.0,0.0,0.0,0.0,0.0,0.0,0.0,0.0,0.0,0.0,0.0,0.0,0.0,0.0,0.0,-0.0277,-0.1241,-0.0862,-0.0986,-0.2903,-0.2637,-0.3217,-0.6293,-0.6782,-0.683,-0.7051,-0.7095,-0.7095,-0.7095,-0.7095,-0.7095,-0.7095,-0.7095,-0.7095,-0.7095,-0.7095,-0.7533,-0.8496,-0.8978,-1.0096,-1.1938,-1.2419,-1.3118,-1.4088,-1.4088,-1.4088,-1.4088,-1.4088,-1.4088,2.3425,2.4011,2.4355,2.3531,2.3367,2.3123,0.0,2.059,1.922,1.7891,1.7582,1.7582,1.7582,1.7789,1.7976,1.8016,1.8257,1.8457,1.8484,1.8718,1.8865,1.8831,1.8885,1.8925,1.8925,1.9192,1.8706,1.7144,1.685,1.5424,1.2333,1.3407,1.3412,1.1976,1.1916,1.1898,1.1791,1.0317,0.9473,0.9262,0.9224,0.9086,0.8905,0.8892,0.8885,0.8885,0.8885,0.8885,0.8885,0.8885,0.8885,0.8881,0.8716,0.7762,0.6086,0.3239,0.2124,0.1789,0.0448,0.0,0.0,0.0,0.0,0.0,0.0,0.0,0.0,0.0,0.0,0.0,0.0,0.0,0.0,0.0,0.0,0.0,0.0,0.0,-0.0046,-0.0181,-0.0943,-0.17,-0.1969,-0.2769,-0.3883,-0.5356,-0.5581,-0.5935,-0.6962,-0.7095,-0.7095,-0.7095,-0.7095,-0.7095,-0.7095,-0.7095,-0.7095,-0.7095,-0.7095,-0.7139,-0.7316,-0.9314,-1.0524,-1.0783,-1.282,-1.3955,-1.4088,-1.4088,-1.4088,-1.4088,-1.4088,-1.4088,2.3965,2.46,2.5032,2.4745,2.4174,2.3335,2.2005,2.059,1.922,1.7891,1.7582,1.7635,1.7816,1.7896,1.8089,1.849,1.8657,1.8804,1.8978,1.9105,1.9185,1.9185,1.9185,1.9185,1.9185,1.9292,1.9127,1.8467,1.7507,1.6433,1.5063,1.4718,1.4242,1.3403,1.3339,1.2831,1.1715,1.0978,1.0124,0.9207,0.9069,0.8998,0.8885,0.8885,0.8885,0.8885,0.8885,0.8885,0.8885,0.8885,0.8885,0.8885,0.8885,0.8546,0.7595,0.4636,0.2961,0.2012,0.0504,0.0,0.0,0.0,0.0,0.0,0.0,0.0,0.0,0.0,0.0,0.0,0.0,0.0,0.0,0.0,0.0,0.0,0.0,0.0,0.0,0.0,-0.0404,-0.0763,-0.0763,-0.1165,-0.1924,-0.3129,-0.451,-0.5513,-0.588,-0.6533,-0.694,-0.6895,-0.6885,-0.6885,-0.6885,-0.6885,-0.6885,-0.6885,-0.6923,-0.6974,-0.6974,-0.8003,-0.9226,-1.0567,-1.1563,-1.2735,-1.4088,-1.4088,-1.4088,-1.4088,-1.4088,-1.4088,2.4248,2.4824,2.5226,2.5149,2.4402,2.3235,2.1499,2.0333,1.922,1.7891,1.7582,1.7649,1.7822,1.8056,1.8255,1.8738,1.8938,1.9118,1.9397,1.9424,1.9424,1.9424,1.9424,1.9424,1.9424,1.9424,1.9424,1.9424,1.8344,1.7443,1.7026,1.6258,1.5487,1.484,1.4772,1.3881,1.2143,1.1552,1.0571,0.9093,0.8988,0.8885,0.8885,0.8885,0.8885,0.8885,0.8885,0.8885,0.8885,0.8885,0.8885,0.8885,0.8885,0.8885,0.8546,0.5586,0.3799,0.2626,0.1119,0.0336,0.0,0.0,0.0,0.0,0.0,0.0,0.0,0.0,0.0,0.0,0.0,0.0,0.0,0.0,0.0,0.0,0.0,0.0,0.0,0.0,0.0,0.0,0.0,0.0,-0.0312,-0.1155,-0.3086,-0.4461,-0.4676,-0.5681,-0.6479,-0.667,-0.6702,-0.6702,-0.6702,-0.6702,-0.6702,-0.6702,-0.6803,-0.6842,-0.6883,-0.7324,-0.8352,-1.0091,-1.074,-1.1906,-1.3603,-1.3955,-1.4088,-1.4088,-1.4088,-1.4088,2.4414,2.5011,2.5362,2.4097,2.3741,2.2976,2.029,1.9627,1.922,1.7891,1.7582,1.7589,1.7595,1.8083,1.8484,1.8504,1.8985,1.9417,1.9424,1.9424,1.9424,1.9424,1.9424,1.9424,0.0,1.9424,1.9424,1.9424,1.9366,1.8648,1.7085,1.8141,1.8052,1.6465,1.6164,1.5294,1.3659,1.2093,1.0512,0.8892,0.8885,0.8885,0.8885,0.8885,0.8885,0.8885,0.8885,0.8885,0.8885,0.8885,0.8885,0.8885,0.8885,0.8885,0.8546,0.5586,0.447,0.4191,0.2682,0.1175,0.0,0.0,0.0,0.0,0.0,0.0,0.0,0.0,0.0,0.0,0.0,0.0,0.0,0.0,0.0,0.0,0.0,0.0,0.0,0.0,0.0,0.0,0.0,0.0,0.0,-0.0044,-0.1109,-0.2327,-0.3499,-0.4542,-0.5565,-0.6574,-0.6702,-0.6702,-0.6702,-0.6702,-0.6702,-0.6702,-0.6705,-0.6773,-0.6879,-0.8025,-0.8743,-0.893,-1.1128,-1.2285,-1.237,-1.3512,-1.4088,-1.4088,-1.4088,-1.4088,2.4414,2.4364,2.4254,2.3791,2.3026,2.2106,2.1194,2.099,2.059,1.922,1.8916,1.8726,1.801,1.8217,1.8551,1.8744,1.9112,1.9424,1.9424,1.9424,1.9424,1.9424,1.9424,0.0,0.0,0.0,0.0,1.9424,1.9424,1.9041,1.8314,1.868,1.8457,1.7504,1.7402,1.6545,1.484,1.3371,1.1873,1.0351,0.9372,0.8885,0.8885,0.8885,0.8885,0.8885,0.8885,0.8885,0.8885,0.8885,0.8885,0.8885,0.8885,0.8885,0.8771,0.7762,0.62,0.4136,0.1623,0.0392,0.0,0.0,0.0,0.0,0.0,0.0,0.0,0.0,0.0,0.0,0.0,0.0,0.0,0.0,0.0,0.0,0.0,0.0,0.0,0.0,0.0,0.0,0.0,0.0,0.0,0.0,-0.095,-0.2098,-0.3311,-0.4261,-0.4959,-0.532,-0.6004,-0.645,-0.645,-0.645,-0.645,-0.645,-0.6538,-0.6573,-0.6624,-0.7089,-0.8178,-0.988,-1.0636,-1.1863,-1.3512,-1.3906,-1.4088,-1.4088,-1.4088,-1.4088,2.4609,2.4526,2.4304,2.384,2.3076,2.2307,2.1803,2.1296,2.0692,1.9782,1.922,1.8667,1.7996,1.8217,1.8551,1.8738,1.9105,1.9424,1.9424,1.9424,1.9424,1.9424,1.9424,1.9424,0.0,0.0,0.0,1.9424,1.9265,1.9125,1.8931,1.8724,1.8382,1.8002,1.7889,1.7075,1.5417,1.4019,1.2295,1.0296,0.9375,0.8885,0.8885,0.8885,0.8885,0.8885,0.8885,0.8885,0.8885,0.8885,0.8885,0.8885,0.8885,0.8885,0.8826,0.8322,0.6589,0.4247,0.2294,0.0896,0.0,0.0,0.0,0.0,0.0,0.0,0.0,0.0,0.0,0.0,0.0,0.0,0.0,0.0,0.0,0.0,0.0,0.0,0.0,0.0,0.0,0.0,0.0,0.0,0.0,0.0,-0.0602,-0.1443,-0.2601,-0.3236,-0.3711,-0.41,-0.5079,-0.5709,-0.5709,-0.6064,-0.63,-0.63,-0.6385,-0.646,-0.6511,-0.6566,-0.742,-0.9035,-0.994,-1.1188,-1.2764,-1.3685,-1.4088,-1.4088,-1.4088,-1.4088,2.4951,2.5343,2.5274,2.3998,2.3692,2.3384,2.2106,2.0794,1.9782,1.9731,1.8655,1.7687,1.7635,1.807,1.847,1.849,1.8971,1.941,1.9424,1.9424,1.9424,1.9424,1.9424,1.9424,1.9424,0.0,0.0,1.9403,0.0,1.8918,1.8905,1.8302,1.7982,1.7969,1.7736,1.6929,1.5524,1.4019,1.181,0.8885,0.8885,0.8885,0.8885,0.8885,0.8885,0.8885,0.8885,0.8885,0.8885,0.8885,0.8885,0.8885,0.8885,0.8885,0.8716,0.7315,0.5864,0.4582,0.4528,0.2517,0.0,0.0,0.0,0.0,0.0,0.0,0.0,0.0,0.0,0.0,0.0,0.0,0.0,0.0,0.0,0.0,0.0,0.0,0.0,0.0,0.0,0.0,0.0,0.0,0.0,0.0,0.0,-0.0353,-0.1372,-0.1568,-0.1957,-0.2929,-0.4021,-0.4688,-0.4688,-0.567,-0.63,-0.63,-0.63,-0.6361,-0.6497,-0.6501,-0.6573,-0.6767,-0.91,-1.033,-1.0481,-1.2848,-1.4026,-1.4088,-1.4088,-1.4088,2.4951,2.4639,2.4146,2.3791,2.3692,2.3583,2.3276,2.2926,2.2366,2.1347,2.0076,1.876,1.7786,1.7896,1.823,1.8457,1.8798,1.9112,1.9339,1.9424,1.9424,1.9424,1.9424,1.9424,1.9424,1.9424,0.0,0.0,1.8965,1.8831,1.8611,1.8195,1.7889,1.7709,1.7622,1.7417,1.7041,1.4556,1.181,0.8885,0.8885,0.8885,0.8885,0.8885,0.8885,0.8885,0.8885,0.8885,0.8885,0.8885,0.8885,0.8885,0.8885,0.8885,0.8826,0.8491,0.7426,0.5977,0.4862,0.2517,0.0,0.0,0.0,0.0,0.0,0.0,0.0,0.0,0.0,0.0,0.0,0.0,0.0,0.0,0.0,0.0,0.0,0.0,0.0,0.0,0.0,0.0,0.0,0.0,0.0,0.0,0.0,-0.0118,-0.0353,-0.1097,-0.1685,-0.1957,-0.3595,-0.4688,-0.4688,-0.567,-0.63,-0.63,-0.63,-0.6317,-0.6354,-0.6354,-0.6813,-0.7805,-0.8448,-0.971,-1.1662,-1.2278,-1.3098,-1.4088,-1.4088,-1.4088,2.3629,2.3659,2.3692,2.3692,2.3692,2.384,2.4461,2.4097,2.3335,2.1954,2.059,1.9369,1.8603,1.8196,1.8299,1.9235,1.911,1.9025,1.9325,1.9424,1.9424,1.9424,1.9424,1.9424,1.9424,1.9424,1.9245,0.0,1.8804,1.8604,1.831,1.8009,1.7762,1.7589,1.7582,1.7305,1.6658,1.44,1.2132,0.986,0.921,0.8885,0.8885,0.8885,0.8885,0.8885,0.8885,0.8885,0.8885,0.8885,0.8885,0.8885,0.8885,0.8885,0.8885,0.8885,0.7986,0.6589,0.5753,0.3463,0.084,0.0224,0.0388,0.0761,0.0156,0.0407,0.0756,0.0151,0.0,0.0,0.0,0.0,0.0,0.0,0.0,0.0,0.0,0.0,0.0,0.0,0.0,0.0,0.0,0.0,0.0,0.0,0.0,0.0,0.0,-0.051,-0.0902,-0.0902,-0.2348,-0.3517,-0.3945,-0.4999,-0.5786,-0.6261,-0.63,-0.63,-0.63,-0.63,-0.6645,-0.7352,-0.7897,-0.9197,-1.1256,-1.1822,-1.2779,-1.4088,-1.4088,-1.4088,2.1904,2.2567,2.3434,2.3434,2.3434,2.3741,2.4913,2.4097,2.2826,2.1651,2.0333,1.9324,1.9324,1.8738,1.8657,1.9961,1.9584,1.9185,1.9323,1.9339,1.9424,1.9424,1.9424,1.9424,1.9424,1.939,1.9185,1.8885,1.8597,1.8323,1.8009,1.7749,1.7582,1.7582,1.7582,1.6876,1.5417,1.4019,1.2566,1.1105,0.9588,0.8885,0.8885,0.8885,0.8885,0.8885,0.8885,0.8885,0.8885,0.8885,0.8885,0.8885,0.8885,0.8885,0.8885,0.8885,0.8097,0.698,0.6758,0.4962,0.2507,0.0839,0.1094,0.1798,0.0627,0.1075,0.1762,0.0605,0.0149,0.0,0.0,0.0,0.0,0.0,0.0,0.0,0.0,0.0,0.0,0.0,0.0,0.0,0.0,0.0,0.0,0.0,0.0,0.0,0.0,0.0,0.0,0.0,-0.0941,-0.1957,-0.2813,-0.4023,-0.5079,-0.6025,-0.6219,-0.63,-0.63,-0.63,-0.63,-0.63,-0.7399,-0.8586,-0.9958,-1.121,-1.2509,-1.386,-1.4026,-1.4088,2.1653,2.1853,2.2055,2.2055,2.2055,2.2106,2.2357,2.1304,2.0238,2.0033,1.8916,1.7943,1.7943,1.8705,1.911,1.8542,1.9424,1.995,1.9122,1.9212,1.9424,0.0,1.9424,1.9424,1.9424,1.9145,0.0,0.0,1.829,1.8049,1.7995,1.7749,1.7582,1.7582,1.7582,1.6876,1.5417,1.4019,1.2566,1.1105,0.9588,0.8885,0.8885,0.8885,0.8885,0.8885,0.8885,0.0,0.8885,0.8885,0.8885,0.8885,0.8885,0.8885,0.8885,0.8885,0.8716,0.8322,0.7146,0.6306,0.5316,0.2676,0.1904,0.1979,0.1722,0.181,0.1962,0.1711,0.0846,0.0,0.0,0.0,0.0,0.0,0.0,0.0,0.0,0.0,0.0,0.0,0.0,0.0,0.0,0.0,0.0,0.0,0.0,0.0,0.0,0.0,0.0,0.0,-0.0941,-0.1685,-0.1841,-0.3595,-0.4766,-0.496,-0.5825,-0.63,-0.63,-0.63,-0.63,-0.63,-0.6518,-0.7262,-0.8537,-0.9868,-1.1198,-1.2456,-1.3584,-1.4088,1.9678,2.0076,2.059,2.059,2.059,2.0794,2.155,2.1194,2.0487,1.9731,1.9065,1.8655,1.8655,1.861,1.8657,1.9035,1.9299,1.9341,1.8934,1.9178,1.9424,1.9424,1.9424,1.9305,1.9152,1.9005,1.8738,1.8297,1.8075,1.7922,1.7816,1.7662,1.7582,1.7582,1.7582,1.7252,1.6552,1.5097,1.3696,1.224,1.0731,0.9644,0.8885,0.8885,0.8885,0.8885,0.8885,0.8885,0.8885,0.8885,0.8885,0.8875,0.8797,0.8818,0.8811,0.873,0.8703,0.8592,0.7882,0.7082,0.6175,0.479,0.4239,0.3975,0.3265,0.3052,0.2914,0.2213,0.1037,0.0,0.0,0.0,0.0,0.0,0.0,0.0,0.0,0.0,0.0,0.0,0.0,0.0,0.0,0.0,0.0,0.0,0.0,0.0,0.0,0.0,0.0,0.0,-0.0471,-0.098,-0.1568,-0.2504,-0.3556,-0.4649,-0.5196,-0.5709,-0.6261,-0.63,-0.63,-0.63,-0.63,-0.6911,-0.8211,-0.8861,-1.0161,-1.2135,-1.2767,-1.3419,1.7891,1.8349,1.9169,1.9169,1.9169,1.9472,2.0582,2.0837,2.0487,1.942,1.9169,1.9169,1.9169,1.8558,1.838,1.9406,1.9146,1.8795,1.8704,1.9045,1.9252,1.9185,1.9239,0.0,1.8858,1.8771,0.0,1.8029,1.7935,1.7842,1.7595,1.7582,1.7582,1.7582,1.7582,1.7582,1.7582,1.6121,1.4716,1.3264,1.181,1.0351,0.8885,0.8885,0.8885,0.8881,0.8848,0.8834,0.8834,0.8801,0.8842,0.8828,0.871,0.8662,0.8648,0.8526,0.8482,0.8482,0.8482,0.7725,0.6747,0.6725,0.6372,0.5811,0.4724,0.4403,0.4168,0.2815,0.147,0.0381,0.0095,0.0,0.0,0.0,0.0,0.0,0.0,0.0,0.0,0.0,0.0,0.0,0.0,0.0,0.0,0.0,0.0,0.0,0.0,0.0,0.0,0.0,0.0,-0.0353,-0.1176,-0.145,-0.2387,-0.4256,-0.4569,-0.5196,-0.6261,-0.63,-0.63,-0.63,-0.63,-0.678,-0.7801,-0.8076,-0.9266,-1.1335,-1.1852,-1.2696,1.7635,1.7687,1.7786,1.7786,1.7786,1.7838,1.7943,1.7996,1.7937,1.7786,1.7786,1.7786,1.7786,1.8655,1.9079,1.7978,1.9021,1.9502,1.8279,1.8555,1.8865,1.8604,0.0,0.0,1.8557,1.8283,1.8049,1.7995,1.7782,1.7609,1.7582,1.7582,1.7582,1.7582,1.7582,1.7582,1.7582,1.6121,1.4716,1.3264,1.181,1.0351,0.8885,0.8885,0.8885,0.8875,0.8791,0.873,0.0,0.8581,0.8523,0.8523,0.8509,0.8503,0.8503,0.8486,0.8482,0.8482,0.8482,0.832,0.814,0.813,0.7161,0.5967,0.5839,0.5815,0.5525,0.4218,0.2838,0.1523,0.0333,0.0,0.0,0.0,0.0,0.0,0.0,0.0,0.0,0.0,0.0,0.0,0.0,0.0,0.0,0.0,0.0,0.0,0.0,0.0,0.0,0.0,0.0,-0.0039,-0.0157,-0.1059,-0.2074,-0.3163,-0.4178,-0.5196,-0.6261,-0.63,-0.63,-0.63,-0.63,-0.6345,-0.6472,-0.7623,-0.8395,-0.8796,-1.1059,-1.2218,1.7582,1.7582,1.7582,1.7582,1.7582,1.7582,1.7582,1.7582,1.7582,1.7582,1.7582,1.7582,1.7582,1.8042,1.8199,1.7687,1.8309,0.0,1.8097,1.8404,1.8617,1.8504,1.8591,1.8544,0.0,0.0,1.7916,1.7782,1.7655,1.7582,1.7582,1.7582,1.7582,1.7582,1.7582,1.7582,1.7582,1.7041,1.5583,1.3264,1.2724,1.1214,0.8885,0.8885,0.8834,0.8798,0.8737,0.8659,0.0,0.8506,0.8482,0.8472,0.8387,0.8357,0.8343,0.8252,0.8218,0.8218,0.8218,0.814,0.811,0.811,0.7686,0.7202,0.7191,0.6625,0.5715,0.4362,0.3058,0.1708,0.0329,0.0,0.0,0.0,0.0,0.0,0.0,0.0,0.0,0.0,0.0,0.0,0.0,0.0,0.0,0.0,0.0,0.0,0.0,0.0,0.0,0.0,0.0,0.0,0.0,-0.0392,-0.1097,-0.2113,-0.3164,-0.4217,-0.5276,-0.5944,-0.63,-0.63,-0.63,-0.63,-0.63,-0.6819,-0.7529,-0.8442,-1.0162,-1.1443,1.7582,1.7582,1.7582,1.7582,1.7582,1.7582,1.7582,1.7582,1.7582,1.7582,1.7582,1.7582,1.7582,1.7582,1.7582,0.0,0.0,1.7856,1.7856,1.817,1.8323,1.823,0.0,1.8243,1.7889,1.7856,1.7816,1.7602,1.7582,1.7582,1.7582,1.7582,1.7582,1.7582,1.7582,1.7582,1.7582,1.7582,1.6174,1.3318,1.3318,1.1755,0.8881,0.8838,0.8811,0.8706,0.8618,0.852,0.0,0.837,0.835,0.834,0.8241,0.8204,0.8187,0.8029,0.7988,0.7988,0.7988,0.7988,0.7988,0.7988,0.7988,0.7982,0.7934,0.7273,0.6259,0.4903,0.3267,0.1738,0.0783,0.0272,0.0,0.0,0.0,0.0,0.0,0.0,0.0,0.0,0.0,0.0,0.0,0.0,0.0,0.0,0.0,0.0,0.0,0.0,0.0,0.0,0.0,0.0,0.0,0.0,-0.0471,-0.1528,-0.254,-0.3591,-0.4647,-0.5747,-0.63,-0.63,-0.63,-0.63,-0.63,-0.63,-0.6839,-0.7914,-0.9095,-1.06,1.7582,1.7582,1.7582,1.7582,1.7582,1.7582,1.7582,1.7582,1.7582,1.7582,1.7582,1.7582,1.7582,1.7582,1.7582,1.7582,1.7589,0.0,1.7589,1.7856,1.7936,0.0,1.7862,1.7876,1.7615,1.7589,1.7589,1.7582,1.7582,0.0,1.7582,1.7582,1.7582,1.7582,1.7582,1.7582,1.7582,1.7582,1.6174,1.3318,1.3318,1.1755,0.8878,0.8781,0.8713,0.8696,0.8401,0.8327,0.0,0.8106,0.7995,0.7995,0.7992,0.7992,0.7992,0.7988,0.7988,0.7988,0.7988,0.7988,0.7988,0.7988,0.7988,0.7961,0.7862,0.7811,0.7517,0.6152,0.3849,0.1793,0.18,0.0897,0.0,0.0,0.0,0.0,0.0,0.0,0.0,0.0,0.0,0.0,0.0,0.0,0.0,0.0,0.0,0.0,0.0,0.0,0.0,0.0,0.0,0.0,0.0,0.0,-0.0471,-0.1528,-0.254,-0.3591,-0.4647,-0.5747,-0.63,-0.63,-0.63,-0.63,-0.63,-0.63,-0.6453,-0.6743,-0.7877,-0.9802,1.7582,1.7582,1.7582,1.7582,1.7582,1.7582,1.7582,1.7582,1.7582,1.7582,1.7582,1.7582,1.7582,1.7582,1.7582,1.7582,1.7582,0.0,0.0,0.0,0.0,1.7595,1.7669,1.7689,0.0,0.0,1.7582,1.7582,1.7582,1.7582,1.7582,1.7582,1.7582,1.7582,1.7582,1.7582,1.7582,1.7582,1.6664,1.4716,1.4716,1.375,1.191,1.1652,1.0966,1.0048,0.9713,0.9004,0.8109,0.8008,0.7988,0.7988,0.7988,0.7988,0.7988,0.7988,0.7988,0.7988,0.7988,0.7939,0.7865,0.7879,0.7794,0.7729,0.7682,0.7733,0.7478,0.6053,0.3779,0.1805,0.1793,0.0897,0.0,0.0,0.0,0.0,0.0,0.0,0.0,0.0,0.0,0.0,0.0,0.0,0.0,0.0,0.0,0.0,0.0,0.0,0.0,0.0,0.0,0.0,0.0,0.0,-0.0157,-0.0471,-0.1488,-0.2542,-0.3552,-0.4647,-0.555,-0.63,-0.63,-0.63,-0.63,-0.6399,-0.7002,-0.8106,-0.932,-1.0767,1.7555,1.7582,1.7582,1.7582,1.7582,1.7582,1.7582,1.7582,1.7582,1.7582,1.7582,1.7582,1.7582,1.7582,1.7582,1.7582,1.7582,1.7582,0.0,0.0,0.0,1.7582,1.7582,0.0,0.0,1.7582,1.7582,1.7582,1.7582,1.7582,1.7582,1.7582,1.7582,1.7582,1.7582,1.7582,1.7582,1.7582,1.6876,1.5417,1.5417,1.4613,1.308,1.2853,1.1907,1.0476,1.0243,0.9306,0.0,0.7988,0.7988,0.7988,0.7988,0.7988,0.7988,0.7988,0.7955,0.7914,0.7918,0.7839,0.7742,0.7743,0.7624,0.7512,0.7512,0.7577,0.7453,0.6433,0.4737,0.3038,0.2592,0.1567,0.0584,0.009,0.0,0.0,0.0,0.0,0.0,0.0,0.0,0.0,0.0,0.0,0.0,0.0,0.0,0.0,0.0,0.0,0.0,0.0,0.0,0.0,0.0,0.0,0.0,0.0,-0.0994,-0.2054,-0.3047,-0.4139,-0.5198,-0.6261,-0.63,-0.6327,-0.6381,-0.6546,-0.711,-0.8067,-0.9354,-1.0567,0.0,1.7569,1.7582,1.7582,1.7582,1.7582,1.7582,1.7687,0.0,1.774,1.7838,1.7884,1.7884,1.7884,1.7884,1.7884,1.7884,1.7838,0.0,1.7687,0.0,0.0,1.7687,0.0,1.7733,1.7687,1.7582,1.7582,1.7582,1.7582,1.7582,1.7582,1.7582,1.7582,1.7582,1.7582,1.7582,1.7582,1.6929,1.5577,1.5577,1.4694,1.3136,1.2957,1.1962,0.0,1.0222,0.9312,0.7988,0.7988,0.7988,0.7988,0.7988,0.7988,0.7988,0.7978,0.7884,0.7783,0.7809,0.768,0.7587,0.7581,0.7485,0.7402,0.7402,0.7402,0.7326,0.7136,0.6293,0.5134,0.3927,0.2726,0.1478,0.0269,0.0,0.0,0.0,0.0,0.0,0.0,0.0,0.0,0.0,0.0,0.0,0.0,0.0,0.0,0.0,0.0,0.0,0.0,0.0,0.0,0.0,0.0,0.0,0.0,-0.0937,-0.1933,-0.2946,-0.4042,-0.5107,-0.6175,-0.6291,-0.6402,-0.6545,-0.679,-0.6889,-0.6946,-0.8293,-0.9449,1.7219,0.0,1.7582,1.7582,1.7582,1.7582,0.0,1.8401,1.9117,0.0,1.9973,2.0735,2.0735,2.0735,2.0735,2.0735,2.0735,2.0385,1.9272,1.8251,1.7996,1.902,1.8199,1.7989,1.902,1.8199,1.7582,1.7582,1.7582,1.7582,1.7582,1.7582,1.7582,1.7582,1.7582,1.7582,1.7582,1.7582,1.7417,1.7094,1.7094,1.6781,1.6188,1.5853,1.4306,1.1864,1.1604,1.0141,0.7988,0.7988,0.7988,0.7988,0.7988,0.7988,0.7975,0.7909,0.7841,0.7801,0.7678,0.757,0.7429,0.7278,0.7204,0.7149,0.7149,0.7149,0.7142,0.7105,0.6293,0.5134,0.3927,0.2726,0.1478,0.0269,0.0,0.0,0.0,0.0,0.0,0.0,0.0,0.0,0.0,0.0,0.0,0.0,0.0,0.0,0.0,0.0,0.0,0.0,0.0,0.0,0.0,0.0,0.0,0.0,-0.0251,-0.0832,-0.1898,-0.3092,-0.4205,-0.5197,-0.6144,-0.6671,-0.682,-0.6852,-0.6943,-0.7092,-0.8305,-0.9065,1.6867,1.7261,1.7582,1.7582,1.7582,1.7733,1.8401,1.9065,1.9775,0.0,2.1194,2.1702,2.1702,2.1702,2.1702,2.1702,2.1702,0.0,0.0,1.9922,1.9517,1.9576,1.8968,1.8558,0.0,1.8048,1.7582,1.7582,1.7582,1.7582,1.7582,1.7582,1.7582,1.7582,1.7582,1.7582,1.7582,1.7582,1.7582,1.7582,1.7501,1.728,1.6934,1.664,1.4943,1.2171,1.2001,1.0435,0.7988,0.7988,0.7988,0.7988,0.7988,0.7948,0.7877,0.7841,0.7726,0.7607,0.7553,0.7422,0.724,0.7132,0.7095,0.7095,0.7095,0.7095,0.7095,0.7095,0.665,0.5891,0.473,0.3527,0.2324,0.1121,0.0404,0.0,0.0,0.0,0.0,0.0,0.0,0.0,0.0,0.0,0.0,0.0,0.0,0.0,0.0,0.0,0.0,0.0,0.0,0.0,0.0,0.0,0.0,0.0,0.0,-0.0468,-0.1552,-0.2765,-0.4145,-0.5696,-0.6431,-0.6848,-0.6886,-0.695,-0.7021,-0.7095,-0.7753,-0.8364,1.6573,1.7187,1.7769,1.7809,1.806,1.8499,1.9672,2.0084,0.0,0.0,0.0,2.2316,2.2316,2.2316,2.2316,2.2316,2.2156,2.2005,2.2005,2.1853,2.1245,2.0084,1.9731,0.0,1.8042,1.774,1.7582,1.7582,1.7582,1.7582,1.7582,1.7582,1.7582,1.7582,1.7542,1.7515,1.7515,1.7562,1.7562,1.7515,1.732,1.7018,1.6627,1.6386,1.4674,1.1896,0.0,0.0,0.7988,0.7988,0.7988,0.7988,0.7988,0.7897,0.7811,0.7787,0.7611,0.7394,0.7353,0.7265,0.7095,0.7095,0.7095,0.7095,0.7095,0.7095,0.7095,0.7095,0.7095,0.6827,0.5716,0.4508,0.3303,0.2102,0.0897,0.0,0.0,0.0,0.0,0.0,0.0,0.0,0.0,0.0,0.0,0.0,0.0,0.0,0.0,0.0,0.0,0.0,0.0,0.0,0.0,0.0,0.0,0.0,0.0,-0.0476,-0.1568,-0.2793,-0.4398,-0.6473,-0.6767,-0.6916,-0.6916,-0.7038,-0.7095,-0.7095,-0.7095,-0.7665,1.6326,1.7358,1.8474,1.8853,2.0022,2.1143,2.1347,2.2265,2.3126,0.0,0.0,0.0,0.0,2.5079,2.5079,2.5079,2.4146,2.3384,0.0,0.0,2.16,2.1397,0.0,1.9531,1.9324,1.8251,1.7582,1.7582,1.7582,1.7582,1.7582,1.7582,1.7582,1.7582,1.7393,1.7266,1.7266,1.7514,1.7514,1.7266,1.7226,1.6918,1.6339,1.6342,1.4674,1.1896,0.0,1.0435,0.7988,0.7988,0.7988,0.7988,0.7988,0.7897,0.7797,0.7678,0.7546,0.7361,0.7216,0.7136,0.7095,0.7095,0.7095,0.7095,0.7095,0.7095,0.7095,0.7095,0.7095,0.6827,0.5716,0.4508,0.3303,0.2102,0.0897,0.0,0.0,0.0,0.0,0.0,0.0,0.0,0.0,0.0,0.0,0.0,0.0,0.0,0.0,0.0,0.0,0.0,0.0,0.0,0.0,0.0,0.0,0.0,0.0,-0.0535,-0.1729,-0.2919,-0.42,-0.5571,-0.6565,-0.7065,-0.7065,-0.7085,-0.7095,-0.7095,-0.7095,-0.7183,1.688,1.818,1.9654,2.0743,2.1197,2.1603,2.2574,2.3276,2.3899,0.0,0.0,0.0,0.0,2.5693,2.5693,2.5693,2.5177,2.4766,2.4766,2.4254,2.3583,0.0,0.0,2.1558,2.0794,1.936,1.8458,1.8458,1.7651,1.7108,1.7108,1.7108,1.7108,1.7108,1.6974,1.6907,1.6907,1.7041,1.7041,1.6907,1.6797,1.6583,1.6266,1.6106,1.4925,1.2958,0.0,1.0828,0.9019,0.8287,0.7988,0.7982,0.7897,0.7828,0.7668,0.7438,0.7274,0.722,0.7129,0.7095,0.7095,0.7095,0.7095,0.7095,0.7095,0.7095,0.7095,0.7095,0.7095,0.6962,0.6473,0.4952,0.3481,0.2903,0.1344,0.0,0.0,0.0,0.0,0.0,0.0,0.0,0.0,0.0,0.0,0.0,0.0,0.0,0.0,0.0,0.0,0.0,0.0,0.0,0.0,0.0,0.0,0.0,0.0,-0.0539,-0.1746,-0.2948,-0.415,-0.5359,-0.6517,-0.7095,-0.7095,-0.7095,-0.7095,-0.7095,-0.7095,-0.7095,1.7412,1.9009,2.0728,2.2127,2.2192,2.2339,2.3848,2.4146,2.4461,2.5489,0.0,0.0,2.5693,2.5693,2.5693,2.5693,2.5693,2.5693,2.5693,2.5596,2.5072,2.3704,2.3466,2.2862,2.1553,2.0211,1.9472,1.9472,1.801,1.7143,1.7143,1.685,1.6707,1.6707,1.664,1.6607,1.6607,1.6533,1.6533,1.66,1.638,1.6239,1.6159,1.5932,1.5092,1.3824,1.2479,1.117,0.9903,0.8528,0.7988,0.7975,0.7872,0.7702,0.7512,0.7196,0.7095,0.7095,0.7095,0.7095,0.7095,0.7095,0.7095,0.7095,0.7095,0.7095,0.7095,0.7095,0.7095,0.7095,0.7095,0.5351,0.3614,0.3614,0.1745,0.0,0.0,0.0,0.0,0.0,0.0,0.0,0.0,0.0,0.0,0.0,0.0,0.0,0.0,0.0,0.0,0.0,0.0,0.0,0.0,0.0,0.0,0.0,0.0,-0.0404,-0.1344,-0.2815,-0.4016,-0.4954,-0.6381,-0.7095,-0.7095,-0.7095,-0.7095,-0.7095,-0.7095,-0.7095,1.7692,1.9422,2.1347,2.1916,2.3448,2.4938,2.5431,2.5586,2.5586,2.5684,0.0,0.0,0.0,2.5693,2.5693,2.5693,2.5693,2.5693,2.5693,0.0,2.4612,2.3229,2.2712,2.1965,2.0604,2.0386,2.0321,2.0321,1.9097,1.8361,1.8361,1.7292,1.6707,1.6707,1.6446,1.6355,1.6355,1.6032,1.6032,1.6355,1.6335,1.6126,1.5858,1.5791,1.5092,1.3824,1.2479,1.117,0.9903,0.8528,0.7988,0.7975,0.7872,0.7638,0.7366,0.7156,0.7095,0.7095,0.7095,0.7095,0.7095,0.7095,0.7095,0.7095,0.7095,0.7095,0.7095,0.7095,0.7095,0.7095,0.7095,0.5351,0.3614,0.3614,0.1745,0.0,0.0,0.0,0.0,0.0,0.0,0.0,0.0,0.0,0.0,0.0,0.0,0.0,0.0,0.0,0.0,0.0,0.0,0.0,0.0,0.0,0.0,0.0,0.0,-0.0045,-0.0135,-0.237,-0.3659,-0.3748,-0.5933,-0.7095,-0.7095,-0.7095,-0.7095,-0.7095,-0.7095,-0.7095,1.8634,2.0034,2.1571,2.2789,2.3705,2.4453,2.5166,2.5537,2.5693,2.5693,2.5693,0.0,0.0,2.5508,2.5322,2.5322,2.5098,2.4865,2.4865,2.4775,2.4472,2.3928,2.3748,2.3458,2.2924,2.1995,2.1386,2.1386,1.9986,1.8785,1.805,1.7581,1.6966,1.6159,1.6052,1.5999,1.5999,1.5838,1.5838,1.5999,1.5999,1.5939,1.5784,1.5784,1.5534,1.4949,1.2818,1.1604,1.1023,0.8874,0.7934,0.7875,0.7631,0.7411,0.7221,0.7119,0.7095,0.7095,0.7095,0.7095,0.7095,0.7095,0.7095,0.7095,0.7095,0.7095,0.7095,0.7095,0.7095,0.7095,0.7095,0.5351,0.3614,0.3614,0.1745,0.0,0.0,0.0,0.0,0.0,0.0,0.0,0.0,0.0,0.0,0.0,0.0,0.0,0.0,0.0,0.0,0.0,0.0,0.0,0.0,0.0,0.0,0.0,0.0,0.0,0.0,-0.2324,-0.3614,-0.3614,-0.5888,-0.7095,-0.7095,-0.7095,-0.7095,-0.7095,-0.7095,-0.7095,1.9268,2.0674,2.2141,2.3274,0.0,0.0,2.4531,2.5107,2.5527,2.5527,2.5372,2.5274,2.5274,0.0,0.0,0.0,2.4609,2.4414,2.4414,2.4307,2.4219,2.4219,2.4102,2.3968,2.3968,2.3009,2.2343,2.2343,2.0922,1.9542,1.8319,1.7917,1.7131,1.5825,1.5784,1.5784,1.5784,1.5784,1.5784,1.5784,1.5784,1.5784,1.5784,1.5784,1.5784,1.5635,1.306,1.1896,1.1702,0.9065,0.7874,0.7719,0.7468,0.7278,0.7095,0.7095,0.7095,0.7095,0.7095,0.7095,0.7095,0.7095,0.7095,0.7095,0.7095,0.7095,0.7095,0.7095,0.7095,0.7095,0.7095,0.562,0.4061,0.3703,0.2057,0.0449,0.009,0.0,0.0,0.0,0.0,0.0,0.0,0.0,0.0,0.0,0.0,0.0,0.0,0.0,0.0,0.0,0.0,0.0,0.0,0.0,0.0,0.0,0.0,0.0,0.0,-0.2324,-0.3614,-0.3614,-0.5888,-0.7095,-0.7095,-0.7095,-0.7095,-0.7095,-0.7095,-0.7095,1.9497,2.1266,2.3101,2.3091,2.3467,2.3779,2.3789,2.4453,2.5106,2.5106,2.4717,2.4414,2.4414,2.4414,0.0,2.4414,2.4404,2.4404,2.4404,2.4043,2.3779,2.3779,2.3398,2.3091,2.3091,2.3091,2.3091,2.3091,2.1987,2.08,1.9579,1.8365,1.7131,1.5879,1.5832,1.5784,1.5784,1.5784,1.5784,1.5784,1.5784,1.5784,1.5784,1.5784,1.5784,1.5683,1.3065,1.1901,1.1702,0.9065,0.7865,0.7584,0.7477,0.7275,0.7095,0.7095,0.7095,0.7095,0.7095,0.7095,0.7095,0.7095,0.7095,0.7095,0.7095,0.7095,0.7095,0.7095,0.7095,0.7095,0.7095,0.6248,0.509,0.3881,0.2681,0.1478,0.0269,0.0,0.0,0.0,0.0,0.0,0.0,0.0,0.0,0.0,0.0,0.0,0.0,0.0,0.0,0.0,0.0,0.0,0.0,0.0,0.0,0.0,0.0,0.0,0.0,-0.2324,-0.3614,-0.3614,-0.5888,-0.7095,-0.7095,-0.7095,-0.7095,-0.7095,-0.7095,-0.7095,1.9268,2.0621,2.2031,2.2906,2.3188,2.3408,2.3721,2.4219,0.0,0.0,2.4502,2.4414,2.4414,2.418,0.0,2.3975,2.3721,2.3471,2.3471,2.3364,2.3286,2.3286,2.3169,2.3091,2.3091,2.3091,2.3091,2.3091,2.2775,2.2031,2.0845,1.9625,1.8403,1.7178,1.6244,1.5784,1.5784,1.5784,1.5784,1.5784,1.5784,1.5784,1.5784,1.5784,1.5784,1.573,1.4028,1.2764,1.1682,0.8864,0.8186,0.8803,0.7663,0.7136,0.7095,0.7095,0.7095,0.7095,0.7095,0.7095,0.7095,0.7095,0.7095,0.7095,0.7095,0.7095,0.7095,0.7095,0.7095,0.7095,0.7095,0.683,0.6068,0.4059,0.2681,0.1478,0.0269,0.0,0.0,0.0,0.0,0.0,0.0,0.0,0.0,0.0,0.0,0.0,0.0,0.0,0.0,0.0,0.0,0.0,0.0,0.0,0.0,0.0,0.0,0.0,0.0,-0.2324,-0.3614,-0.3614,-0.5888,-0.7095,-0.7095,-0.7095,-0.7095,-0.7095,-0.7095,-0.7095,1.9314,2.0711,2.2164,2.2906,2.3091,2.3169,2.3467,2.3857,2.417,2.417,2.4033,2.3861,2.3861,2.3701,0.0,2.3525,2.3266,2.3091,2.3091,2.3091,2.3091,2.3091,2.3091,2.3091,2.3091,2.3091,2.3091,2.3091,2.3091,2.258,2.1337,2.0612,1.9451,1.7731,1.6943,1.6292,1.5784,1.5784,1.5784,1.5784,1.5784,1.5784,1.5784,1.5784,1.5784,1.5683,1.3878,1.2566,1.1538,0.8725,0.8296,0.9196,0.7674,0.7095,0.7095,0.7095,0.7095,0.7095,0.7095,0.7095,0.7095,0.7095,0.7095,0.7095,0.7095,0.7095,0.7095,0.7095,0.7095,0.7095,0.7095,0.7095,0.6514,0.4148,0.3037,0.2057,0.0359,0.0,0.0,0.0,0.0,0.0,0.0,0.0,0.0,0.0,0.0,0.0,0.0,0.0,0.0,0.0,0.0,0.0,0.0,0.0,0.0,0.0,0.0,0.0,0.0,-0.2324,-0.3614,-0.3614,-0.5888,-0.7095,-0.7095,-0.7095,-0.7095,-0.7095,-0.7095,-0.7095,1.9488,2.1177,2.296,2.3047,2.3091,2.3091,2.3091,2.3447,2.373,2.373,0.0,2.3091,2.3091,2.3091,2.3081,2.3042,2.3042,2.3023,2.2984,2.2984,2.2984,2.2984,2.2984,2.2984,2.2984,2.2984,2.2984,2.2984,2.2984,2.2518,2.1415,2.1229,2.0219,1.8049,1.7732,1.7102,1.5967,1.5879,1.5784,1.5784,1.5784,1.5784,1.5784,1.5784,1.5784,1.5683,1.3134,1.1985,1.1623,0.8898,0.836,0.9135,0.7682,0.7095,0.7095,0.7095,0.7095,0.7095,0.7095,0.7095,0.7095,0.7095,0.7095,0.7095,0.7095,0.7095,0.7095,0.7095,0.7095,0.7095,0.7095,0.7095,0.6514,0.4148,0.3614,0.2948,0.0539,0.0,0.0,0.0,0.0,0.0,0.0,0.0,0.0,0.0,0.0,0.0,0.0,0.0,0.0,0.0,0.0,0.0,0.0,0.0,0.0,0.0,0.0,0.0,0.0,-0.2324,-0.3614,-0.3614,-0.5888,-0.7095,-0.7095,-0.7095,-0.7095,-0.7095,-0.7095,-0.7095,1.9222,2.0576,2.1889,2.2862,2.3091,2.3091,2.3091,2.3169,2.3237,2.3237,2.3159,2.3091,2.3091,2.3091,2.2984,2.2705,2.2646,2.2529,2.2197,2.2158,2.2158,2.2158,2.2158,2.2158,2.2158,2.2158,2.2158,2.2158,2.2158,2.2023,2.1803,2.0817,2.0207,2.0034,1.8171,1.7178,1.7311,1.6292,1.5784,1.5784,1.5784,1.5784,1.5784,1.5784,1.5784,1.5717,1.3856,1.3637,1.4263,1.0401,0.9506,1.0429,0.8034,0.7095,0.7095,0.7095,0.7095,0.7095,0.7095,0.7095,0.7095,0.7095,0.7095,0.7095,0.7095,0.7095,0.7095,0.7095,0.7095,0.7095,0.7095,0.7095,0.6514,0.4148,0.3614,0.2948,0.0539,0.0,0.0,0.0,0.0,0.0,0.0,0.0,0.0,0.0,0.0,0.0,0.0,0.0,0.0,0.0,0.0,0.0,0.0,0.0,0.0,0.0,0.0,0.0,0.0,-0.2324,-0.3614,-0.3614,-0.5888,-0.7095,-0.7095,-0.7095,-0.7095,-0.7095,-0.7095,-0.7095,1.9177,2.0395,2.1569,2.2818,2.3091,2.3091,2.3091,2.3091,2.3091,2.3091,2.3091,2.3033,2.2838,2.2789,2.2705,2.2275,2.2207,2.2139,2.1914,2.1885,2.1885,2.1885,2.1885,2.1885,2.1885,2.1885,2.1885,2.1885,2.1885,2.1885,2.1885,2.1265,2.0745,2.0375,1.9328,1.8319,1.7392,1.6911,1.6386,1.5784,1.5784,1.5784,1.5784,1.5784,1.5784,1.5724,1.4265,1.4325,1.5074,1.0958,1.0003,1.084,0.8167,0.7095,0.7095,0.7095,0.7095,0.7095,0.7095,0.7095,0.7095,0.7095,0.7095,0.7095,0.7095,0.7095,0.7095,0.7095,0.7095,0.7095,0.7095,0.7095,0.6514,0.4148,0.3614,0.2948,0.0539,0.0,0.0,0.0,0.0,0.0,0.0,0.0,0.0,0.0,0.0,0.0,0.0,0.0,0.0,0.0,0.0,0.0,0.0,0.0,0.0,0.0,0.0,0.0,0.0,-0.1745,-0.2992,-0.357,-0.5888,-0.7095,-0.7095,-0.7095,-0.7095,-0.7095,-0.7095,-0.7095,1.891,2.0215,2.1569,2.2818,2.3091,2.3091,2.3091,2.3091,2.3071,2.3003,2.2984,2.2877,2.2578,2.2451,2.2266,2.1846,2.1777,2.1748,2.1711,2.1701,2.1701,2.1701,2.1701,2.1701,2.1701,2.1701,2.1701,2.1701,2.1701,2.1701,2.1701,2.1701,2.1208,2.0231,2.0379,1.9565,1.7649,1.7583,1.7073,1.6109,1.5927,1.5784,1.5784,1.5784,1.5784,1.573,1.4655,1.4653,1.5127,1.1543,1.0476,1.0855,0.84,0.7279,0.7095,0.7095,0.7095,0.7095,0.7095,0.7095,0.7095,0.7095,0.7095,0.7095,0.7095,0.7095,0.7095,0.7095,0.7095,0.7095,0.7095,0.7095,0.6558,0.4417,0.3748,0.2948,0.0539,0.0,0.0,0.0,0.0,0.0,0.0,0.0,0.0,0.0,0.0,0.0,0.0,0.0,0.0,0.0,0.0,0.0,0.0,0.0,0.0,0.0,0.0,0.0,0.0,-0.1165,-0.237,-0.357,-0.5711,-0.6918,-0.7095,-0.7095,-0.7095,-0.7095,-0.7095,-0.7095,1.7917,1.9579,2.1569,2.2818,2.3091,2.3091,2.3091,2.3091,2.2994,0.0,2.2598,2.2578,2.2519,2.2217,2.1826,2.1356,2.1278,2.1182,2.084,2.0781,2.0781,2.0781,2.0781,2.0781,2.0781,2.0781,2.0781,2.0781,2.0781,2.0781,2.0781,2.0781,2.0878,2.1007,2.0099,1.9769,2.0219,1.8145,1.7202,1.7412,1.6339,1.5784,1.5784,1.5784,1.5784,1.5764,1.5371,1.5286,1.5259,1.3198,1.1865,1.0949,0.9283,0.8011,0.7095,0.7095,0.7095,0.7095,0.7095,0.7095,0.7095,0.7095,0.7095,0.7095,0.7095,0.7095,0.7095,0.7095,0.7095,0.7095,0.7095,0.7095,0.6782,0.5492,0.4374,0.2948,0.0539,0.0,0.0,0.0,0.0,0.0,0.0,0.0,0.0,0.0,0.0,0.0,0.0,0.0,0.0,0.0,0.0,0.0,0.0,0.0,0.0,0.0,0.0,0.0,0.0,-0.1165,-0.237,-0.357,-0.4954,-0.6115,-0.7095,-0.7095,-0.7095,-0.7095,-0.7095,-0.7095,1.7505,1.9303,2.1109,2.1609,2.2074,2.2441,2.2441,2.2441,2.2383,2.2197,2.1963,2.1756,2.1756,2.1641,2.1377,2.0928,2.0859,2.0791,2.0635,2.0605,2.0605,2.0605,2.0605,2.0605,2.0605,2.0605,2.0605,2.0605,2.0605,2.0605,2.0605,2.0605,2.0693,2.0859,2.0554,2.0259,1.9964,1.8649,1.7561,1.6622,1.6062,1.5784,1.5771,1.5658,1.5671,1.5771,1.5698,1.5638,1.5504,1.3726,1.2327,1.1143,0.9513,0.8147,0.7095,0.7095,0.7095,0.7095,0.7095,0.7095,0.7095,0.7095,0.7095,0.7095,0.7095,0.7095,0.7095,0.7095,0.7095,0.7095,0.7095,0.7095,0.6827,0.5669,0.4463,0.3126,0.1389,0.0494,0.0,0.0,0.0,0.0,0.0,0.0,0.0,0.0,0.0,0.0,0.0,0.0,0.0,0.0,0.0,0.0,0.0,0.0,0.0,0.0,0.0,0.0,0.0,-0.0494,-0.1344,-0.2547,-0.4421,-0.5983,-0.7095,-0.7095,-0.7095,-0.7095,-0.7095,-0.7095,1.7233,1.8599,1.9861,2.0433,2.1001,2.1534,2.1843,0.0,2.1855,0.0,2.1455,2.1161,2.1084,2.1064,2.0957,2.0664,2.0605,2.0605,2.0605,2.0605,2.0605,2.0605,2.0605,2.0605,2.0605,2.0605,2.0605,2.0605,2.0605,2.0605,2.0605,2.0605,2.0605,2.0605,2.0889,2.0654,1.9879,1.9152,1.787,1.6074,1.5806,1.5718,1.5712,1.5418,1.5404,1.5611,1.5611,1.5611,1.5485,1.4118,1.2694,1.1282,0.9862,0.8404,0.7095,0.7095,0.7095,0.7095,0.7095,0.7095,0.7095,0.7095,0.7095,0.7095,0.7095,0.7095,0.7095,0.7095,0.7095,0.7095,0.7095,0.7095,0.6874,0.6027,0.4685,0.317,0.1656,0.0628,0.0,0.0,0.0,0.0,0.0,0.0,0.0,0.0,0.0,0.0,0.0,0.0,0.0,0.0,0.0,0.0,0.0,0.0,0.0,0.0,0.0,0.0,0.0,0.0,-0.0584,-0.179,-0.3885,-0.5489,-0.665,-0.6962,-0.7095,-0.7095,-0.7095,-0.7095,1.6919,1.7122,1.7522,1.9673,2.0256,2.0559,0.0,0.0,2.1768,2.1317,2.121,2.1064,2.0713,2.0635,2.0635,2.0605,2.0605,2.0605,2.0605,2.0605,2.0605,2.0605,2.0605,2.0605,2.0605,2.0605,2.0605,2.0605,2.0605,2.0605,2.0605,2.0605,2.0605,2.0605,2.0625,2.0761,2.11,1.9591,1.815,1.6919,1.5904,1.5418,1.5411,1.5117,1.5042,1.5055,1.5055,1.5055,1.499,1.4592,1.3099,1.1088,1.0675,0.913,0.7095,0.7095,0.7095,0.7095,0.7095,0.7095,0.7095,0.7095,0.7095,0.7095,0.7095,0.7095,0.7095,0.7095,0.7095,0.7095,0.7095,0.7095,0.7095,0.7007,0.5262,0.2948,0.0583,0.0045,0.0,0.0,0.0,0.0,0.0,0.0,0.0,0.0,0.0,0.0,0.0,0.0,0.0,0.0,0.0,0.0,0.0,0.0,0.0,0.0,0.0,0.0,0.0,0.0,-0.0584,-0.179,-0.3037,-0.4283,-0.5492,-0.6561,-0.7095,-0.7095,-0.7095,-0.7095,1.5978,1.6362,1.6798,1.7429,1.8504,1.9543,1.9966,2.0587,2.1036,2.084,2.0801,2.0752,2.0635,2.0605,2.0605,2.0605,2.0605,2.0605,2.0605,2.0605,2.0605,2.0605,2.0605,2.0605,2.0605,2.0605,2.0605,2.0605,2.0605,2.0605,2.0605,2.0605,2.0605,2.0605,2.0605,2.0408,2.0042,1.9481,1.8366,1.6721,1.6328,1.5812,1.511,1.4816,1.4676,1.4669,1.4482,1.466,1.4957,1.4634,1.3165,1.1073,1.074,0.9182,0.7095,0.7095,0.7095,0.7095,0.7095,0.7095,0.7095,0.7095,0.7095,0.7095,0.7095,0.7095,0.7095,0.7095,0.7095,0.7095,0.7095,0.7095,0.6735,0.5218,0.4194,0.2948,0.0539,0.0,0.0,0.0,0.0,0.0,0.0,0.0,0.0,0.0,0.0,0.0,0.0,0.0,0.0,0.0,0.0,0.0,0.0,0.0,0.0,0.0,0.0,0.0,0.0,0.0,-0.0225,-0.0628,-0.1835,-0.3439,-0.5403,-0.6561,-0.7095,-0.7095,-0.7095,-0.7095,1.5331,1.5556,1.593,1.593,1.6924,1.8101,1.8838,1.9559,2.0167,2.0527,2.0605,2.0605,2.0605,2.0605,2.0605,2.0605,2.0605,2.0605,2.0605,2.0605,2.0605,2.0605,2.0605,2.0605,2.0605,2.0605,2.0605,2.0605,2.0605,0.0,2.0605,2.0605,2.0605,2.0605,2.0605,2.0331,1.9789,1.9512,1.8781,1.754,1.6771,1.6046,1.5357,1.4676,1.4376,1.4362,1.4168,1.4309,1.4669,1.4467,1.2997,1.0896,1.0705,0.9182,0.7095,0.7095,0.7095,0.7095,0.7095,0.7095,0.7095,0.7095,0.7095,0.7095,0.7095,0.7095,0.7095,0.7095,0.7095,0.7095,0.7095,0.7095,0.6605,0.4685,0.3881,0.3037,0.1031,0.0269,0.0,0.0,0.0,0.0,0.0,0.0,0.0,0.0,0.0,0.0,0.0,0.0,0.0,0.0,0.0,0.0,0.0,0.0,0.0,0.0,0.0,0.0,0.0,0.0,0.0,0.0,-0.1165,-0.2593,-0.4198,-0.5758,-0.6738,-0.7095,-0.7095,-0.7095,0.0,0.0,0.0,1.5467,1.5662,1.6273,1.847,1.8997,1.9323,2.0362,2.0605,2.0605,2.0605,2.0605,2.0605,2.0605,2.0605,2.0605,2.0605,2.0605,2.0605,2.0605,2.0605,2.0605,2.0605,2.0605,2.0605,2.0605,2.0605,2.0605,2.0605,2.0605,2.0605,2.0605,2.0605,2.0605,2.0605,1.982,1.9434,1.9352,1.7175,1.6124,1.6032,1.4704,1.4088,1.4088,1.4088,1.4088,1.4088,1.4088,1.2741,1.0631,1.0603,0.9174,0.7139,0.7095,0.7095,0.7095,0.7095,0.7095,0.7095,0.7095,0.7095,0.7095,0.7095,0.7095,0.7095,0.7095,0.7095,0.7095,0.7095,0.7095,0.6827,0.5669,0.4508,0.3303,0.2057,0.0897,0.0045,0.0,0.0,0.0,0.0,0.0,0.0,0.0,0.0,0.0,0.0,0.0,0.0,0.0,0.0,0.0,0.0,0.0,0.0,0.0,0.0,0.0,0.0,0.0,0.0,0.0,-0.1165,-0.1745,-0.179,-0.4198,-0.5938,-0.7051,-0.7095,-0.7095,1.5357,0.0,0.0,0.0,0.0,0.0,1.7455,1.839,1.9323,2.0362,2.0605,2.0605,2.0605,2.0605,2.0605,2.0605,2.0605,2.0605,2.0605,2.0605,2.0605,2.0605,2.0605,2.0605,2.0605,2.0605,2.0605,0.0,2.0605,2.0605,2.0605,2.0605,2.0605,2.0605,2.0605,2.0605,2.0605,2.04,1.9886,1.9079,1.7646,1.6578,1.5789,1.4608,1.4088,1.4088,1.4088,1.4088,1.4088,1.4088,1.3207,1.1762,1.0901,0.9703,0.8277,0.7404,0.7095,0.7095,0.7095,0.7095,0.7095,0.7095,0.7095,0.7095,0.7095,0.7095,0.7095,0.7095,0.7095,0.7095,0.7095,0.7095,0.6827,0.5669,0.5134,0.4332,0.2236,0.1522,0.1031,0.018,0.0,0.0,0.0,0.0,0.0,0.0,0.0,0.0,0.0,0.0,0.0,0.0,0.0,0.0,0.0,0.0,0.0,0.0,0.0,0.0,0.0,0.0,0.0,0.0,-0.0314,-0.0942,-0.179,-0.335,-0.473,-0.5894,-0.6694,-0.7095,1.5478,1.5277,1.5044,1.4623,0.0,0.0,1.696,1.7827,1.8709,2.0284,2.0605,2.0605,2.0605,2.0605,2.0605,2.0605,2.0605,2.0605,2.0605,2.0605,2.0605,2.0605,2.0605,2.0605,2.0605,2.0605,2.0605,2.0605,2.0605,2.0605,2.0605,2.0605,2.0605,2.0605,2.0605,2.0605,2.0605,2.0605,2.0284,1.9638,1.855,1.7415,1.6314,1.5262,1.4531,1.4088,1.4088,1.4088,1.4088,1.4088,1.3377,1.218,1.1047,0.9903,0.8759,0.7533,0.7095,0.7095,0.7095,0.7095,0.7095,0.7095,0.7095,0.7095,0.7095,0.7095,0.7095,0.7095,0.7095,0.7095,0.7095,0.7095,0.6918,0.6248,0.5758,0.4868,0.2949,0.2147,0.1433,0.0225,0.0,0.0,0.0,0.0,0.0,0.0,0.0,0.0,0.0,0.0,0.0,0.0,0.0,0.0,0.0,0.0,0.0,0.0,0.0,0.0,0.0,0.0,0.0,0.0,0.0,-0.0359,-0.1031,-0.2281,-0.3482,-0.4688,-0.5847,-0.6381,1.5518,1.5424,1.5271,1.4743,1.4569,0.0,1.69,1.7326,1.7948,2.0157,2.0605,2.0605,2.0605,2.0605,2.0605,2.0605,2.0605,2.0605,2.0605,2.0605,2.0605,2.0605,2.0605,2.0605,2.0605,2.0605,2.0605,2.0605,2.0605,2.0605,2.0605,2.0605,2.0605,2.0605,2.0605,2.0605,2.0605,2.0605,2.0605,2.0605,1.952,1.847,1.7464,1.6232,1.5171,1.4286,1.4166,1.4088,1.4088,1.4088,1.3467,1.2361,1.1101,0.9966,0.893,0.7577,0.7095,0.7095,0.7095,0.7095,0.7095,0.7095,0.7095,0.7095,0.7095,0.7095,0.7095,0.7095,0.7095,0.7095,0.7095,0.7095,0.7095,0.7095,0.6337,0.5267,0.4061,0.2949,0.1791,0.0449,0.009,0.0,0.0,0.0,0.0,0.0,0.0,0.0,0.0,0.0,0.0,0.0,0.0,0.0,0.0,0.0,0.0,0.0,0.0,0.0,0.0,0.0,0.0,0.0,0.0,0.0,0.0,-0.121,-0.237,-0.3436,-0.4643,-0.527,1.5758,1.5571,1.5364,1.5251,1.487,0.0,1.7211,1.7507,1.7948,2.0157,2.0605,2.0605,2.0605,2.0605,2.0605,2.0605,2.0605,2.0605,2.0605,2.0605,2.0605,2.0605,2.0605,2.0605,2.0605,2.0605,2.0605,2.0605,2.0605,2.0605,2.0605,2.0605,2.0605,2.0605,2.0605,2.0605,2.0605,2.0605,2.0605,2.0605,1.952,1.8877,1.8598,1.6593,1.5598,1.5328,1.4475,1.4088,1.4088,1.4088,1.3942,1.3535,1.1423,1.0481,1.0005,0.7878,0.7095,0.7095,0.7095,0.7095,0.7095,0.7095,0.7095,0.7095,0.7095,0.7095,0.7095,0.7095,0.7095,0.7095,0.7095,0.7095,0.7095,0.7095,0.6918,0.647,0.5312,0.4868,0.4065,0.1879,0.0673,0.0,0.0,0.0,0.0,0.0,0.0,0.0,0.0,0.0,0.0,0.0,0.0,0.0,0.0,0.0,0.0,0.0,0.0,0.0,0.0,0.0,0.0,0.0,0.0,0.0,0.0,-0.121,-0.1924,-0.2191,-0.3393,-0.4287,1.5784,1.5678,1.5578,1.5431,1.5064,0.0,0.0,1.7524,1.7948,2.0157,2.0605,2.0605,2.0605,2.0605,2.0605,2.0605,2.0605,2.0605,2.0605,2.0605,2.0605,2.0605,2.0605,2.0605,2.0605,2.0605,2.0605,2.0605,2.0605,2.0605,2.0605,2.0605,2.0605,2.0605,2.0605,2.0605,2.0605,2.0605,2.0605,2.0605,2.004,1.952,1.8957,1.7253,1.6209,1.5636,1.4552,1.4088,1.4088,1.4088,1.4088,1.387,1.152,1.0956,1.108,0.8181,0.7492,0.7929,0.7316,0.7095,0.7095,0.7095,0.7095,0.7095,0.7095,0.7095,0.7095,0.7095,0.7095,0.7095,0.7095,0.7095,0.7095,0.7095,0.7095,0.6786,0.5625,0.5403,0.469,0.2281,0.1299,0.0718,0.009,0.0,0.0,0.0,0.0,0.0,0.0,0.0,0.0,0.0,0.0,0.0,0.0,0.0,0.0,0.0,0.0,0.0,0.0,0.0,0.0,0.0,0.0,0.0,0.0,-0.0628,-0.0897,-0.0942,-0.2147,-0.304,1.5784,1.5784,1.5772,1.5538,1.5264,1.5493,0.0,0.0,0.0,1.9893,2.044,0.0,0.0,0.0,0.0,2.0605,0.0,0.0,0.0,2.0605,0.0,2.0605,2.0401,2.0362,2.0566,2.0605,2.0605,2.0605,2.0605,2.0605,2.0605,2.0605,2.0605,2.0605,2.0605,2.0605,2.0605,2.0605,2.0605,2.0605,2.0605,2.0167,1.9274,1.8149,1.7172,1.6265,1.4971,1.4418,1.4375,1.4179,1.4088,1.3913,1.1778,1.1509,1.1895,0.8659,0.8061,0.8715,0.7536,0.7095,0.7095,0.7095,0.7095,0.7095,0.7095,0.7095,0.7095,0.7095,0.7095,0.7095,0.7095,0.7095,0.7095,0.7095,0.7095,0.683,0.5938,0.5714,0.509,0.2906,0.2504,0.197,0.0269,0.0,0.0,0.0,0.0,0.0,0.0,0.0,0.0,0.0,0.0,0.0,0.0,0.0,0.0,0.0,0.0,0.0,0.0,0.0,0.0,0.0,0.0,0.0,0.0,0.0,0.0,-0.0045,-0.0986,-0.1613,1.5784,1.5784,1.5771,1.5744,1.5565,1.5577,1.6529,0.0,1.802,1.8989,0.0,2.0605,0.0,0.0,0.0,0.0,0.0,0.0,2.0605,2.0605,2.0605,2.0605,1.9766,1.9559,2.0527,2.0605,2.0605,2.0605,2.0605,2.0605,2.0605,2.0605,2.0605,2.0605,2.0605,2.0605,2.0605,2.0605,2.0605,2.0605,2.0605,2.0527,2.0362,1.9323,1.8736,1.8499,1.6403,1.5536,1.5437,1.4473,1.4088,1.3955,1.2638,1.2194,1.2023,0.9579,0.8803,0.8715,0.7536,0.7095,0.7095,0.7095,0.7095,0.7095,0.7095,0.7095,0.7095,0.7095,0.7095,0.7095,0.7095,0.7095,0.7095,0.7095,0.7095,0.7051,0.6918,0.6918,0.6514,0.5225,0.5001,0.3931,0.0584,0.0,0.0,0.0,0.0,0.0,0.0,0.0,0.0,0.0,0.0,0.0,0.0,0.0,0.0,0.0,0.0,0.0,0.0,0.0,0.0,0.0,0.0,0.0,0.0,0.0,0.0,0.0,-0.0135,-0.0225,1.5784,1.5784,1.5784,1.5784,1.5611,1.5631,1.6411,1.6723,1.7062,1.7855,0.0,0.0,0.0,0.0,0.0,0.0,2.0605,2.0362,0.0,0.0,1.9155,2.044,0.0,0.0,2.0566,2.0605,2.0605,2.0605,2.0605,2.0605,2.0605,2.0605,2.0605,2.0605,2.0605,2.0605,2.0605,2.0605,2.0605,2.0605,2.0605,2.0605,2.0566,1.9497,1.8984,1.8872,1.6681,1.5686,1.5635,1.4522,1.4088,1.4039,1.3555,1.3336,1.3075,1.0745,0.9879,0.9705,0.8536,0.7665,0.7095,0.7095,0.7095,0.7095,0.7095,0.7095,0.7095,0.7095,0.7095,0.7095,0.7095,0.7095,0.7095,0.7095,0.7095,0.7095,0.7095,0.7095,0.6966,0.6488,0.6399,0.5458,0.2593,0.1522,0.1031,0.1031,0.0449,0.0,0.0,0.0,0.0,0.0,0.0,0.0,0.0,0.0,0.0,0.0,0.0,0.0,0.0,0.0,0.0,0.0,0.0,0.0,0.0,0.0,0.0,0.0,0.0,0.0,1.5784,1.5784,1.5784,1.5784,1.5671,1.5642,1.604,1.6191,1.6367,1.677,1.798,0.0,0.0,0.0,0.0,0.0,0.0,1.9883,0.0,1.8029,0.0,0.0,0.0,0.0,0.0,2.0605,2.0605,2.0605,2.0605,2.0605,2.0605,2.0605,2.0605,2.0605,2.0605,2.0605,2.0605,2.0605,2.0605,2.0605,2.0605,2.0605,2.0566,1.9783,1.9453,1.9318,1.7105,1.6147,1.6019,1.4677,1.4088,1.4088,1.4088,1.4088,1.3864,1.1821,1.0869,1.0438,0.9279,0.8105,0.7095,0.7095,0.7095,0.7095,0.7095,0.7095,0.7095,0.7095,0.7095,0.7095,0.7095,0.7095,0.7095,0.7095,0.7095,0.7095,0.7095,0.7095,0.7102,0.7119,0.7122,0.6577,0.4863,0.3304,0.2057,0.1387,0.0582,0.0,0.0,0.0,0.0,0.0,0.0,0.0,0.0,0.0,0.0,0.0,0.0,0.0,0.0,0.0,0.0,0.0,0.0,0.0,0.0,0.0,0.0,0.0,0.0,0.0,1.5784,1.5784,1.5784,1.5784,1.5771,1.5665,1.5181,1.5859,1.6437,1.5872,1.7488,1.8997,1.8997,0.0,0.0,0.0,0.0,0.0,0.0,0.0,1.7738,1.8917,1.9962,0.0,0.0,2.0605,2.0605,0.0,2.0605,2.0605,2.0605,2.0605,2.0605,2.0605,2.0605,2.0605,2.0605,2.0605,2.0605,2.0605,2.0605,2.0605,2.0605,2.0566,2.0557,2.0421,1.8201,1.7252,1.7072,1.4992,1.4088,1.4088,1.4088,1.4088,1.3955,1.2717,1.1552,1.0438,0.9279,0.8105,0.7095,0.7095,0.7095,0.7095,0.7095,0.7095,0.7095,0.7095,0.7095,0.7095,0.7095,0.7095,0.7095,0.7095,0.7095,0.7095,0.7095,0.7095,0.7095,0.7098,0.7098,0.7098,0.7007,0.5082,0.2767,0.0402,0.0045,0.0,0.0,0.0,0.0,0.0,0.0,0.0,0.0,0.0,0.0,0.0,0.0,0.0,0.0,0.0,0.0,0.0,0.0,0.0,0.0,0.0,0.0,0.0,0.0,0.0,1.5784,1.5784,1.5784,1.5784,1.5685,1.5438,1.5102,1.5113,1.5101,1.474,1.5786,1.6838,1.6838,0.0,0.0,0.0,0.0,0.0,0.0,1.6927,1.6396,1.6756,1.777,1.8709,0.0,0.0,0.0,0.0,2.0605,0.0,2.0605,2.0605,2.0605,2.0605,2.0605,2.0605,2.0605,2.0605,2.0605,2.0605,2.0605,2.0605,2.0605,2.0605,2.0605,2.0479,1.8257,1.7294,1.7146,1.4985,1.4088,1.4088,1.4088,1.4088,1.4039,1.3646,1.2729,1.1466,0.9536,0.8105,0.7095,0.7095,0.7095,0.7095,0.7095,0.7095,0.7095,0.7095,0.7095,0.7095,0.7095,0.7095,0.7095,0.7095,0.7095,0.7095,0.7095,0.7095,0.7095,0.7095,0.7095,0.7095,0.7095,0.6425,0.5622,0.4825,0.201,0.0,0.0,0.0,0.0,0.0,0.0,0.0,0.0,0.0,0.0,0.0,0.0,0.0,0.0,0.0,0.0,0.0,0.0,0.0,0.0,0.0,0.0,0.0,0.0,0.0,1.5784,1.5784,1.5758,1.5698,1.5531,1.5291,1.4897,1.4656,1.4522,1.4635,1.522,1.5944,1.6715,0.0,0.0,0.0,0.0,0.0,0.0,1.5587,1.5137,1.5137,1.6396,1.7747,1.8877,0.0,0.0,0.0,0.0,0.0,0.0,2.0605,2.0605,2.0605,2.0605,2.0605,2.0605,2.0605,2.0605,2.0605,2.0605,2.0605,2.0605,2.0605,2.0605,2.0479,1.8261,1.7302,1.713,1.4971,1.4088,1.4088,1.4088,1.4088,1.4088,1.4088,1.3082,1.1423,0.9536,0.8105,0.7095,0.7095,0.7095,0.7095,0.7095,0.7095,0.7095,0.7095,0.7095,0.7095,0.7095,0.7095,0.7095,0.7095,0.7095,0.7095,0.7095,0.7095,0.7095,0.7095,0.7095,0.7095,0.7095,0.7095,0.7105,0.7081,0.4469,0.192,0.0224,0.0,0.0,0.0,0.0,0.0,0.0,0.0,0.0,0.0,0.0,0.0,0.0,0.0,0.0,0.0,0.0,0.0,0.0,0.0,0.0,0.0,0.0,0.0]}]]